[[{"header":{"parameterUnit":"m.s-1","parameterCategory":1,"la1":30.6,"la2":28.766,"lo1":-90.7593,"lo2":-88.6598,"dy":0.0162,"dx":0.0183,"nx":116,"ny":114,"refTime":"2023-07-05T06:00:00:Z","depth":0,"parameterNumber":2,"parameterNumberName":"U-component_of_WINDS"},"data":[0.0,0.0,0.0,0.0,0.0,0.0,0.0,0.0,0.0,0.0,0.0,0.0,0.0,0.0,0.0,0.0,0.0,0.0,0.0,0.0,0.0,0.0,0.0,0.0,0.0,0.0,0.0,0.0,0.0,0.0,0.0,0.0,0.0,0.0,0.0,0.0,0.0,0.0,0.0,0.0,0.0,0.0,0.0,0.0,0.0,0.0,0.0,0.0,0.0,0.0,0.0,0.0,0.0,0.0,0.0,0.0,0.0,0.0,0.0,0.0,0.0,0.0,0.0,0.0,0.0,0.0,0.0,0.0,0.0,0.0,0.0,0.0,0.0,0.0,0.0,0.0,0.0,0.0,0.0,0.0,0.0,0.0,0.0,0.0,0.0,0.0,0.0,0.0,0.0,0.0,0.0,0.0,0.0,0.0,0.0,0.0,0.0,0.0,0.0,0.0,0.0,0.0,0.0,0.0,0.0,0.0,0.0,0.0,0.0,0.0,0.0,0.0,0.0,0.0,0.0,0.0,0.0,0.0,0.0,0.0,0.0,0.0,0.0,0.0,0.0,0.0,0.0,0.0,0.0,0.0,0.0,0.0,0.0,0.0,0.0,0.0,0.0,0.0,0.0,0.0,0.0,0.0,0.0,0.0,0.0,0.0,0.0,0.0,0.0,0.0,0.0,0.0,0.0,0.0,0.0,0.0,0.0,0.0,0.0,0.0,0.0,0.0,0.0,0.0,0.0,0.0,0.0,0.0,0.0,0.0,0.0,0.0,0.0,0.0,0.0,0.0,0.0,0.0,0.0,0.0,0.0,0.0,0.0,0.0,0.0,0.0,0.0,0.0,0.0,0.0,0.0,0.0,0.0,0.0,0.0,0.0,0.0,0.0,0.0,0.0,0.0,0.0,0.0,0.0,0.0,0.0,0.0,0.0,0.0,0.0,0.0,0.0,0.0,0.0,0.0,0.0,0.0,0.0,0.0,0.0,0.0,0.0,0.0,0.0,0.0,0.0,0.0,0.0,0.0,0.0,0.0,0.0,0.0,0.0,0.0,0.0,0.0,0.0,0.0,0.0,0.0,0.0,0.0,0.0,0.0,0.0,0.0,0.0,0.0,0.0,0.0,0.0,0.0,0.0,0.0,0.0,0.0,0.0,0.0,0.0,0.0,0.0,0.0,0.0,0.0,0.0,0.0,0.0,0.0,0.0,0.0,0.0,0.0,0.0,0.0,0.0,0.0,0.0,0.0,0.0,0.0,0.0,0.0,0.0,0.0,0.0,0.0,0.0,0.0,0.0,0.0,0.0,0.0,0.0,0.0,0.0,0.0,0.0,0.0,0.0,0.0,0.0,0.0,0.0,0.0,0.0,0.0,0.0,0.0,0.0,0.0,0.0,0.0,0.0,0.0,0.0,0.0,0.0,0.0,0.0,0.0,0.0,0.0,0.0,0.0,0.0,0.0,0.0,0.0,0.0,0.0,0.0,0.0,0.0,0.0,0.0,0.0,0.0,0.0,0.0,0.0,0.0,0.0,0.0,0.0,0.0,0.0,0.0,0.0,0.0,0.0,0.0,0.0,0.0,0.0,0.0,0.0,0.0,0.0,0.0,0.0,0.0,0.0,0.0,0.0,0.0,0.0,0.0,0.0,0.0,0.0,0.0,0.0,0.0,0.0,0.0,0.0,0.0,0.0,0.0,0.0,0.0,0.0,0.0,0.0,0.0,0.0,0.0,0.0,0.0,0.0,0.0,0.0,0.0,0.0,0.0,0.0,0.0,0.0,0.0,0.0,0.0,0.0,0.0,0.0,0.0,0.0,0.0,0.0,0.0,0.0,0.0,0.0,0.0,0.0,0.0,0.0,0.0,0.0,0.0,0.0,0.0,0.0,0.0,0.0,0.0,0.0,0.0,0.0,0.0,0.0,0.0,0.0,0.0,0.0,0.0,0.0,0.0,0.0,0.0,0.0,0.0,0.0,0.0,0.0,0.0,0.0,0.0,0.0,0.0,0.0,0.0,0.0,0.0,0.0,0.0,0.0,0.0,0.0,0.0,0.0,0.0,0.0,0.0,0.0,0.0,0.0,0.0,0.0,0.0,0.0,0.0,0.0,0.0,0.0,0.0,0.0,0.0,0.0,0.0,0.0,0.0,0.0,0.0,0.0,0.0,0.0,0.0,0.0,0.0,0.0,0.0,0.0,0.0,0.0,0.0,0.0,0.0,0.0,0.0,0.0,0.0,0.0,0.0,0.0,0.0,0.0,0.0,0.0,0.0,0.0,0.0,0.0,0.0,0.0,0.0,0.0,0.0,0.0,0.0,0.0,0.0,0.0,0.0,0.0,0.0,0.0,0.0,0.0,0.0,0.0,0.0,0.0,0.0,0.0,0.0,0.0,0.0,0.0,0.0,0.0,0.0,0.0,0.0,0.0,0.0,0.0,0.0,0.0,0.0,0.0,0.0,0.0,0.0,0.0,0.0,0.0,0.0,0.0,0.0,0.0,0.0,0.0,0.0,0.0,0.0,0.0,0.0,0.0,0.0,0.0,0.0,0.0,0.0,0.0,0.0,0.0,0.0,0.0,0.0,0.0,0.0,0.0,0.0,0.0,0.0,0.0,0.0,0.0,0.0,0.0,0.0,0.0,0.0,0.0,0.0,0.0,0.0,0.0,0.0,0.0,0.0,0.0,0.0,0.0,0.0,0.0,0.0,0.0,0.0,0.0,0.0,0.0,0.0,0.0,0.0,0.0,0.0,0.0,0.0,0.0,0.0,0.0,0.0,0.0,0.0,0.0,0.0,0.0,0.0,0.0,0.0,0.0,0.0,0.0,0.0,0.0,0.0,0.0,0.0,0.0,0.0,0.0,0.0,0.0,0.0,0.0,0.0,0.0,0.0,0.0,0.0,0.0,0.0,0.0,0.0,0.0,0.0,0.0,0.0,0.0,0.0,0.0,0.0,0.0,0.0,0.0,0.0,0.0,0.0,0.0,0.0,0.0,0.0,0.0,0.0,0.0,0.0,0.0,0.0,0.0,0.0,0.0,0.0,0.0,0.0,0.0,0.0,0.0,0.0,0.0,0.0,0.0,0.0,0.0,0.0,0.0,0.0,0.0,0.0,0.0,0.0,0.0,0.0,0.0,0.0,0.0,0.0,0.0,0.0,0.0,0.0,0.0,0.0,0.0,0.0,0.0,0.0,0.0,0.0,0.0,0.0,0.0,0.0,0.0,0.0,0.0,0.0,0.0,0.0,0.0,0.0,0.0,0.0,0.0,0.0,0.0,0.0,0.0,0.0,0.0,0.0,0.0,0.0,0.0,0.0,0.0,0.0,0.0,0.0,0.0,0.0,0.0,0.0,0.0,0.0,0.0,0.0,0.0,0.0,0.0,0.0,0.0,0.0,0.0,0.0,0.0,0.0,0.0,0.0,0.0,0.0,0.0,0.0,0.0,0.0,0.0,0.0,0.0,0.0,0.0,0.0,0.0,0.0,0.0,0.0,0.0,0.0,0.0,0.0,0.0,0.0,0.0,0.0,0.0,0.0,0.0,0.0,0.0,0.0,0.0,0.0,0.0,0.0,0.0,0.0,0.0,0.0,0.0,0.0,0.0,0.0,0.0,0.0,0.0,0.0,0.0,0.0,0.0,0.0,0.0,0.0,0.0,0.0,0.0,0.0,0.0,0.0,0.0,0.0,0.0,0.0,0.0,0.0,0.0,0.0,0.0,0.0,0.0,0.0,0.0,0.0,0.0,0.0,0.0,0.0,0.0,0.0,0.0,0.0,0.0,0.0,0.0,0.0,0.0,0.0,0.0,0.0,0.0,0.0,0.0,0.0,0.0,0.0,0.0,0.0,0.0,0.0,0.0,0.0,0.0,0.0,0.0,0.0,0.0,0.0,0.0,0.0,0.0,0.0,0.0,0.0,0.0,0.0,0.0,0.0,0.0,0.0,0.0,0.0,0.0,0.0,0.0,0.0,0.0,0.0,0.0,0.0,0.0,0.0,0.0,0.0,0.0,0.0,0.0,0.0,0.0,0.0,0.0,0.0,0.0,0.0,0.0,0.0,0.0,0.0,0.0,0.0,0.0,0.0,0.0,0.0,0.0,0.0,0.0,0.0,0.0,0.0,0.0,0.0,0.0,0.0,0.0,0.0,0.0,0.0,0.0,0.0,0.0,0.0,0.0,0.0,0.0,0.0,0.0,0.0,0.0,0.0,0.0,0.0,0.0,0.0,0.0,0.0,0.0,0.0,0.0,0.0,0.0,0.0,0.0,0.0,0.0,0.0,0.0,0.0,0.0,0.0,0.0,0.0,0.0,0.0,0.0,0.0,0.0,0.0,0.0,0.0,0.0,0.0,0.0,0.0,0.0,0.0,0.0,0.0,0.0,0.0,0.0,0.0,0.0,0.0,0.0,0.0,0.0,0.0,0.0,0.0,0.0,0.0,0.0,0.0,0.0,0.0,0.0,0.0,0.0,0.0,0.0,0.0,0.0,0.0,0.0,0.0,0.0,0.0,0.0,0.0,0.0,0.0,0.0,0.0,0.0,0.0,0.0,0.0,0.0,0.0,0.0,0.0,0.0,0.0,0.0,0.0,0.0,0.0,0.0,0.0,0.0,0.0,0.0,0.0,0.0,0.0,0.0,0.0,0.0,0.0,0.0,0.0,0.0,0.0,0.0,0.0,0.0,0.0,0.0,0.0,0.0,0.0,0.0,0.0,0.0,0.0,0.0,0.0,0.0,0.0,0.0,0.0,0.0,0.0,0.0,0.0,0.0,0.0,0.0,0.0,0.0,0.0,0.0,0.0,0.0,0.0,0.0,0.0,0.0,0.0,0.0,0.0,0.0,0.0,0.0,0.0,0.0,0.0,0.0,0.0,0.0,0.0,0.0,0.0,0.0,0.0,0.0,0.0,0.0,0.0,0.0,0.0,0.0,0.0,0.0,0.0,0.0,0.0,0.0,0.0,0.0,0.0,0.0,0.0,0.0,0.0,0.0,0.0,0.0,0.0,0.0,0.0,0.0,0.0,0.0,0.0,0.0,0.0,0.0,0.0,0.0,0.0,0.0,0.0,0.0,0.0,0.0,0.0,0.0,0.0,0.0,0.0,0.0,0.0,0.0,0.0,0.0,0.0,0.0,0.0,0.0,0.0,0.0,0.0,0.0,0.0,0.0,0.0,0.0,0.0,0.0,0.0,0.0,0.0,0.0,0.0,0.0,0.0,0.0,0.0,0.0,0.0,0.0,0.0,0.0,0.0,0.0,0.0,0.0,0.0,0.0,0.0,0.0,0.0,0.0,0.0,0.0,0.0,0.0,0.0,0.0,0.0,0.0,0.0,0.0,0.0,0.0,0.0,0.0,0.0,0.0,0.0,0.0,0.0,0.0,0.0,0.0,0.0,0.0,0.0,0.0,0.0,0.0,0.0,0.0,0.0,0.0,0.0,0.0,0.0,0.0,0.0,0.0,0.0,0.0,0.0,0.0,0.0,0.0,0.0,0.0,0.0,0.0,0.0,0.0,0.0,0.0,0.0,0.0,0.0,0.0,0.0,0.0,0.0,0.0,0.0,0.0,0.0,0.0,0.0,0.0,0.0,0.0,0.0,0.0,0.0,0.0,0.0,0.0,0.0,0.0,0.0,0.0,0.0,0.0,0.0,0.0,0.0,0.0,0.0,0.0,0.0,0.0,0.0,0.0,0.0,0.0,0.0,0.0,0.0,0.0,0.0,0.0,0.0,0.0,0.0,0.0,0.0,0.0,0.0,0.0,0.0,0.0,0.0,0.0,0.0,0.0,0.0,0.0,0.0,0.0,0.0,0.0,0.0,0.0,0.0,0.0,0.0,0.0,0.0,0.0,0.0,0.0,0.0,0.0,0.0,0.0,0.0,0.0,0.0,0.0,0.0,0.0,0.0,0.0,0.0,0.0,0.0,0.0,0.0,0.0,0.0,0.0,0.0,0.0,0.0,0.0,0.0,0.0,0.0,0.0,0.0,0.0,0.0,0.0,0.0,0.0,0.0,0.0,0.0,0.0,0.0,0.0,0.0,0.0,0.0,0.0,0.0,0.0,0.0,0.0,0.0,0.0,0.0,0.0,0.0,0.0,0.0,0.0,0.0,0.0,0.0,0.9332,0.0,0.0,0.0,0.0,0.0,0.0,0.0,0.0,0.0,0.0,0.0,0.0,0.0,0.0,0.0,0.0,0.0,0.0,0.0,0.0,0.0,0.0,0.0,0.0,0.0,0.0,0.0,0.0,0.0,0.0,0.0,0.0,0.0,0.0,0.0,0.0,0.0,0.0,0.0,0.0,0.0,0.0,0.0,0.0,0.0,0.0,0.0,0.0,0.0,0.0,0.0,0.0,0.0,0.0,0.0,0.0,0.0,0.0,0.0,0.0,0.0,0.0,0.0,0.0,0.0,0.0,0.0,0.0,0.0,0.0,0.0,0.0,0.0,0.0,0.0,0.0,0.0,0.0,0.0,0.0,0.0,0.0,0.0,0.0,0.0,0.0,0.0,0.0,0.0,0.0,0.0,0.0,0.0,0.0,0.0,0.0,0.0,0.0,0.0,0.0,0.0,0.0,0.0,0.0,0.0,0.0,0.0,0.0,0.0,0.0,0.0,0.0,0.0,0.0,0.0,0.0,0.9973,0.0,0.0,0.0,0.0,0.0,0.0,0.0,0.0,0.0,0.0,0.0,0.0,0.0,0.0,0.0,0.0,0.0,0.0,0.0,0.0,0.0,0.0,0.0,0.0,0.0,0.0,0.0,0.0,0.0,0.0,0.0,0.0,0.0,0.0,0.0,0.0,0.0,0.0,0.0,0.0,0.0,0.0,0.0,0.0,0.0,0.0,0.0,0.0,0.0,0.0,0.0,0.0,0.0,0.0,0.0,0.0,0.0,0.0,0.0,0.0,0.0,0.0,0.0,0.0,0.0,0.0,0.0,0.0,0.0,0.0,0.0,0.0,0.0,0.0,0.0,0.0,0.0,0.0,0.0,0.0,0.0,0.0,0.0,0.0,0.0,0.0,0.0,0.0,0.0,0.0,0.0,0.0,0.0,0.0,0.0,0.0,0.0,0.0,0.0,0.0,0.0,0.0,0.0,0.0,0.0,0.0,0.0,0.0,0.8925,0.9182,0.9614,0.9136,0.9176,0.9621,0.9731,0.9915,1.0213,1.1265,0.0,0.0,0.0,0.0,0.0,0.0,0.0,0.0,0.0,0.0,0.0,0.0,0.0,0.0,0.0,0.0,0.0,0.0,0.0,0.0,0.0,0.0,0.0,0.0,0.0,0.0,0.0,0.0,0.0,0.0,0.0,0.0,0.0,0.0,0.0,0.0,0.0,0.0,-0.3554,-0.3697,-0.3754,-0.3731,-0.3639,0.0,0.0,0.0,0.0,0.0,0.0,0.0,0.0,0.0,0.0,0.0,0.0,0.0,0.0,0.0,0.0,0.0,0.0,0.0,0.0,0.0,0.0,0.0,0.0,0.0,0.0,0.0,0.0,0.0,0.0,0.0,0.0,0.0,0.0,0.0,0.0,0.0,0.0,0.0,0.0,0.0,0.0,0.0,0.4123,0.4013,0.0,0.0,0.0,0.0,0.0,0.0,0.0,0.0,0.0,0.0,0.0,0.0,0.0,0.8195,0.8954,0.911,0.9312,0.9566,0.9392,0.9186,0.8917,0.9213,0.918,0.8937,0.9506,0.0,0.9923,1.0934,0.0,0.0,0.0,0.0,0.0,0.0,0.0,0.0,0.0,0.0,0.0,0.0,0.0,0.0,0.0,0.0,0.0,0.0,0.0,0.0,0.0,0.0,0.0,0.0,0.0,0.0,0.0,0.0,0.0,0.0,0.0,0.0,0.0,0.0,0.0,0.0,-0.3524,-0.3636,-0.37,-0.3849,-0.3965,-0.4043,-0.3955,-0.3435,-0.2498,-0.1447,0.0,0.0,0.0,0.0,0.0,0.0,0.0,0.0,0.0,0.0,0.0,0.0,0.0,0.0,0.0,0.0,0.0,0.0,0.0,0.0,0.0,0.0,0.0,0.0,0.0,0.0,0.0,0.0,0.0,0.0,0.0,0.0,0.0,0.0,0.0,0.0,0.0,0.0,0.0,0.4317,0.4314,0.4113,0.4334,0.4491,0.0,0.0,0.0,0.0,0.0,0.0,0.0,0.0,0.0,0.8839,0.8991,0.9169,0.9492,0.9599,0.9606,0.9526,0.988,0.996,0.98,0.9967,0.9953,0.9806,1.0067,1.0329,1.0534,1.0687,1.1064,1.1567,0.0,0.0,0.0,0.0,1.3027,1.3232,0.0,0.0,0.0,0.0,0.0,0.0,0.0,0.0,0.0,0.0,0.0,0.0,0.0,0.0,0.0,-0.5947,0.0,0.0,0.0,0.0,0.0,0.0,0.0,0.0,0.0,0.0,0.0,0.0,-0.3778,-0.3887,-0.3965,-0.4117,-0.4273,-0.4361,-0.4367,-0.3655,-0.2319,-0.1625,-0.0826,0.0,0.0,0.0,0.0,0.0,0.0,0.0,0.0,0.0,0.0,0.0,0.0,0.0,0.0,0.0,0.0,0.0,0.0,0.0,0.0,0.0,0.0,0.0,0.0,0.0,0.0,0.0,0.0,0.0,0.0,0.0,0.0,0.0,0.0,0.0,0.0,0.0,0.0,0.4341,0.4355,0.4157,0.4351,0.4501,0.0,0.0,0.0,0.0,0.0,0.0,0.87,0.924,0.9557,0.953,0.9992,1.0127,0.9913,1.0053,1.0053,0.992,1.0501,1.0862,1.1002,1.0848,1.0862,1.1002,1.0848,1.0969,1.1196,1.0632,1.074,1.1271,1.1429,1.2085,1.2893,1.2893,1.3314,1.3786,0.0,0.0,0.0,0.0,0.0,0.0,0.0,0.0,0.0,0.0,0.0,0.0,0.0,0.0,-0.63,-0.652,-0.6321,-0.5823,0.0,0.0,0.0,0.0,0.0,0.0,0.0,0.0,0.0,-0.3782,-0.3934,-0.4151,-0.4488,-0.4585,-0.4738,-0.4884,-0.4877,-0.4499,-0.3716,-0.1196,-0.0055,-0.0,0.0,0.0,0.0,0.0,0.0,0.0,0.0,0.0,0.0,0.0,0.0,0.0,0.0,0.0,0.0,0.0,0.0,0.0,0.0,0.0,0.0,0.0,0.0,0.0,0.0,0.0,0.0,0.0,0.0,0.0,0.0,0.0,0.0,0.0,0.0,0.0,0.0,0.0,0.0,0.405,0.4287,0.0,0.0,0.0,0.0,0.5817,0.7633,0.8376,0.7417,0.9387,1.004,0.9082,1.0072,1.0598,1.0577,1.0591,1.0795,1.1323,1.1363,1.1677,1.2198,1.1637,1.1683,1.2184,1.1623,1.1496,1.1623,1.0887,1.0807,1.1115,1.0875,1.1609,1.2923,1.2923,1.3672,1.4605,0.0,0.0,0.0,0.0,0.0,0.0,0.0,0.0,0.0,0.0,0.0,0.0,0.0,-0.6129,-0.6265,-0.6441,-0.6405,-0.5886,-0.4918,0.0,0.0,0.0,0.0,0.0,0.0,0.0,-0.3985,-0.4033,-0.4233,-0.4409,-0.4613,-0.4765,-0.4914,-0.5053,-0.5053,-0.5024,-0.4988,-0.2993,-0.1303,-0.0,-0.0,-0.0,0.0,0.0,0.0,0.0,0.0,0.0,0.0,0.0,0.0,0.0,0.0,0.0,0.0,0.0,0.0,0.0,0.0,0.0,0.0,0.0,0.0,0.0,0.0,0.0,0.0,0.0,0.0,0.0,0.0,0.0,0.0,0.0,0.0,0.0,0.0,0.0,0.0,0.4606,0.486,0.0,0.4969,0.5736,0.6227,0.6346,0.7447,0.8047,0.7861,0.8617,0.8931,0.8649,0.9298,0.9519,0.9203,1.0849,1.123,1.0343,1.0301,1.0203,0.9948,1.0551,1.1632,1.2852,1.2251,1.2031,1.1906,0.9354,0.9661,1.1681,1.1405,1.183,1.268,1.268,1.3152,1.3831,0.0,0.0,0.0,0.0,0.0,0.0,0.0,0.0,0.0,0.0,0.0,-0.5645,-0.6135,-0.6458,-0.6741,-0.704,-0.683,-0.6247,-0.5337,0.0,0.0,0.0,0.0,0.0,0.0,-0.4117,-0.4219,-0.4321,-0.4467,-0.4643,-0.4843,-0.4996,-0.5145,-0.5287,-0.5335,-0.5487,-0.5644,-0.4607,-0.3256,-0.1697,-0.051,-0.0,-0.0,0.0,0.0,0.0,0.0,0.0,0.0,0.0,0.0,0.0,0.0,0.0,0.0,0.0,0.0,0.0,0.0,0.0,0.0,0.0,0.0,0.0,0.0,0.0,0.0,0.0,0.0,0.0,0.0,0.0,0.0,0.0,0.0,0.0,0.0,0.0,0.503,0.5131,0.5362,0.5508,0.5508,0.596,0.631,0.6424,0.7313,0.7699,0.7548,0.851,0.8631,0.7821,0.8665,0.9065,0.8842,1.0576,1.0565,0.8831,0.9275,0.9374,0.9288,0.9953,1.1484,1.34,1.1385,1.0515,1.039,0.7954,0.8649,1.1147,1.0628,1.1154,1.2171,1.2123,1.2747,1.3794,0.0,0.0,0.0,0.0,0.0,0.0,0.0,0.0,0.0,0.0,-0.5312,-0.5832,-0.6176,-0.6982,-0.7702,-0.8317,-0.7584,-0.689,-0.6381,-0.5303,0.0,0.0,0.0,0.0,-0.4036,-0.4314,-0.4519,-0.4525,-0.4626,-0.485,-0.5135,-0.5294,-0.5447,-0.5596,-0.5749,-0.5813,-0.581,-0.5823,-0.5658,-0.5122,-0.156,-0.0125,-0.0,0.0,0.0,0.0,0.0,0.0,0.0,0.0,0.0,0.0,0.0,0.0,0.0,0.0,0.0,0.0,0.0,0.0,0.0,0.0,0.0,0.0,0.0,0.0,0.0,0.0,0.0,0.0,0.0,0.0,0.0,0.0,0.0,0.0,0.4952,0.5067,0.5277,0.5576,0.5739,0.583,0.583,0.5962,0.6054,0.6057,0.7247,0.7521,0.6362,0.8973,0.9274,0.6651,0.8316,0.9369,0.9614,0.9639,0.8769,0.7129,0.8296,0.9404,1.0494,0.9912,1.1205,1.3652,0.9052,0.7139,0.7115,0.6831,0.7855,0.9519,0.8476,0.9368,1.1281,1.1095,1.2481,1.4494,0.0,0.0,0.0,0.0,0.0,0.0,0.0,0.0,0.0,0.0,-0.5312,-0.5905,-0.6413,-0.6874,-0.7244,-0.7584,-0.7273,-0.6521,-0.5404,0.0,0.0,0.0,0.0,0.0,-0.4338,-0.4474,-0.4573,-0.4626,-0.4884,-0.505,-0.5135,-0.5403,-0.5549,-0.5606,-0.5973,-0.6071,-0.5986,-0.6315,-0.6261,-0.5908,-0.4461,-0.2334,-0.0,0.0,0.0,0.0,0.0,0.0,0.0,0.0,0.0,0.0,0.0,0.0,0.0,0.0,0.0,0.0,0.0,0.0,0.0,0.0,0.0,0.0,0.0,0.0,0.0,0.0,0.0,0.0,0.0,0.0,0.0,0.0,0.0,0.5284,0.5243,0.565,0.5983,0.6067,0.6298,0.6454,0.6454,0.6491,0.6563,0.6675,0.7003,0.7014,0.6685,0.7431,0.7552,0.6763,0.7199,0.7464,0.7481,0.7716,0.7497,0.6922,0.7357,0.7696,0.7851,0.7842,0.8265,0.8965,0.7661,0.7139,0.7132,0.7051,0.7274,0.7924,0.8887,0.9266,0.9426,0.9942,1.1323,1.3019,0.0,0.0,0.0,0.0,0.0,0.0,0.0,0.0,0.0,0.0,-0.5239,-0.5845,-0.6186,-0.6593,-0.6976,-0.7338,-0.7276,-0.6681,-0.5366,0.0,0.0,0.0,0.0,-0.4284,-0.4515,-0.458,-0.4663,-0.4874,-0.5047,-0.5165,-0.5233,-0.5538,-0.5677,-0.5698,-0.6149,-0.6298,-0.6237,-0.6563,-0.6603,-0.6489,-0.6145,-0.4002,-0.1021,-0.0318,-0.0,-0.0,-0.0,-0.0,-0.0,-0.0,0.0,0.0,0.0,0.0,0.0,0.0,0.0,0.0,0.0,0.0,0.0,0.0,0.0,0.0,0.0,0.0,0.0,0.0,0.0,0.0,0.0,0.0,0.0,0.0,0.6183,0.5945,0.601,0.6264,0.6515,0.6702,0.6932,0.7078,0.7078,0.7078,0.7115,0.7204,0.721,0.7177,0.7095,0.7126,0.7146,0.716,0.7034,0.6912,0.6803,0.7027,0.7082,0.6966,0.7085,0.7078,0.697,0.7088,0.7139,0.7139,0.7139,0.7139,0.7139,0.7139,0.7139,0.0,0.0,0.0,0.0,0.0,1.0726,1.2085,0.0,0.0,0.0,0.0,0.0,0.0,0.0,0.0,0.0,0.0,0.0,-0.5665,-0.5665,-0.6159,-0.6727,-0.7358,-0.7412,-0.6966,0.0,0.0,0.0,-0.4077,-0.4307,-0.4508,-0.4543,-0.4636,-0.4853,-0.5131,-0.5148,-0.5226,-0.5435,-0.5664,-0.58,-0.5823,-0.6291,-0.6488,-0.6485,-0.6671,-0.6756,-0.684,-0.6873,-0.5066,-0.2247,-0.0581,-0.0,-0.0,-0.0,-0.0,-0.0,-0.0,0.0,0.0,0.0,0.0,0.0,0.0,0.0,0.0,0.0,0.0,0.0,0.0,0.0,0.0,0.0,0.0,0.0,0.0,0.0,0.0,0.0,0.0,0.0,0.0,0.6845,0.6814,0.7,0.6912,0.697,0.7353,0.7516,0.76,0.76,0.76,0.76,0.76,0.76,0.7563,0.7478,0.0,0.0,0.0,0.0,0.7139,0.7139,0.7207,0.7224,0.719,0.72,0.7197,0.7173,0.7149,0.7139,0.7139,0.7139,0.7139,0.7139,0.7139,0.7139,0.7122,0.6946,0.6983,0.7281,0.9007,1.0253,1.1203,0.0,0.0,0.0,0.0,0.0,0.0,0.0,0.0,0.0,-0.4929,-0.5164,-0.5364,-0.5364,-0.5671,-0.6119,-0.6707,-0.676,-0.652,0.0,0.0,-0.4056,-0.4362,-0.4321,-0.4402,-0.464,-0.4796,-0.4958,-0.5131,-0.5254,-0.5332,-0.5435,-0.5664,-0.58,-0.5827,-0.64,-0.6586,-0.6498,-0.6888,-0.7054,-0.7058,-0.7048,-0.445,-0.0468,-0.0151,-0.0,-0.0,-0.0,-0.0,-0.0,-0.0,-0.0,-0.0,-0.0,0.0,0.0,0.0,0.0,0.0,0.0,0.0,0.0,0.0,0.0,0.0,0.0,0.0,0.0,0.0,0.0,0.0,0.0,0.0,0.0,0.7553,0.7323,0.719,0.7584,0.7614,0.7587,0.756,0.7584,0.76,0.76,0.76,0.76,0.76,0.76,0.7624,0.7678,0.7611,0.7614,0.7709,0.7339,0.7139,0.7139,0.7624,0.7746,0.7512,0.0,0.0,0.7377,0.7214,0.7139,0.7139,0.7139,0.7139,0.7139,0.7139,0.7139,0.7136,0.7099,0.7105,0.7221,0.8545,0.9024,0.9308,0.0,0.0,0.0,0.0,0.0,0.0,0.0,0.0,0.0,0.0,-0.5265,-0.5369,-0.5484,-0.5625,-0.5952,-0.654,-0.6263,0.0,0.0,-0.486,-0.4285,-0.4341,-0.4355,-0.446,-0.4684,-0.484,-0.4989,-0.5131,-0.5284,-0.5466,-0.5481,-0.5698,-0.584,-0.5939,-0.6464,-0.6658,-0.661,-0.6983,-0.7183,-0.7251,-0.7183,-0.5703,-0.3315,-0.0903,-0.0,-0.0,-0.0,-0.0,-0.0,-0.0,-0.0,-0.0,-0.0,-0.0,0.0457,0.0,0.0,0.0,0.0,0.0,0.0,0.0,0.0,0.0,0.0,0.0,0.0,0.0,0.0,0.7121,0.0,0.0,0.7163,0.7569,0.7548,0.7556,0.778,0.7879,0.7899,0.7828,0.7821,0.7821,0.7821,0.7821,0.7821,0.7821,0.7821,0.7841,0.7889,0.7845,0.7841,0.7889,0.7695,0.759,0.759,0.779,0.7865,0.7818,0.7716,0.7641,0.7587,0.7485,0.7495,0.7584,0.7485,0.7383,0.7282,0.7183,0.7187,0.7255,0.7255,0.7207,0.7149,0.7849,0.844,0.8982,0.0,0.0,0.0,0.0,0.0,0.0,0.0,0.0,0.0,0.0,-0.548,-0.5467,-0.5518,-0.5658,-0.5976,0.0,0.0,0.0,0.0,-0.514,-0.4481,-0.428,-0.4399,-0.4591,-0.4687,-0.4813,-0.4958,-0.5131,-0.5254,-0.541,-0.5593,-0.5735,-0.5901,-0.6095,-0.6512,-0.6715,-0.6763,-0.7058,-0.7258,-0.736,-0.7241,-0.7192,-0.6737,-0.283,-0.0767,-0.0,-0.0,-0.0,-0.0,-0.0,-0.0,-0.0,-0.0,-0.0,0.0497,0.2926,0.39,0.0,0.0,0.0,0.0,0.0,0.0,0.0,0.0,0.0,0.7423,0.707,0.711,0.7165,0.6878,0.6936,0.7146,0.7414,0.7682,0.7855,0.7855,0.7963,0.8038,0.8038,0.8038,0.8038,0.8038,0.8038,0.8038,0.8038,0.8038,0.8038,0.8038,0.8038,0.8038,0.8038,0.8038,0.8038,0.8038,0.7879,0.7879,0.8035,0.7797,0.7726,0.7797,0.7797,0.7868,0.7984,0.7794,0.7621,0.7458,0.7295,0.7302,0.7506,0.7685,0.7514,0.7244,0.737,0.8044,0.9051,0.0,0.0,0.0,0.0,0.0,0.0,0.0,0.0,0.0,0.0,0.0,0.0,0.0,0.0,0.0,0.0,0.0,0.0,-0.6122,-0.496,-0.4336,-0.447,-0.4508,-0.4591,-0.4687,-0.4707,-0.4853,-0.5131,-0.5148,-0.5304,-0.5593,-0.5735,-0.5956,-0.6247,-0.6563,-0.6776,-0.6922,-0.7221,-0.7356,-0.737,-0.7373,-0.7397,-0.7499,-0.6591,-0.3696,-0.0,-0.0,-0.0,-0.0,-0.0,-0.0,-0.0,-0.0,-0.0,0.0076,0.0414,0.0,0.3441,0.3448,0.4118,0.5097,0.6133,0.6383,0.6768,0.0,0.0,0.8316,0.7928,0.8004,0.7877,0.7142,0.7329,0.7577,0.7736,0.7902,0.8014,0.8014,0.8028,0.8038,0.8038,0.8038,0.8038,0.8038,0.8038,0.8038,0.8038,0.8038,0.8038,0.8038,0.8038,0.8038,0.8038,0.8038,0.8038,0.8038,0.8018,0.8018,0.8038,0.8007,0.7994,0.8004,0.8004,0.7943,0.7828,0.7682,0.7604,0.758,0.7556,0.756,0.7664,0.885,0.8567,0.755,0.7567,0.7667,0.7944,0.0,0.0,0.0,0.0,0.0,0.0,0.0,0.0,0.0,0.0,0.0,0.0,0.0,0.0,0.0,0.0,0.0,0.0,-0.6271,-0.526,-0.4675,-0.4835,-0.4631,-0.4546,-0.4558,-0.4646,-0.4796,-0.5006,-0.5091,-0.5287,-0.5593,-0.5735,-0.5918,-0.6139,-0.6437,-0.6654,-0.681,-0.7024,-0.7214,-0.7363,-0.7285,-0.6709,-0.5964,-0.5594,-0.4907,-0.3775,-0.0962,-0.0,0.0,0.0,-0.0,-0.0,-0.0,-0.0,-0.0,-0.0,0.1872,0.0,0.4409,0.5018,0.0,0.0,0.6191,0.6663,0.7328,0.7549,0.7627,0.7624,0.7807,0.7941,0.7634,0.7767,0.7875,0.0,0.7997,0.8038,0.8038,0.8038,0.8007,0.7916,0.7984,0.8038,0.8038,0.8038,0.8038,0.8038,0.8038,0.8038,0.8038,0.8038,0.8038,0.8038,0.8038,0.8038,0.8038,0.8038,0.8038,0.8038,0.8038,0.8038,0.8038,0.8038,0.8004,0.7936,0.7787,0.7773,0.7841,0.7672,0.7648,0.7818,0.8281,0.8657,0.8855,0.8855,0.8383,0.7924,0.0,0.0,0.0,0.0,0.0,0.0,0.0,0.0,0.0,0.0,0.0,0.0,0.0,0.0,0.0,0.0,0.0,0.0,0.0,-0.5116,-0.4698,-0.4813,-0.4541,-0.4399,-0.4577,-0.4633,-0.4785,-0.4975,-0.5081,-0.5287,-0.5593,-0.5735,-0.5905,-0.6105,-0.6359,-0.6556,-0.6712,-0.6865,-0.7027,-0.718,-0.7115,-0.6334,-0.5287,-0.4838,-0.5539,-0.604,-0.16,-0.0,0.0,0.0,-0.0,-0.0,-0.0,-0.0,-0.0,-0.0,0.1867,0.4085,0.4945,0.0,0.0,0.5885,0.6257,0.6698,0.6814,0.7044,0.7309,0.7567,0.779,0.796,0.8028,0.8038,0.8038,0.8038,0.8038,0.8038,0.8038,0.8004,0.7936,0.7824,0.7875,0.7933,0.7974,0.8014,0.8038,0.8038,0.8079,0.8085,0.8041,0.8079,0.8082,0.8041,0.8038,0.8038,0.8038,0.8038,0.8038,0.8038,0.8038,0.8038,0.8038,0.8038,0.8038,0.8031,0.7923,0.7936,0.8024,0.7807,0.778,0.7875,0.8258,0.8739,0.9316,0.9698,0.9216,0.8466,0.0,0.0,0.0,0.0,0.0,0.0,0.0,0.0,0.0,0.0,0.0,0.0,0.0,0.0,0.0,0.0,0.0,0.0,0.0,-0.4186,-0.4029,-0.4055,-0.4029,-0.4236,-0.4674,-0.4687,-0.4833,-0.5125,-0.5128,-0.5287,-0.5593,-0.5735,-0.5962,-0.6261,-0.6407,-0.6556,-0.6712,-0.6865,-0.6848,-0.6736,-0.698,-0.6867,-0.6508,-0.6107,-0.5733,-0.4971,-0.1344,0.0,0.0,0.0,-0.0,-0.0,-0.0,-0.0,0.0,-0.0,0.1099,0.2607,0.0,0.0,0.5332,0.6291,0.682,0.7171,0.7675,0.7892,0.8052,0.8211,0.8252,0.8211,0.8065,0.8038,0.8038,0.8038,0.8038,0.8038,0.8038,0.7913,0.7818,0.7811,0.7692,0.7665,0.0,0.795,0.8038,0.8038,0.8177,0.8197,0.8048,0.818,0.8194,0.8045,0.8038,0.8038,0.8038,0.8038,0.8038,0.8038,0.8038,0.8038,0.8038,0.8038,0.8038,0.8038,0.8035,0.8035,0.8038,0.8031,0.8028,0.8131,0.9402,0.9209,0.823,0.9501,0.9989,0.9797,0.0,0.0,0.0,0.0,0.0,0.0,0.0,0.0,0.0,0.0,0.0,0.0,0.0,0.0,0.0,0.0,0.0,0.0,0.0,-0.4244,-0.3971,-0.4244,-0.4104,-0.409,-0.4243,-0.444,-0.4636,-0.484,-0.484,-0.4945,-0.5148,-0.5291,-0.541,-0.5521,-0.5776,-0.5966,-0.6112,-0.6268,-0.6417,-0.6536,-0.6396,-0.6281,-0.6156,-0.5885,-0.5573,-0.5032,0.0,0.0,0.0,0.0,0.0,0.0,-0.0,0.0,-0.0,-0.0,0.0322,0.1258,0.3827,0.0,0.3558,0.5075,0.6529,0.7779,0.8204,0.8225,0.8208,0.8258,0.8035,0.7811,0.7756,0.7746,0.775,0.7657,0.7831,0.7962,0.7962,0.7918,0.7943,0.7824,0.7858,0.0,0.0,0.0,0.0,0.8031,0.8184,0.8248,0.8197,0.8333,0.8387,0.8336,0.8241,0.8194,0.8194,0.8092,0.8038,0.8038,0.8038,0.8038,0.8038,0.8038,0.8038,0.8038,0.8038,0.8038,0.8038,0.8038,0.8038,0.8038,0.8531,0.892,0.9312,0.8825,0.9217,0.9805,0.0,0.0,0.0,0.0,0.0,0.0,0.0,0.0,0.0,0.0,0.0,0.0,0.0,0.0,0.0,0.0,0.0,0.0,0.0,0.0,-0.3671,-0.3983,-0.3912,-0.3961,-0.4175,-0.4365,-0.4565,-0.4772,-0.4718,-0.4741,-0.484,-0.4931,-0.4972,-0.4986,-0.5237,-0.5399,-0.5491,-0.5589,-0.5742,-0.5905,-0.5766,-0.5677,-0.5603,-0.5456,-0.5001,0.0,0.0,0.0,0.0,0.0,0.0,0.0,0.0,-0.0,-0.0,-0.0,-0.0,0.0425,0.2359,0.2993,0.3299,0.444,0.6488,0.8314,0.8482,0.8431,0.8326,0.8365,0.8157,0.7782,0.7475,0.7458,0.744,0.7616,0.6988,0.6722,0.706,0.7641,0.7986,0.7821,0.7896,0.794,0.0,0.0,0.0,0.8031,0.8228,0.8323,0.8275,0.8459,0.8537,0.8482,0.836,0.8289,0.8272,0.8116,0.8038,0.8038,0.8038,0.8038,0.8038,0.8038,0.8038,0.8038,0.8038,0.8038,0.8038,0.8038,0.8038,0.8038,0.8038,0.8531,0.9217,0.8333,0.8528,0.9118,0.0,0.0,0.0,0.0,0.0,0.0,0.0,0.0,0.0,0.0,0.0,0.0,0.0,0.0,0.0,0.0,0.0,0.0,0.0,0.0,0.0,-0.3289,-0.3487,-0.3832,-0.446,-0.4488,-0.4639,-0.4874,-0.4735,-0.4725,-0.4725,-0.4677,-0.4738,-0.4742,-0.484,-0.4908,-0.4908,-0.4914,-0.4921,-0.4942,-0.506,-0.5033,-0.4918,-0.4901,0.0,0.0,0.0,0.0,0.0,0.0,0.0,0.0,0.0,0.0,-0.0,-0.0,-0.0,-0.0,-0.0,0.2109,0.4279,0.4278,0.665,0.8814,0.8434,0.8312,0.8294,0.8252,0.8306,0.7984,0.0,0.0,0.7144,0.78,0.5822,0.4491,0.5243,0.6861,0.7995,0.0,0.0,0.0,0.0,0.0,0.0,0.8062,0.0,0.8428,0.8299,0.8567,0.8655,0.8509,0.8411,0.8333,0.8282,0.8119,0.8038,0.8038,0.8038,0.8038,0.8038,0.8038,0.8038,0.8038,0.8038,0.8038,0.8038,0.8038,0.8038,0.8038,0.8038,0.8038,0.8038,0.8038,0.8038,0.8038,0.0,0.0,0.0,0.0,0.0,0.0,0.0,0.0,0.0,0.0,0.0,0.0,0.0,0.0,0.0,0.0,0.0,0.0,0.0,0.0,0.0,0.0,0.0,0.0,0.0,0.0,0.0,0.0,0.0,-0.5042,-0.5156,-0.4743,-0.4793,-0.5294,-0.4908,-0.4748,-0.4755,-0.487,-0.4982,-0.506,0.0,-0.485,-0.4894,0.0,0.0,0.0,0.0,0.0,0.0,0.0,0.0,0.0,0.0,0.0,-0.0,-0.0,-0.0,-0.0,-0.0,0.0596,0.1161,0.1179,0.5027,0.8313,0.6089,0.5568,0.5548,0.5514,0.5307,0.5043,0.0,0.0,0.0,0.644,0.6882,0.0,0.4962,0.6819,0.0,0.0,0.0,0.8326,0.8364,0.8367,0.0,0.0,0.8438,0.8516,0.8594,0.8777,0.8862,0.8821,0.8686,0.8554,0.8428,0.817,0.8038,0.8038,0.8038,0.8038,0.8038,0.8038,0.8038,0.8038,0.8038,0.8038,0.8038,0.8038,0.8038,0.8038,0.8038,0.8038,0.8038,0.8038,0.8038,0.8038,0.0,0.0,0.0,0.0,0.0,0.0,0.0,0.0,0.0,0.0,0.0,0.0,0.0,0.0,0.0,0.0,0.0,0.0,0.0,0.0,0.0,0.0,0.0,0.0,0.0,0.0,0.0,0.0,0.0,0.0,0.0,-0.4572,-0.4515,-0.4673,-0.4435,-0.4297,-0.4307,-0.446,0.0,0.0,0.0,0.0,0.0,0.0,0.0,0.0,0.0,0.0,0.0,0.0,0.0,-0.0,-0.0,-0.0,-0.0,-0.0,0.0,-0.0,-0.0,-0.0,-0.0,-0.0,0.2543,0.5277,0.6225,0.445,0.2494,0.2554,0.2387,0.0,0.0,0.0,0.0,0.0,0.0,0.0,0.4453,0.6867,0.8632,0.0,0.8642,0.0,0.8771,0.8777,0.8777,0.0,0.8655,0.8618,0.8706,0.8855,0.894,0.894,0.8855,0.8726,0.855,0.8211,0.8038,0.8038,0.8038,0.8038,0.8038,0.8038,0.8038,0.8038,0.0,0.8038,0.8038,0.8038,0.8038,0.8038,0.8038,0.8038,0.8038,0.8038,0.8038,0.8038,0.0,0.0,0.0,0.0,0.0,0.0,0.0,0.0,0.0,0.0,0.0,0.0,0.0,0.0,0.0,0.0,0.0,0.0,0.0,0.0,0.0,0.0,0.0,0.0,0.0,0.0,0.0,0.0,0.0,0.0,0.0,0.0,0.0,0.0,0.0,0.0,0.0,0.0,0.0,0.0,0.0,0.0,0.0,0.0,0.0,0.0,0.0,0.0,0.0,0.0,-0.2523,-0.0,-0.0,-0.0,-0.0,-0.0,-0.0,-0.0,-0.0,-0.0,-0.0,-0.0,-0.0,0.1499,0.7099,0.4409,0.0451,0.0078,0.0,-0.0,-0.0,0.0,-0.0,-0.0,0.0,0.0995,0.3982,0.7003,0.8823,0.8669,0.8862,0.9015,0.914,0.9171,0.9184,0.9184,0.8947,0.8784,0.8743,0.8866,0.894,0.894,0.8913,0.8818,0.8648,0.8282,0.8092,0.8079,0.8079,0.8065,0.8041,0.8069,0.8109,0.8153,0.8075,0.0,0.8038,0.8038,0.8038,0.8038,0.8038,0.8052,0.8069,0.8045,0.8052,0.8069,0.0,0.0,0.0,0.0,0.0,0.0,0.0,0.0,0.0,0.0,-0.1798,0.0,0.0,0.0,0.0,0.0,0.0,0.0,0.0,0.0,0.0,0.0,0.0,0.0,0.0,0.0,0.0,0.0,0.0,0.0,0.0,0.0,0.0,0.0,0.0,0.0,0.0,0.0,0.0,0.0,0.0,0.0,0.0,0.0,0.0,0.0,0.0,0.0,0.0,0.0,-0.2495,-0.0,-0.0,-0.0,-0.0,-0.0,-0.0,-0.0,-0.0,-0.0,-0.0,-0.0,-0.0,0.1052,0.5083,0.4822,0.0,0.0,0.0,-0.0,-0.0,-0.0,0.0,-0.0,0.0,0.0,0.0,0.0,0.886,0.0,0.0,0.0,0.0,0.0,0.0,0.0,0.0,0.9157,0.8913,0.8923,0.894,0.894,0.8777,0.8693,0.8699,0.8503,0.8364,0.8289,0.8289,0.8201,0.8045,0.8211,0.8469,0.8754,0.8255,0.0,0.8038,0.8038,0.8038,0.8038,0.8038,0.8116,0.8214,0.8089,0.8123,0.8211,0.0,0.0,0.0,0.0,0.0,0.0,0.0,0.0,0.0,-0.1808,-0.1519,-0.1477,0.0,0.0,0.0,0.0,0.0,0.0,0.0,0.0,0.0,0.0,0.0,0.0,0.0,0.0,0.0,0.0,0.0,0.0,0.0,0.0,0.0,0.0,0.0,0.0,0.0,0.0,0.0,0.0,0.0,0.0,0.0,0.0,0.0,0.0,0.0,0.0,0.0,0.0,-0.1176,-0.0,-0.0,-0.0,-0.0,-0.0,-0.0,-0.0,-0.0,-0.0,-0.0,-0.0,0.1608,0.3656,0.5032,0.0,0.0,0.0,0.0,-0.0,-0.0,0.0,0.0,0.0,0.0,0.0,0.0,0.0,0.0,0.0,0.0,0.0,0.0,0.0,0.0,0.0,0.0,0.9283,0.9062,0.8981,0.894,0.894,0.8845,0.8808,0.8828,0.8652,0.8554,0.8533,0.8506,0.8414,0.8269,0.8208,0.8289,0.8455,0.8163,0.0,0.8038,0.8038,0.8038,0.8048,0.813,0.8204,0.8262,0.8187,0.8208,0.8248,0.0,0.0,0.0,0.0,0.0,0.0,0.0,-0.1978,-0.1805,-0.1811,-0.1281,-0.1139,-0.1731,0.0674,0.2396,0.0,0.0,0.0,0.0,0.0,0.0,0.0,0.0,0.0,0.0,0.0,0.0,0.0,0.0,0.0,0.0,0.0,0.0,0.0,0.0,0.0,0.0,0.0,0.0,0.0,0.0,0.0,0.0,0.0,0.0,0.0,0.0,0.0,0.0,0.0,-0.0,-0.0,-0.0,-0.0,-0.0,-0.0,-0.0,-0.0,-0.0,-0.0,-0.0,-0.0,0.2518,0.5007,0.5419,0.5231,0.0,0.0,0.2638,0.0975,0.0977,0.0,0.0,0.0,0.0,0.0,0.0,0.0,0.0,0.0,0.0,0.0,0.0,0.0,0.0,0.0,0.0,0.0,0.9117,0.8998,0.894,0.894,0.894,0.894,0.894,0.8781,0.8723,0.876,0.872,0.8662,0.857,0.8336,0.816,0.8041,0.8106,0.0,0.0,0.8038,0.8038,0.8052,0.8174,0.8241,0.8269,0.8235,0.8241,0.8248,0.0,0.0,0.0,0.0,0.0,0.0,0.0,-0.1978,-0.1791,-0.1792,-0.1282,-0.1139,-0.1731,-0.009,0.1391,0.0,0.0,0.0,0.0,0.0,0.0,0.0,0.0,0.0,0.0,0.0,0.0,0.0,0.0,0.0,0.0,0.0,0.0,0.0,0.0,0.0,0.0,0.0,0.0,0.0,0.0,0.0,0.0,0.0,0.0,0.0,0.0,0.0,0.0,0.0,0.0,-0.0,-0.0,-0.0,-0.0,-0.0,0.0,0.0,-0.0,-0.0,-0.0,-0.0,0.0312,0.1535,0.4942,0.0,0.0,0.0,0.4423,0.4098,0.4101,0.4519,0.0,0.0,0.0,0.0,0.0,0.0,0.0,0.0,0.0,0.0,0.0,0.0,0.0,0.0,0.0,0.0,0.8974,0.8947,0.894,0.894,0.894,0.894,0.894,0.892,0.8913,0.8916,0.8913,0.8906,0.8896,0.8869,0.8557,0.8055,0.8323,0.0,0.0,0.8038,0.8038,0.8041,0.8055,0.8147,0.8252,0.8113,0.815,0.8248,0.0,0.0,0.0,0.0,0.0,0.0,0.0,-0.2241,-0.1982,-0.1811,-0.1588,-0.125,-0.0771,-0.0063,0.0787,0.0,0.0,0.0,0.0,0.0,0.0,0.0,0.0,0.0,0.0,0.0,0.0,0.0,0.0,0.0,0.0,0.0,0.0,0.0,0.0,0.0,0.0,0.0,0.0,0.0,0.0,0.0,0.0,0.0,0.0,0.0,0.0,0.0,0.0,0.0,0.0,0.0,-0.0,-0.0,0.0,0.0,-0.0,-0.0,-0.0,-0.0,-0.0,-0.0,0.0802,0.194,0.3367,0.0,0.0,0.3774,0.3563,0.3795,0.4364,0.485,0.4903,0.0,0.0,0.0,0.0,0.0,0.0,0.0,0.0,0.0,0.0,0.0,0.0,0.0,0.0,0.0,0.8954,0.894,0.894,0.894,0.894,0.894,0.894,0.894,0.894,0.894,0.894,0.894,0.894,0.894,0.8608,0.8045,0.8163,0.0,0.0,0.8038,0.8038,0.8048,0.8143,0.8214,0.8262,0.8201,0.8218,0.8248,0.0,0.0,0.0,0.0,0.0,0.0,-0.274,-0.2415,-0.2103,-0.1833,-0.1689,-0.1346,-0.0611,-0.0219,0.039,0.1359,0.0,0.0,0.0,0.0,0.0,0.0,0.0,0.0,0.0,0.0,0.0,-0.0367,0.0,0.0,0.0,0.0,0.0,0.0,0.0,0.0,0.0,0.0,0.0,0.0,0.0,0.0,0.0,0.0,0.0,0.0,0.0,0.0,0.0,0.0,0.0,0.0,0.0,0.0,0.0,0.0,-0.0,-0.0,-0.0,-0.0,-0.0,-0.0,0.1645,0.32,0.0,0.0,0.0,0.3564,0.2683,0.2585,0.4234,0.4667,0.49,0.5203,0.0,0.0,0.0,0.0,0.0,0.0,0.0,0.0,0.0,0.0,0.0,0.0,0.0,0.0,0.9015,0.896,0.894,0.894,0.894,0.8916,0.8872,0.8916,0.8893,0.8804,0.8849,0.8862,0.8852,0.8913,0.8608,0.8038,0.8038,0.0,0.0,0.8038,0.8038,0.8052,0.816,0.8204,0.8204,0.8204,0.8204,0.8187,0.0,0.0,0.0,0.0,0.0,0.0,0.0,-0.2415,-0.211,-0.1828,-0.1445,-0.1356,-0.1746,-0.0715,0.0156,0.058,0.0,0.0,0.0,0.0,0.0,0.0,0.0,0.0,0.0,0.0,0.0903,0.0869,0.0299,-0.0,0.0,0.0,0.0,0.0,0.0,0.0,0.0,0.0,0.0,0.0,0.0,0.0,0.0,0.0,0.0,0.0,0.0,0.0,0.0,0.0,0.0,0.0,0.0,0.0,0.0,0.0,-0.0,-0.0,-0.0,-0.0,-0.0,-0.0,0.2256,0.4543,0.0,0.0,0.0,0.4817,0.229,0.0949,0.3928,0.4508,0.4588,0.484,0.5179,0.0,0.0,0.0,0.0,0.0,0.0,0.0,0.0,0.0,0.0,0.0,0.0,0.0,0.915,0.9015,0.894,0.894,0.894,0.8866,0.8713,0.8862,0.8784,0.8489,0.8638,0.8686,0.8648,0.8849,0.8608,0.8038,0.0,0.0,0.0,0.8038,0.8038,0.8038,0.8041,0.8041,0.8041,0.8041,0.8041,0.8041,0.0,0.0,0.0,0.0,0.0,0.0,0.0,-0.2611,-0.2372,-0.1869,-0.1441,-0.1351,-0.1749,-0.1455,-0.0735,0.0487,0.0,0.0,0.0,0.0,0.0,0.0,0.0,0.0,0.0,0.0,0.2922,0.2685,0.2123,0.1857,0.1857,0.1838,0.0,0.0,0.0,0.0,0.0,0.0,0.0,0.0,0.0,0.0,0.0,0.0,0.0,0.0,0.0,0.0,0.0,0.0,0.0,0.0,0.0,0.0,0.0,0.0,0.0,0.0,-0.0,-0.0,-0.0,-0.0,0.1464,0.3195,0.4388,0.0,0.4686,0.4656,0.3266,0.1949,0.1507,0.3213,0.4689,0.4783,0.5176,0.0,0.0,0.0,0.0,0.0,0.0,0.0,0.0,0.0,0.0,0.0,0.0,0.0,0.9157,0.9018,0.894,0.894,0.8835,0.876,0.871,0.8655,0.8577,0.8482,0.8604,0.8652,0.8645,0.8845,0.872,0.0,0.0,0.0,0.0,0.8038,0.8038,0.8038,0.8038,0.8038,0.8038,0.8038,0.8038,0.8038,0.0,0.0,0.0,0.0,0.0,0.0,0.0,-0.2502,-0.2394,-0.2066,-0.1667,-0.1531,-0.1775,-0.1791,-0.1203,0.0243,0.0,0.0,0.0,0.0,0.0,0.0,0.0,0.0,0.0,0.372,0.3702,0.3486,0.3159,0.29,0.2702,0.2915,0.2988,0.2918,0.0,0.0,0.0,0.0,0.0,0.0,0.0,0.0,0.5168,0.0,0.0,0.0,0.0,0.0,0.0,0.0,0.0,0.0,0.0,0.0,0.0,0.0,0.317,0.0,0.0,0.0832,0.0867,0.0854,0.1994,0.0,0.0,0.0,0.4532,0.4048,0.3461,0.273,0.184,0.3291,0.468,0.4833,0.5077,0.0,0.0,0.0,0.0,0.0,0.0,0.0,0.0,0.0,0.0,0.0,0.0,0.0,0.9079,0.8933,0.8852,0.8852,0.876,0.8682,0.8625,0.853,0.8425,0.8316,0.8442,0.8469,0.8418,0.8543,0.8496,0.0,0.0,0.0,0.0,0.8038,0.8038,0.8038,0.8038,0.8038,0.8038,0.8038,0.8038,0.8038,0.0,0.0,0.0,0.0,0.0,0.0,0.0,0.0,0.0,0.0,-0.2066,-0.1825,-0.1806,-0.1791,-0.1316,0.0,0.0,0.0,0.0,0.0,0.0,0.0,0.0,0.0,0.0,0.3575,0.3569,0.3552,0.3533,0.3249,0.2827,0.3307,0.348,0.341,0.3817,0.0,0.0,0.0,0.0,0.0,0.0,0.0,0.0,0.0,0.0,0.0,0.0,0.0,0.0,0.0,0.0,0.0,0.0,0.0,0.0,0.0,0.0,0.0,0.0,0.0,0.0,0.0,0.0,0.0,0.0,0.0,0.0,0.3287,0.3118,0.3403,0.4379,0.4487,0.4579,0.4887,0.4945,0.0,0.0,0.0,0.0,0.0,0.0,0.0,0.0,0.0,0.0,0.0,0.0,0.0,0.894,0.8794,0.8706,0.8696,0.8682,0.8611,0.8469,0.8465,0.8323,0.8041,0.8184,0.8177,0.8038,0.8038,0.8038,0.0,0.0,0.0,0.0,0.8038,0.8038,0.8038,0.8038,0.8038,0.8038,0.8038,0.8038,0.8038,0.0,0.0,0.0,0.0,0.0,0.0,0.0,0.0,0.0,0.0,-0.2172,-0.2022,-0.1816,-0.1798,-0.1319,0.0,0.0,0.0,0.0,0.0,0.0,0.0,0.0,0.0,0.0,0.4191,0.4202,0.4186,0.3728,0.363,0.3832,0.3775,0.3886,0.4137,0.4087,0.4346,0.0,0.0,0.0,0.0,0.0,0.0,0.0,0.0,0.0,0.0,0.5132,0.487,0.0,0.0,0.0,0.0,0.0,0.0,0.0,0.0,0.5246,0.49,0.4498,0.0,0.3945,0.3945,0.0,0.0,0.0,0.0,0.0,0.0,0.0,0.0,0.0,0.0,0.0,0.0,0.0,0.0,0.0,0.0,0.0,0.0,0.0,0.0,0.0,0.0,0.0,0.0,0.0,0.9055,0.8944,0.8794,0.8655,0.854,0.8431,0.8357,0.8319,0.8319,0.8225,0.8038,0.8075,0.8075,0.8038,0.8038,0.8038,0.0,0.0,0.0,0.8038,0.8038,0.8038,0.8038,0.8038,0.8038,0.8038,0.8038,0.8038,0.8038,0.0,0.0,0.0,0.0,0.0,0.0,0.0,0.0,0.0,0.0,0.0,0.0,0.0,0.0,0.0,0.0,0.0,0.0,0.0,0.0,0.0,0.0,0.0,0.4049,0.4221,0.4325,0.4309,0.4113,0.3786,0.36,0.35,0.3707,0.4028,0.4438,0.5255,0.577,0.0,0.0,0.0,0.0,0.8464,0.0,0.0,0.0,0.0,0.0,0.6341,0.6042,0.0,0.5721,0.5848,0.608,0.0,0.0,0.0,0.0,0.5536,0.5461,0.5551,0.5045,0.448,0.448,0.4477,0.4525,0.0,0.0,0.0,0.0,0.0,0.0,0.0,0.0,0.0,0.0,0.0,0.0,0.0,0.0,0.0,0.0,0.0,0.0,0.0,0.0,0.0,0.0,0.0,0.8886,0.8737,0.8587,0.8472,0.8387,0.8241,0.8201,0.8272,0.8272,0.8194,0.8038,0.8113,0.8109,0.8038,0.8038,0.8038,0.0,0.0,0.0,0.8038,0.8038,0.8038,0.8038,0.8038,0.8038,0.8038,0.8038,0.8038,0.8038,0.0,0.0,0.0,0.0,0.0,0.0,0.0,0.0,0.0,0.0,0.0,0.0,0.0,0.0,0.0,0.0,0.0,0.0,0.0,0.0,0.0,0.0,0.0,0.373,0.3961,0.4179,0.4092,0.3692,0.3695,0.3396,0.2863,0.3395,0.4039,0.4884,0.656,0.7531,0.0,0.0,0.0,0.0,0.8648,0.0,0.0,0.0,0.0,0.0,0.0,0.0,0.0,0.6139,0.5947,0.6204,0.5733,0.0,0.0,0.0,0.0,0.0,0.6284,0.5615,0.4846,0.4846,0.4846,0.4791,0.0,0.0,0.0,0.0,0.0,0.0,0.0,0.0,0.0,0.0,0.0,0.0,0.0,0.0,0.0,0.0,0.0,0.0,0.0,0.0,0.0,0.0,0.0,0.8611,0.8459,0.8336,0.8258,0.8238,0.8109,0.8102,0.8235,0.8258,0.8194,0.8041,0.8197,0.8187,0.8038,0.8038,0.8038,0.8038,0.0,0.0,0.8038,0.8038,0.8038,0.8038,0.8038,0.8038,0.8038,0.8038,0.8038,0.8038,0.0,0.0,0.0,0.0,0.0,0.0,0.0,0.0,0.0,0.0,0.0,0.0,0.0,0.0,0.0,0.0,0.0,0.0,0.0,0.0,0.0,0.0,0.3811,0.4095,0.3752,0.3775,0.3602,0.3205,0.3141,0.3307,0.3634,0.3111,0.419,0.6616,0.6907,0.8084,0.9857,0.9944,1.0021,1.003,1.0012,0.0,0.0,0.0,0.0,0.0,0.0,0.0,0.0,0.7709,0.753,0.7489,0.6937,0.0,0.0,0.0,0.0,0.0,0.7058,0.6733,0.6263,0.6263,0.6263,0.6095,0.0,0.0,0.0,0.0,0.0,0.0,0.0,0.0,0.0,0.0,0.0,0.0,0.0,0.0,0.0,0.0,0.0,0.0,0.0,0.0,0.0,0.0,0.0,0.8455,0.8313,0.8282,0.8211,0.8079,0.8052,0.8052,0.8075,0.8204,0.8194,0.8041,0.8197,0.8187,0.8038,0.8038,0.8038,0.8038,0.0,0.8038,0.8038,0.8038,0.8038,0.8038,0.8038,0.8038,0.8038,0.8038,0.8038,0.8038,0.0,0.0,0.0,0.0,0.0,0.0,0.0,0.0,0.0,0.0,0.0,0.0,0.0,0.0,0.0,0.0,0.0,0.0,0.0,0.0,0.0,0.2617,0.3375,0.3671,0.3385,0.3514,0.3416,0.3049,0.3194,0.3255,0.3197,0.3067,0.4217,0.6416,0.6826,0.7769,0.9182,0.9952,1.0283,1.0283,0.0,0.0,0.0,0.0,0.0,0.0,0.0,0.0,0.0,0.0,0.8022,0.77,0.7855,0.0,0.0,0.0,0.0,0.0,0.7779,0.7743,0.7605,0.7741,0.6902,0.5923,0.0,0.0,0.0,0.0,0.0,0.0,0.0,0.0,0.0,0.0,0.0,0.0,0.0,0.0,0.0,0.0,0.0,0.0,0.0,0.0,0.0,0.0,0.0,0.0,0.8153,0.8147,0.8113,0.8041,0.8038,0.8038,0.8038,0.8109,0.8109,0.8041,0.8197,0.8187,0.8038,0.8038,0.8038,0.8038,0.0,0.8038,0.8038,0.8038,0.8038,0.8038,0.8038,0.8038,0.8038,0.8038,0.8038,0.8038,0.0,0.0,0.0,0.0,0.0,0.0,0.0,0.0,0.0,0.0,0.0,0.0,0.0,0.0,0.0,0.0,0.0,0.0,0.0,0.0,0.22,0.2392,0.262,0.2852,0.3092,0.3359,0.3303,0.2936,0.3179,0.3192,0.2932,0.3205,0.4097,0.5427,0.6512,0.7314,0.7957,0.9588,1.0544,1.0954,0.0,0.0,0.0,0.0,0.0,0.0,0.0,0.0,0.0,0.0,0.0,0.0,0.0,0.0,0.0,0.8175,0.8157,0.8103,0.8397,0.8477,0.853,0.8751,0.0,0.6273,0.0,0.0,0.0,0.0,0.0,0.0,0.0,0.0,0.0,0.0,0.0,0.0,0.0,0.0,0.0,0.0,0.0,0.0,0.0,0.0,0.0,0.0,0.0,0.0,0.8045,0.8038,0.8038,0.8038,0.8038,0.8038,0.8038,0.8038,0.8038,0.8041,0.816,0.8153,0.8038,0.8038,0.8038,0.8038,0.8038,0.8038,0.8038,0.8038,0.8038,0.8038,0.8038,0.8038,0.8038,0.8038,0.8038,0.8038,0.0,0.0,0.0,0.0,0.0,0.0,0.0,0.0,0.0,0.0,0.0,0.0,0.0,0.0,0.0,0.0,0.0,0.0,0.0,0.0,0.1998,0.2392,0.1548,0.1713,0.308,0.3348,0.3249,0.2725,0.2739,0.3038,0.3517,0.3544,0.3653,0.384,0.6033,0.7021,0.7224,0.9381,1.1356,1.2826,1.1019,0.0,0.0,0.0,0.0,0.0,0.0,0.0,0.0,0.0,0.0,0.0,0.0,0.0,0.8245,0.8222,0.8299,0.8404,0.8697,0.8778,0.8784,0.8804,0.0,0.0,0.0,0.0,0.0,0.0,0.0,0.0,0.0,0.0,0.0,0.0,0.0,0.0,0.0,0.0,0.0,0.0,0.0,0.0,0.0,0.0,0.0,0.0,0.0,0.0,0.8038,0.8038,0.8038,0.8038,0.8038,0.8038,0.8038,0.8038,0.8038,0.8038,0.8052,0.8052,0.8038,0.8038,0.8038,0.8038,0.8038,0.8038,0.8038,0.8038,0.8038,0.8038,0.8038,0.8038,0.8038,0.8038,0.8038,0.8038,0.0,0.0,0.0,0.0,0.0,0.0,0.0,0.0,0.0,0.0,0.0,0.0,0.0,0.0,0.0,0.0,0.0,0.0,0.0,0.2051,0.2125,0.2028,0.1896,0.2153,0.2843,0.2951,0.2918,0.2712,0.2712,0.3025,0.3609,0.3569,0.3944,0.4705,0.5561,0.6748,0.8136,0.9667,1.1431,1.3129,1.2389,1.1763,0.0,0.0,0.0,0.0,0.0,0.0,0.0,0.0,0.9913,0.9834,0.8861,0.8704,0.8879,0.8576,0.8565,0.8664,0.8778,0.8804,0.8804,0.8804,0.0,0.0,0.0,0.0,0.0,0.0,0.0,0.0,0.0,0.0,0.0,0.0,0.0,0.0,0.0,0.0,0.0,0.0,0.0,0.0,0.0,0.0,0.0,0.0,0.0,0.0,0.7902,0.7896,0.7855,0.777,0.7767,0.7807,0.7896,0.7811,0.7811,0.7899,0.7994,0.8038,0.8038,0.8038,0.8038,0.8038,0.8038,0.8038,0.8038,0.8038,0.8038,0.8038,0.8038,0.8038,0.8038,0.8038,0.8038,0.8038,0.0,0.0,0.0,0.0,0.0,0.0,0.0,0.0,0.0,0.0,0.0,0.0,0.0,0.0,0.0,0.0,0.0,0.0,0.192,0.21,0.2171,0.2082,0.2273,0.2498,0.2706,0.2703,0.2426,0.184,0.1848,0.207,0.2509,0.394,0.5049,0.5819,0.5819,0.7071,0.9239,1.0,1.1431,1.3198,1.3198,1.2461,0.0,0.0,0.0,0.0,0.0,0.0,0.0,0.0,1.0283,1.0195,0.9456,0.9169,0.9056,0.8714,0.8855,0.9061,0.8857,0.8956,0.9061,0.0,0.0,0.0,0.0,0.0,0.0,0.0,0.0,0.0,0.0,0.0,0.0,0.0,0.0,0.0,0.0,0.0,0.0,0.0,0.0,0.0,0.0,0.0,0.0,0.0,0.0,0.0,0.0,0.7811,0.7746,0.7604,0.76,0.7645,0.7743,0.7648,0.7648,0.7746,0.7851,0.7923,0.797,0.8018,0.8038,0.8038,0.8038,0.8038,0.8038,0.8038,0.8038,0.8038,0.8038,0.8038,0.8038,0.8038,0.8038,0.8038,0.0,0.0,0.0,0.0,0.0,0.0,0.0,0.0,0.0,0.0,0.0,0.0,0.0,0.0,0.0,0.0,0.0,0.0,0.2194,0.1958,0.2071,0.2669,0.2496,0.2502,0.2696,0.2676,0.1782,-0.0,-0.0,0.0,0.01,0.4787,0.6979,0.6979,0.6979,0.8203,1.0283,1.0283,1.1431,1.3163,1.3163,1.2018,1.0283,0.0,0.0,0.0,0.0,0.0,0.0,0.0,1.0283,1.0135,0.9055,0.8714,0.8656,0.8462,0.9068,0.9666,0.8956,0.9316,0.0,0.0,0.0,0.0,0.0,0.0,0.0,0.0,0.0,0.0,0.0,0.0,0.0,0.0,0.0,0.0,0.0,0.0,0.0,0.0,0.0,0.0,0.0,0.0,0.0,0.0,0.0,0.0,0.0,0.7807,0.7743,0.76,0.7597,0.7597,0.7597,0.7597,0.7597,0.7597,0.7597,0.7672,0.7814,0.7967,0.8035,0.8038,0.8038,0.8038,0.8038,0.8038,0.8038,0.8038,0.8038,0.8038,0.8038,0.8038,0.8038,0.8038,0.0,0.0,0.0,0.0,0.0,0.0,0.0,0.0,0.0,0.0,0.0,0.0,0.0,0.0,0.0,0.0,0.0,0.0,0.2517,0.2484,0.2524,0.2676,0.2653,0.2623,0.2696,0.1445,0.0543,-0.0,-0.0,0.0,0.0066,0.3168,0.5475,0.6979,0.6979,0.7349,0.808,0.9628,1.0611,1.1169,1.1169,1.0802,1.0283,0.0,0.0,0.0,0.0,0.0,0.0,0.0,0.0,0.0,1.0195,0.9892,0.9581,0.8665,0.9068,0.9666,0.8956,0.0,0.0,0.0,0.0,0.0,0.0,0.0,0.0,0.0,0.0,0.0,0.0,0.0,0.0,0.0,0.0,0.0,0.0,0.0,0.0,0.0,0.0,0.0,0.0,0.0,0.0,0.0,0.0,0.0,0.0,0.7502,0.7431,0.7282,0.7275,0.7329,0.7438,0.7333,0.7333,0.7441,0.7441,0.7516,0.7662,0.7709,0.7784,0.7879,0.7879,0.794,0.8038,0.8038,0.8038,0.8038,0.8038,0.8038,0.8038,0.8038,0.8038,0.8038,0.0,0.0,0.0,0.0,0.0,0.0,0.0,0.0,0.0,0.0,0.0,0.0,0.0,0.0,0.0,0.0,0.0,0.0,0.0,0.3719,0.3719,0.3719,0.3072,0.2683,0.269,0.1642,0.1074,0.1078,0.1322,0.1421,0.1473,0.3393,0.4748,0.569,0.6592,0.6979,0.7105,0.8407,0.9509,1.0283,1.0283,1.0283,1.0283,0.0,0.0,0.0,0.0,0.0,0.0,0.0,0.0,0.0,0.0,0.0,1.0548,0.9622,0.9758,1.0064,0.9361,0.0,0.0,0.0,0.0,0.0,0.0,0.0,0.0,0.0,0.0,0.0,0.0,0.0,0.0,0.0,0.0,0.0,0.0,0.0,0.0,0.0,0.0,0.0,0.0,0.0,0.0,0.0,0.0,0.0,0.0,0.737,0.7299,0.7146,0.7139,0.7183,0.7278,0.7187,0.7187,0.7278,0.7278,0.7329,0.7421,0.7543,0.7645,0.7729,0.7787,0.7896,0.8038,0.8038,0.8038,0.8035,0.7974,0.7987,0.8024,0.7906,0.7899,0.7946,0.0,0.0,0.0,0.0,0.0,0.0,0.0,0.0,0.0,0.0,0.0,0.0,0.0,0.0,0.0,0.0,0.0,0.0,0.0,0.0,0.5309,0.5309,0.3788,0.2944,0.2944,0.2944,0.2944,0.2944,0.3309,0.3524,0.3622,0.4661,0.4468,0.3373,0.5442,0.6341,0.6374,0.6799,0.8162,1.001,1.0122,1.0094,1.004,1.0235,0.0,0.0,0.0,0.0,0.0,0.0,0.0,0.0,1.207,1.1845,1.1434,1.0864,1.0762,1.0669,0.0,0.0,0.0,0.0,0.0,0.0,0.0,0.0,0.0,0.0,0.0,0.0,0.0,0.0,0.0,0.0,0.0,0.0,0.0,0.0,0.0,0.0,0.0,0.0,0.0,0.0,0.0,0.0,0.0,0.0,0.0,0.7336,0.7278,0.7126,0.7132,0.7139,0.7139,0.7139,0.7139,0.7139,0.7139,0.7139,0.7149,0.7431,0.7567,0.7587,0.7729,0.7872,0.7997,0.7997,0.7997,0.7984,0.7845,0.7875,0.7967,0.7699,0.7682,0.7794,0.0,0.0,0.0,0.0,0.0,0.0,0.0,0.0,0.0,0.0,0.0,0.0,0.0,0.0,0.0,0.0,0.0,0.0,0.0,0.0,0.5309,0.5309,0.4953,0.4724,0.4724,0.4724,0.4724,0.4724,0.3496,0.3155,0.3626,0.384,0.2825,0.0798,0.1291,0.1501,0.175,0.5418,0.7266,0.7805,0.8747,0.8543,0.7915,0.9628,1.0283,0.0,0.0,0.0,0.0,0.0,0.0,0.0,1.2549,1.225,1.1516,1.0364,1.0364,1.0517,0.0,0.0,0.0,0.0,0.0,0.0,0.0,0.0,0.0,0.0,0.0,0.0,0.0,0.0,0.0,0.0,0.0,0.0,0.0,0.0,0.0,0.0,0.0,0.0,0.0,0.0,0.0,0.0,0.0,0.0,0.6851,0.7065,0.7122,0.6976,0.7082,0.7139,0.7139,0.7139,0.7139,0.0,0.7139,0.7139,0.7143,0.721,0.7305,0.7431,0.758,0.7662,0.7695,0.7695,0.7695,0.7692,0.7658,0.7665,0.7685,0.7624,0.7624,0.7756,0.0,0.0,0.0,0.0,0.0,0.0,0.0,0.0,0.0,0.0,0.0,0.0,0.0,0.0,0.0,0.0,0.0,0.0,0.0,0.0,0.5309,0.5309,0.3676,0.3568,0.5275,0.5309,0.5309,0.5309,0.4403,0.3669,0.3193,0.3446,0.2913,0.1665,0.0512,0.1242,0.3499,0.5943,0.6979,0.7085,0.8323,0.843,0.7903,0.8503,0.9381,1.0283,1.0283,0.0,0.0,0.0,0.0,0.0,0.0,0.0,1.2197,1.1493,1.1032,1.0669,0.0,0.0,0.0,0.0,0.0,0.0,0.0,0.0,0.0,0.0,0.0,0.0,0.0,0.0,0.0,0.0,0.0,0.0,0.0,0.0,0.0,0.0,0.0,0.0,0.0,0.0,0.0,0.0,0.0,0.6783,0.6705,0.6848,0.6895,0.682,0.6892,0.6929,0.6929,0.6929,0.6929,0.6929,0.6929,0.6929,0.6936,0.7075,0.7224,0.7377,0.7455,0.7533,0.76,0.76,0.76,0.7594,0.7519,0.7536,0.7584,0.7448,0.7448,0.7419,0.0,0.0,0.0,0.0,0.0,0.0,0.0,0.0,0.0,0.0,0.0,0.0,0.0,0.0,0.0,0.0,0.0,0.0,0.0,0.0,0.0,0.5309,0.2486,0.2298,0.5248,0.5561,0.571,0.571,0.6025,0.0,0.0,0.0,0.4188,0.4085,0.2102,0.3353,0.6979,0.6979,0.6979,0.7065,0.8103,0.8624,0.8697,0.7709,0.833,0.9823,1.0495,1.166,1.2881,1.2881,0.0,0.0,0.0,0.0,1.2881,1.2774,1.1891,1.0965,0.0,0.0,0.0,0.0,0.0,0.0,0.0,0.0,0.0,0.0,0.0,0.0,0.0,0.0,0.0,0.0,0.0,0.0,0.0,0.0,0.0,0.0,0.0,0.0,0.0,0.0,0.0,0.0,0.0,0.6651,0.6627,0.6671,0.6688,0.6661,0.6685,0.6702,0.6702,0.6702,0.6702,0.6702,0.6702,0.6702,0.6709,0.6953,0.7132,0.7255,0.7255,0.7326,0.7444,0.7444,0.7461,0.7472,0.7343,0.7387,0.7492,0.7165,0.7068,0.6621,0.0,0.0,0.0,0.0,0.0,0.0,0.0,0.0,0.0,0.0,0.0,0.0,0.0,0.0,0.0,0.0,0.0,0.0,0.2712,0.0,0.0,0.5309,0.4859,0.4825,0.5302,0.6656,0.7392,0.7392,0.0,0.0,0.0,0.0,0.0,0.6525,0.0,0.6394,0.6979,0.6979,0.6979,0.6992,0.7194,0.7882,0.8791,0.8631,0.8105,0.7906,1.1325,1.2686,1.2881,1.2881,1.2881,0.0,0.0,0.0,1.2774,1.2129,1.1814,0.0,0.0,0.0,0.0,0.0,0.0,0.0,0.0,0.0,0.0,0.0,0.0,0.0,0.0,0.0,0.0,0.0,0.0,0.0,0.0,0.0,0.0,0.0,0.0,0.0,0.0,0.0,0.0,0.0,0.6356,0.6451,0.6325,0.6563,0.6637,0.6508,0.663,0.6702,0.6702,0.6702,0.6702,0.6702,0.6702,0.6702,0.6702,0.6742,0.677,0.679,0.679,0.68,0.682,0.682,0.6898,0.7017,0.6997,0.7075,0.7197,0.716,0.626,0.5032,0.0,0.0,0.0,0.0,0.0,0.0,0.0,0.0,0.0,0.0,0.0,0.0,0.0,0.0,0.0,0.2646,0.3593,0.4145,0.4145,0.489,0.5309,0.5309,0.5309,0.6168,0.8051,0.7828,0.8162,0.916,0.0,0.0,0.0,0.8852,0.8203,0.0,0.0,0.0,0.0,0.8023,0.8165,0.8505,0.8928,0.9189,0.9235,0.8926,0.8477,0.8421,1.1704,1.2881,1.2881,1.2881,1.2881,1.2881,1.2881,0.0,0.0,0.0,0.0,0.0,0.0,0.0,0.0,0.0,0.0,0.0,0.0,0.0,0.0,0.0,0.0,0.0,0.0,0.0,0.0,0.0,0.0,0.0,0.0,0.0,0.0,0.0,0.0,0.0,0.0,0.0,0.0,0.0,0.602,0.6071,0.6006,0.6125,0.6166,0.6098,0.6244,0.6325,0.6325,0.6325,0.6325,0.6325,0.6325,0.6369,0.6454,0.6454,0.6542,0.6702,0.6702,0.6702,0.6702,0.6702,0.6746,0.6814,0.6814,0.6946,0.7111,0.7111,0.6699,0.6011,0.0,0.0,0.0,0.0,0.0,0.0,0.0,0.0,0.0,0.0,0.0,0.0,0.0,0.0,0.0,0.0,0.4564,0.5309,0.5309,0.5309,0.5309,0.5309,0.5564,0.7162,1.0215,0.9033,0.9004,0.0,0.0,0.0,1.0283,1.0283,0.9269,0.0,0.7475,0.0,0.0,0.0,0.0,0.0,1.1079,1.0953,1.0383,1.0,0.9829,1.0131,1.2166,1.2881,1.2881,1.2881,1.2881,1.2881,1.2881,1.319,0.0,0.0,0.0,0.0,0.0,0.0,0.0,0.0,0.0,0.0,0.0,0.0,0.0,0.0,0.0,0.0,0.0,0.0,0.0,0.0,0.0,0.0,0.0,0.0,0.0,0.0,0.0,0.0,0.0,0.0,0.0,0.0,0.5779,0.58,0.58,0.58,0.58,0.58,0.5911,0.5973,0.5973,0.5973,0.5973,0.5973,0.5973,0.6034,0.6146,0.6146,0.6264,0.6478,0.6556,0.6586,0.6586,0.6586,0.662,0.675,0.675,0.6529,0.6254,0.6478,0.6797,0.7101,0.0,0.0,0.0,0.0,0.0,0.0,0.0,0.0,0.0,0.0,0.0,0.0,0.5334,0.5151,0.5151,0.5151,0.5246,0.5309,0.5309,0.5309,0.5309,0.5309,0.6339,0.0,1.0244,1.0195,1.0195,0.0,0.0,0.0,1.0283,1.0283,0.9752,0.8717,0.8717,0.8751,0.8857,0.0,0.0,0.0,0.0,1.2764,0.0,0.0,1.2676,0.0,0.0,0.0,1.2881,1.2881,1.2881,1.2881,1.2881,1.2929,1.2929,0.0,0.0,0.0,0.0,0.0,0.0,0.0,0.0,0.0,0.0,0.0,0.0,0.0,0.0,0.0,0.0,0.0,0.0,0.0,0.0,0.0,0.0,0.0,0.0,0.0,0.0,0.0,0.0,0.0,0.0,0.0,0.5725,0.58,0.58,0.58,0.58,0.58,0.581,0.5813,0.5813,0.5813,0.5813,0.5813,0.5813,0.5817,0.5827,0.5827,0.5833,0.5864,0.6156,0.6285,0.6285,0.6285,0.6455,0.6599,0.6599,0.544,0.3867,0.4633,0.5815,0.7111,0.0,0.0,0.0,0.0,0.0,0.0,0.0,0.0,0.0,0.0,0.0,0.0,0.0,0.6837,0.6837,0.6837,0.5897,0.5309,0.5309,0.626,0.6837,0.6837,0.8286,0.9509,1.0283,1.0283,0.0,0.0,0.0,1.0283,1.0283,1.0283,0.9751,0.8804,0.8804,0.8804,0.8962,1.1191,0.0,0.0,0.0,0.0,0.0,0.0,0.0,0.0,0.0,0.0,0.0,1.2881,1.2881,1.2881,1.2881,1.3152,1.3409,0.0,0.0,0.0,0.0,0.0,0.0,0.0,0.0,0.0,0.0,0.0,0.0,0.0,0.0,0.0,0.0,0.0,0.0,0.0,0.0,0.0,0.0,0.0,0.0,0.0,0.0,0.0,0.0,0.0,0.0,0.0,0.0,0.5874,0.5583,0.5426,0.5369,0.5369,0.5467,0.5566,0.5664,0.5664,0.5664,0.5664,0.5664,0.5715,0.58,0.58,0.58,0.5806,0.5918,0.6023,0.6112,0.6112,0.6213,0.628,0.4919,0.3067,0.1289,0.1643,0.3989,0.7087,0.0,0.0,0.0,0.0,0.0,0.0,0.0,0.0,0.0,0.8382,0.0,0.0,0.0,0.0,0.748,0.6936,0.6413,0.6106,0.6106,0.7116,0.7695,0.7695,0.9375,1.0283,1.0283,1.0283,0.0,0.0,0.0,0.0,0.0,1.0283,1.0283,1.0131,0.9218,0.9316,0.0,0.0,0.0,1.1584,0.0,0.0,1.2881,0.0,0.0,0.0,0.0,0.0,0.0,0.0,0.0,1.2881,0.0,0.0,0.0,0.0,0.0,0.0,0.0,0.0,0.0,0.0,0.0,0.0,0.0,0.0,0.0,0.0,0.0,0.0,0.0,0.0,0.0,0.0,0.0,0.0,0.0,0.0,0.0,0.0,0.0,0.0,0.0,0.0,0.0,0.0,0.0,0.0,0.5726,0.5563,0.5403,0.5206,0.5308,0.541,0.5511,0.5511,0.5511,0.5511,0.5511,0.5562,0.5654,0.5654,0.5654,0.5657,0.5708,0.5817,0.5952,0.5952,0.603,0.5904,0.3905,0.1817,-0.0,-0.0,0.2014,0.492,0.0,0.0,0.0,0.0,0.0,0.0,0.0,0.0,0.8269,0.9712,0.0,0.0,0.0,0.0,0.0,0.5498,0.6807,0.7725,0.7763,0.7773,0.7773,0.7773,0.9395,1.0283,1.0283,1.0283,1.0283,0.0,0.0,0.0,0.0,0.0,1.126,1.2774,1.0131,1.0387,1.2832,0.0,1.1642,1.2881,0.0,1.2881,1.2881,0.0,0.0,0.0,1.2881,1.2881,0.0,0.0,0.0,0.0,0.0,0.0,0.0,0.0,0.0,0.0,0.0,0.0,0.0,0.0,0.0,0.0,0.0,0.0,0.0,0.0,0.0,0.0,0.0,0.0,0.0,0.0,0.0,0.0,0.0,0.0,0.0,0.0,0.0,0.0,0.0,0.0,0.0,0.0,0.7111,0.6843,0.6233,0.6178,0.5942,0.5408,0.5415,0.5418,0.5428,0.5422,0.5422,0.5428,0.5422,0.5425,0.5428,0.5428,0.5428,0.5435,0.5518,0.5661,0.5789,0.5793,0.5817,0.563,0.3855,0.1846,-0.0,-0.0,-0.0,0.0652,0.0,0.0,0.0,0.0,0.0,0.0,0.8241,0.8871,0.9437,0.0,0.0,0.0,1.1494,1.0438,0.89,0.7185,0.7451,0.8221,0.9492,0.957,0.957,0.957,1.0029,1.0283,1.0283,1.0283,1.0283,0.0,0.0,0.0,1.2168,1.2168,0.0,0.0,1.2116,1.2166,1.2881,1.2461,0.0,0.0,1.2881,1.2881,0.0,0.0,0.0,0.0,0.0,1.2461,0.0,0.0,1.1493,1.1082,0.0,0.0,0.0,0.0,0.0,0.0,0.896,0.0,0.0,0.0,0.0,0.0,0.0,0.0,0.0,0.0,0.0,0.0,0.0,0.0,0.0,0.0,0.0,0.0,0.0,0.0,0.0,0.0,0.0,0.0,0.0,0.0,0.0,0.0,0.7681,0.7206,0.6115,0.5464,0.5118,0.5036,0.504,0.5145,0.5425,0.525,0.525,0.5425,0.5247,0.5254,0.5428,0.5428,0.5428,0.5428,0.5473,0.545,0.5504,0.5686,0.5739,0.5706,0.5044,0.2814,-0.0,-0.0,-0.0,0.0159,0.0,0.0,0.0,0.0,0.0,0.0,0.7695,0.8953,0.9905,0.0,0.0,0.0,1.296,1.1468,0.9883,0.8887,0.8799,0.9219,1.0215,1.0283,1.0283,1.0283,1.0283,1.0283,1.0283,1.0283,1.0697,1.1505,1.2638,1.3099,1.2881,1.2881,0.0,0.0,0.0,0.0,0.0,0.0,0.0,0.0,1.12,0.0,0.0,1.1999,1.1999,0.0,0.0,0.0,1.1225,1.1225,1.0872,0.0,0.0,0.0,0.0,0.0,0.0,0.0,0.0,0.0,0.0,0.0,0.0,0.0,0.9309,0.9361,0.9256,0.0,0.0,0.0,0.0,0.0,0.0,0.0,0.0,0.0,0.0,0.0,0.0,0.0,0.0,0.0,0.0,0.8958,0.8834,0.8324,0.799,0.7258,0.5982,0.5207,0.4826,0.4914,0.4918,0.5003,0.5176,0.5145,0.5176,0.5264,0.524,0.524,0.5267,0.5332,0.5325,0.527,0.5338,0.5372,0.5386,0.5555,0.5583,0.5601,0.546,0.3179,-0.0,-0.0,-0.0,-0.0,0.0,0.0,0.0,0.7451,0.7695,0.7695,0.7695,0.8968,1.0015,0.0,1.027,1.1023,1.2985,1.1653,1.0544,1.0322,1.0505,1.0544,1.0322,1.0283,1.0283,1.0283,1.0283,1.0283,1.0283,1.0505,1.1603,1.3561,1.3323,1.3217,1.3296,1.3296,1.3152,1.2881,0.0,0.0,0.0,0.0,0.0,0.9271,0.9271,0.9769,0.0,0.0,1.0712,0.0,1.1275,1.1124,1.0712,1.061,1.0509,0.0,0.0,0.0,0.0,0.0,0.9361,0.0,0.0,0.0,0.0,0.0,0.0,0.0,0.8533,0.8699,0.8699,0.0,0.0,0.0,0.0,0.0,0.0,0.0,0.0,0.0,0.0,0.0,0.0,0.0,0.0,0.0,0.8804,0.8804,0.8752,0.8699,0.7937,0.6942,0.5844,0.5203,0.4877,0.4894,0.4894,0.4901,0.4918,0.5026,0.5091,0.5108,0.523,0.5223,0.5111,0.525,0.524,0.5118,0.5284,0.5425,0.5428,0.5396,0.5413,0.5346,0.495,0.2856,-0.0,-0.0,-0.0,-0.0,0.7695,0.0,0.0,0.7637,0.7695,0.7695,0.7695,0.9154,1.0794,1.2337,1.2547,1.2722,1.3148,1.2861,1.2018,1.0438,1.1715,1.1982,1.039,1.0283,1.0283,1.0283,1.0283,1.0283,1.0283,1.1836,1.3704,1.5881,1.4062,1.4087,1.5788,1.5788,1.4755,0.0,0.0,0.0,0.0,0.0,0.0,1.2116,1.2116,0.0,0.9211,0.9211,1.0072,1.1325,1.1023,1.0669,1.0218,0.0,0.8778,0.8501,0.0,0.0,0.0,0.0,0.0,0.0,0.0,0.0,0.0,0.0,0.0,0.0,0.7723,0.7937,0.8103,0.0,0.0,0.0,0.0,0.0,0.0,0.0,0.0,0.0,0.0,0.0,0.0,0.0,0.0,0.0,0.8804,0.8804,0.854,0.7943,0.6686,0.5832,0.5593,0.4919,0.4609,0.4731,0.4735,0.4796,0.4918,0.4823,0.484,0.4958,0.4867,0.487,0.4962,0.5068,0.5133,0.5109,0.5336,0.542,0.538,0.5432,0.5413,0.5084,0.2208,0.0631,-0.0,-0.0,-0.0,-0.0,0.7695,0.0,0.0,0.0,0.7695,0.7987,0.8867,0.9727,1.0659,1.1616,1.2615,1.3198,1.3198,1.3198,1.2791,1.1836,1.265,1.2791,1.1799,1.1763,1.1319,1.0361,1.1113,1.1626,1.1626,1.1687,1.2726,1.4698,1.4812,1.5402,1.6522,1.6522,0.0,0.0,0.0,0.0,0.0,0.0,1.2881,1.2832,1.1909,0.0,0.9465,0.8956,0.9368,1.0123,0.9865,0.9658,0.9413,0.8956,0.854,0.0,0.0,0.9309,0.9309,0.0,0.9309,0.8883,0.0,0.0,0.0,0.576,0.0,0.0,0.0,0.7723,0.783,0.8156,0.0,0.0,0.0,0.0,0.0,0.0,0.0,0.0,0.0,0.0,0.0,0.0,0.0,0.0,0.8804,0.848,0.7771,0.6686,0.5923,0.5378,0.5003,0.468,0.4553,0.4575,0.4575,0.4613,0.4691,0.4691,0.4728,0.4806,0.4872,0.4876,0.4879,0.4968,0.4527,0.3735,0.4872,0.5382,0.5406,0.5418,0.4342,0.2496,0.0684,-0.0,-0.0,-0.0,-0.0,-0.0,0.7637,0.0,0.0,0.0,0.7968,0.8682,1.0078,1.0283,1.0283,1.0283,1.1689,1.265,1.265,1.265,1.265,1.265,1.265,1.265,1.265,1.265,1.1945,1.0361,1.1953,1.2881,1.2881,1.1504,1.1475,1.2881,1.4835,1.5788,1.5832,1.6293,0.0,0.0,0.0,0.0,0.0,0.0,0.0,1.2774,0.0,1.0261,0.9865,0.9316,0.8798,0.8374,0.8262,0.8203,0.8203,0.8315,0.0,0.8427,0.8533,0.8699,0.0,0.0,0.0,0.0,0.0,0.0,0.0,0.0,0.0,0.5706,0.0,0.0,0.0,0.767,0.0,0.0,0.0,0.0,0.0,0.0,0.0,0.0,0.0,0.0,0.0,0.0,0.0,0.0,0.8374,0.7723,0.6794,0.5597,0.5378,0.5058,0.4515,0.4519,0.4519,0.4519,0.4519,0.4519,0.4519,0.4585,0.4646,0.465,0.4904,0.4904,0.4725,0.4499,0.3584,0.2269,0.3714,0.4725,0.5364,0.4637,0.2649,-0.0,-0.0,-0.0,-0.0,-0.0,-0.0,-0.0,0.7421,0.6535,0.0,0.0,0.8984,1.0059,1.0254,1.0283,1.0283,1.0283,1.0505,1.0611,0.0,0.0,0.0,0.0,0.0,0.0,1.0611,0.0,1.0544,1.0322,1.1953,1.2881,1.2881,1.2686,1.2686,1.2881,1.3152,1.3296,1.3344,1.5522,0.0,0.0,0.596,0.0,0.0,0.0,1.2881,0.0,1.1981,1.0559,0.0,0.9762,0.8698,0.6804,0.6357,0.6081,0.5977,0.0,0.6858,0.6966,0.0,0.8262,0.8804,0.0,0.0,0.0,0.0,0.0,0.0,0.0,0.5054,0.0,0.0,0.0,0.6912,0.7563,0.0,0.0,0.0,0.0,0.0,0.0,0.0,0.0,0.0,0.0,0.0,0.0,0.0,0.0,0.0,0.6199,0.5706,0.5487,0.4948,0.457,0.4519,0.4519,0.4519,0.4519,0.4519,0.4519,0.4519,0.4536,0.4543,0.4543,0.4563,0.4563,0.449,0.3154,0.2422,0.214,0.1081,0.2417,0.5165,0.1908,0.0403,-0.0,-0.0,-0.0,-0.0,-0.0,-0.0,-0.0,0.5967,0.6297,0.0,0.0,0.8943,0.9873,0.8569,0.898,0.9164,0.847,0.8996,0.0,0.0,0.0,0.0,0.0,0.0,0.9701,0.0,0.0,1.1787,1.1787,0.7686,0.7014,1.0452,1.0541,1.0541,1.0541,1.0541,1.0541,1.0533,1.2338,0.0,0.0,0.9538,0.0,0.5732,0.0,0.0,0.0,0.0,0.0,0.0,0.9969,0.837,0.6199,0.6253,0.6036,0.5814,0.0,0.6858,0.0,0.0,0.0,0.0,0.0,0.0,0.0,0.0,0.0,0.0,0.0,0.0,0.0,0.6907,0.0,0.7343,0.0,0.0,0.0,0.0,0.0,0.0,0.0,0.3484,0.0,0.0,0.0,0.0,0.0,0.0,0.0,0.0,0.0,0.0,0.0,0.468,0.4519,0.4519,0.4519,0.4519,0.4519,0.4519,0.4519,0.4519,0.4519,0.4519,0.4519,0.4525,0.4473,0.4473,0.3805,0.2569,0.0895,0.0294,0.0849,0.2172,0.0647,-0.0,-0.0,-0.0,-0.0,-0.0,-0.0,-0.0,-0.0,0.5405,0.0,0.0,0.0,0.0,0.0,0.0,0.0,0.0,0.0,0.0,0.0,0.7602,0.8283,0.0,0.0,0.0,0.9126,0.0,0.0,1.176,1.176,0.5759,0.0,0.0,0.0,0.8804,0.8804,0.8804,0.8804,0.8804,0.9814,0.0,0.0,0.0,0.8694,0.3945,0.0,0.0,0.9976,1.0687,1.0653,1.0123,0.9117,0.7517,0.5814,0.5982,0.5823,0.5542,0.5932,0.6529,0.0,0.7122,0.0,0.0,0.0,0.0,0.0,0.7413,0.0,0.0,0.0,0.0,0.0,0.0,0.0,0.0,0.0,0.0,0.0,0.0,0.0,0.0,0.0,0.0,0.2154,0.0,0.0,0.0,0.0,0.0,0.0,0.0,0.0,0.0,0.4519,0.4519,0.4519,0.4519,0.4519,0.4519,0.4519,0.4519,0.4519,0.4519,0.4519,0.4519,0.4519,0.4525,0.4473,0.4473,0.4487,0.3302,0.123,0.0875,0.0482,-0.0,-0.0,-0.0,-0.0,-0.0,-0.0,-0.0,-0.0,-0.0,-0.0,0.65,0.5201,0.0,0.0,0.0,0.0,0.0,0.0,0.0,0.0,0.0,0.0,0.0,0.0,0.0,0.0,0.0,0.8791,0.8856,0.0,0.891,0.891,0.8676,0.8617,0.0,0.0,0.0,0.8804,0.8804,0.8804,0.0,0.0,0.891,0.0,0.0,1.0261,1.249,1.2764,1.2832,1.252,0.9893,0.881,0.8579,0.0,0.581,0.5433,0.4787,0.0,0.0,0.457,0.5003,0.0,0.0,0.0,0.0,0.0,0.0,0.0,0.0,0.0,0.0,0.6638,0.0,0.0,0.0,0.0,0.7723,0.0,0.0,0.0,0.0,0.0,0.1768,0.0334,0.0056,0.0,0.0,0.0,0.0,0.0,0.0,0.0,0.0,0.0,0.4515,0.4519,0.4519,0.4519,0.4519,0.4519,0.4519,0.4519,0.4519,0.4519,0.4519,0.4519,0.4519,0.4519,0.4519,0.4519,0.4519,0.4473,0.4421,0.4268,0.3109,0.1597,-0.0,-0.0,-0.0,-0.0,-0.0,-0.0,-0.0,-0.0,-0.0,-0.0,0.0,0.0,0.0,0.0,0.0,0.0,0.0,0.855,0.0,0.0,0.0,0.0,0.0,0.0,0.5928,0.0,0.0,0.5759,0.5377,0.5742,0.0,0.0,0.0,0.8804,0.0,0.0,0.0,0.0,0.0,0.0,0.0,0.0,0.0,0.0,0.0,0.9316,0.0,0.0,0.0,0.0,0.0,0.4456,0.4053,0.0,0.0,0.6096,0.493,0.448,0.0,0.4473,0.4956,0.5597,0.6091,0.6421,0.6696,0.7182,0.6683,0.0,0.0,0.0,0.552,0.6386,0.0,0.0,0.0,0.0,0.0,0.0,0.0,0.0,0.0,0.0,0.3232,0.1712,0.1445,0.2006,0.0,0.0,0.577,0.0,0.0,0.0,0.0,0.0,0.0,0.4522,0.4473,0.4525,0.4519,0.4519,0.4519,0.4519,0.4519,0.4519,0.4519,0.4519,0.4519,0.4519,0.4519,0.4519,0.4519,0.4522,0.4473,0.4497,0.4198,0.3883,0.3409,0.0982,-0.0,-0.0,-0.0,-0.0,-0.0,-0.0,-0.0,-0.0,0.3581,0.0,0.0,0.0,0.0,0.0,0.0,0.0,0.0,0.0,0.7883,0.0,0.8699,0.0,0.4519,0.0,0.4519,0.3868,0.2399,0.2709,0.0,0.7122,0.7283,0.0,0.0,0.0,0.0,0.0,0.0,0.8804,0.0,0.0,0.0,0.0,0.0,0.0,0.0,0.0,0.7296,0.0,0.0,0.0329,0.0,0.0,0.3555,0.4688,0.0,0.3808,0.4024,0.4366,0.4798,0.5218,0.5714,0.5828,0.5932,0.6421,0.5922,0.5302,0.5736,0.5436,0.0,0.6,0.6092,0.0,0.7413,0.0,0.0,0.0,0.0,0.0,0.0,0.0,0.5503,0.3773,0.3259,0.3508,0.0,0.5504,0.5918,0.0,0.0,0.0,0.0,0.0,0.3773,0.3959,0.4307,0.4473,0.0,0.0,0.4519,0.4519,0.4519,0.4519,0.4519,0.4519,0.4519,0.4519,0.4519,0.4519,0.4519,0.4519,0.4522,0.449,0.4736,0.4999,0.5098,0.2881,0.1138,-0.0,-0.0,-0.0,-0.0,-0.0,-0.0,-0.0,0.0,0.0,0.0,0.0,0.4188,0.0,0.0,0.0,0.8586,0.0,0.6199,0.555,0.8262,0.6145,0.4519,0.4519,0.4349,0.0,0.0168,-0.0,0.0,0.0,0.4294,0.4349,0.4519,0.0,0.0,0.0,0.0,0.0,0.0,0.0,0.0,0.0,0.5714,0.0,0.4522,0.4487,0.4438,0.3758,-0.2125,-0.336,-0.1833,-0.3761,-0.212,0.1277,0.1899,0.2458,0.3118,0.4138,0.4473,0.4519,0.4519,0.4515,0.4519,0.4519,0.4622,0.4646,0.456,0.5125,0.5714,0.5478,0.6119,0.0,0.0,0.0,0.8288,0.0,0.0,0.0,0.0,0.0,0.0,0.64,0.5275,0.4944,0.574,0.0,0.0,0.0,0.0,0.0,0.0,0.2237,0.2449,0.3007,0.3965,0.0,0.0,0.0,0.4519,0.4519,0.4519,0.4519,0.4519,0.4519,0.4519,0.4519,0.4519,0.4519,0.4519,0.4519,0.4522,0.4546,0.4789,0.4992,0.5095,0.5325,0.3349,0.0268,0.0067,-0.0,-0.0,-0.0,-0.0,-0.0,0.4288,0.4288,0.496,0.0,0.5845,0.4519,0.0,0.0,0.0,0.0,0.4952,0.4791,0.555,0.4952,0.4519,0.4519,0.2454,0.0,0.0,0.0,0.0,0.1118,0.1174,0.223,0.446,0.5222,0.0,0.8804,0.0,0.0,0.8804,0.0,0.0,0.0,0.0,0.0,0.4511,0.4501,0.3195,0.084,-0.2974,-0.4166,0.0,0.0,-0.3872,-0.2631,-0.028,0.1341,0.2621,0.4033,0.448,0.457,0.5109,0.4893,0.457,0.5109,0.4927,0.4567,0.4529,0.4657,0.4842,0.4743,0.5309,0.6082,0.0,0.0,0.0,0.0,0.0,0.0,0.0,0.0,0.0,0.0,0.7623,0.0,0.0,0.0,0.0,0.6067,0.0,0.0,0.0,0.2332,0.2756,0.4015,0.4363,0.0,0.0,0.0,0.0,0.4519,0.4519,0.4519,0.4519,0.4519,0.4519,0.4519,0.4519,0.4519,0.4519,0.4519,0.458,0.4643,0.4833,0.4982,0.5098,0.5294,0.484,0.3761,0.1072,-0.0,-0.0,-0.0,-0.0,-0.0,0.4519,0.0,0.0,0.6632,0.0,0.0,0.4519,0.0,0.0,0.4519,0.4519,0.0,0.4519,0.3345,0.2508,0.2508,0.1006,0.0,-0.0,0.0,0.0,-0.0,-0.0,0.0783,0.251,0.3846,0.0,0.6902,0.0,0.0,0.6902,0.0,0.0,0.0,0.0,0.3268,0.0,0.4511,0.2747,-0.0168,-0.1847,0.0,0.0,-0.4219,-0.3705,-0.2125,0.0895,0.2069,0.2456,0.3981,0.448,0.457,0.4948,0.4787,0.457,0.4948,0.4787,0.4519,0.4519,0.4519,0.4519,0.4519,0.506,0.584,0.6708,0.7599,0.8651,0.0,1.0524,1.0836,0.0,0.0,0.0,0.0,0.0,0.0,0.0,0.0,0.0,0.0,0.7132,0.0,0.0,0.3847,0.3732,0.5018,0.0,0.0,0.0,0.0,0.0,0.4519,0.4522,0.4525,0.4525,0.4525,0.4525,0.4525,0.4519,0.4519,0.4519,0.4519,0.4548,0.4701,0.4853,0.4999,0.5142,0.5308,0.5386,0.5052,0.141,-0.0,-0.0,-0.0,-0.0,-0.0,0.0,0.0,0.0,0.0,0.0,0.0,0.0,0.4519,0.0,0.4519,0.0,0.3901,0.3901,0.1563,-0.0,-0.0,0.0,-0.0,-0.0,-0.0,-0.0,-0.0,-0.0,-0.0,-0.0,0.2565,0.0,0.0,0.0,0.0,0.0,0.0,0.0,0.0,0.0,0.0,0.0,0.4287,0.2689,0.0279,0.0279,-0.0502,-0.1783,-0.3137,-0.2011,0.0668,0.3479,0.3646,0.2679,0.4036,0.448,0.4519,0.4519,0.4519,0.4519,0.4519,0.4574,0.4625,0.4625,0.468,0.4791,0.4791,0.5394,0.6205,0.6668,0.7739,0.88,0.9578,1.0036,1.0417,0.0,0.0,0.0,0.0,0.0,0.0,0.0,0.0,0.0,0.0,0.0,0.0,0.0,0.0,0.0,0.0,0.0,0.0,0.0,0.0,0.0,0.4519,0.4473,0.448,0.448,0.4307,0.4307,0.448,0.4525,0.4522,0.4522,0.4487,0.4579,0.4673,0.4827,0.4961,0.5148,0.5315,0.5386,0.5055,0.1413,-0.0,-0.0,-0.0,-0.0,-0.0,0.0,0.0,0.0,0.0,0.0,0.4519,0.4519,0.4519,0.4519,0.4519,0.2343,0.0783,0.0783,0.0336,-0.0,-0.0,-0.0,0.0,0.0,0.0,0.0,-0.0,-0.0,-0.0,-0.0,0.0504,0.0783,0.0,0.0,0.0,0.4519,0.0,0.0,0.0,0.0,0.0,0.4402,0.3137,0.0,0.184,0.184,0.1672,0.1393,0.1113,0.1337,0.2063,0.3869,0.432,0.4141,0.4425,0.4473,0.4519,0.4473,0.4525,0.4519,0.4473,0.4904,0.5324,0.5324,0.5764,0.6209,0.6209,0.6776,0.7449,0.7833,0.8738,0.9464,0.9342,0.9994,1.0524,1.0075,0.0,0.0,0.0,0.0,0.0,0.0,0.0,0.0,0.0,0.0,0.0,0.0,0.0,0.0,0.0,0.0,0.0,0.0,0.0,0.0,0.0,0.4473,0.0,0.0,0.0,0.3241,0.4494,0.449,0.449,0.4494,0.4505,0.4519,0.4543,0.4813,0.5081,0.5368,0.5397,0.5399,0.5068,0.1414,-0.0,-0.0,-0.0,-0.0,-0.0,0.0,0.0,0.0,0.0,0.0,0.0,0.0,0.4497,0.0,0.2345,0.0895,-0.0,-0.0,-0.0,-0.0,-0.0,-0.0,-0.0,-0.0,-0.0,-0.0,-0.0,-0.0,0.0,-0.0,-0.0,-0.0,-0.0,0.0,0.0,0.4519,0.4519,0.0,0.0,0.0,0.3869,0.0,0.0,0.0,0.4498,0.4498,0.4498,0.4498,0.4498,0.4336,0.4233,0.4974,0.4923,0.4525,0.4477,0.4473,0.4519,0.4525,0.4522,0.4519,0.4525,0.4952,0.5487,0.5487,0.6036,0.6588,0.6588,0.7128,0.768,0.7538,0.8545,0.9236,0.8633,0.9269,0.9688,0.8851,0.8967,0.0,0.0,0.0,0.0,0.0,0.0,0.0,0.0,0.0,0.0,0.0,0.0,0.0,0.0,0.0,0.0,0.0,0.0,0.4519,0.0,0.0,0.0,0.3294,0.0,0.2965,0.2179,0.2963,0.3302,0.3304,0.33,0.329,0.3331,0.3434,0.367,0.406,0.4993,0.4265,0.2424,0.0674,-0.0,-0.0,-0.0,-0.0,-0.0,0.0,0.3569,0.0,0.0,0.4525,0.0,0.3623,0.3554,0.2701,0.0336,-0.0,-0.0,-0.0,-0.0,-0.0,-0.0,-0.0,-0.0,-0.0,-0.0,-0.0,-0.0,-0.0,-0.0,-0.0,-0.0,-0.0,0.0,0.0,0.0,0.4519,0.5117,0.0,0.0,0.0,0.0,0.0,0.0,0.7695,0.6386,0.6554,0.6608,0.6608,0.6608,0.6282,0.5791,0.5791,0.5238,0.4522,0.4477,0.4581,0.4736,0.4794,0.4849,0.4956,0.5069,0.5496,0.5973,0.5973,0.6524,0.702,0.6858,0.7289,0.7566,0.7028,0.7977,0.8695,0.801,0.854,0.8844,0.8075,0.7693,0.0,0.0,0.0,0.0,0.0,0.0,0.0,0.0,0.0,0.0,0.0,0.0,0.0,0.0,0.0,0.0,0.0,0.0,0.0,0.0,0.0,0.3919,0.2683,0.0,0.235,-0.0,0.1173,0.1737,0.175,0.1751,0.1741,0.1724,0.1714,0.1863,0.2247,0.366,0.2551,-0.0,-0.0,-0.0,-0.0,-0.0,-0.0,-0.0,0.0,0.0,0.0,0.0,0.0,0.0,0.0857,0.0449,0.0336,0.0056,-0.0,-0.0,-0.0,-0.0,-0.0,-0.0,-0.0,-0.0,-0.0,-0.0,-0.0,-0.0,-0.0,-0.0,-0.0,-0.0,-0.0,0.0,0.0,0.4504,0.0,0.7176,0.0,0.0,0.0,0.0,0.0,0.7317,0.681,0.5651,0.6312,0.6588,0.6588,0.6588,0.615,0.5546,0.5546,0.5066,0.4477,0.448,0.4904,0.5437,0.5681,0.6059,0.6485,0.7009,0.7317,0.7503,0.7503,0.8043,0.8427,0.7777,0.767,0.7566,0.7028,0.7496,0.7971,0.7766,0.8336,0.8828,0.8687,0.7601,0.6683,0.0,0.0,0.0,0.0,0.0,0.0,0.0,0.0,0.0,0.0,0.6987,0.0,0.0,0.0,0.0,0.0,0.0,0.0,0.4494,0.4504,0.4452,0.4281,0.1737,0.028,-0.0,0.0112,0.0228,0.0235,0.0182,0.0185,0.0185,0.0191,0.0194,0.0258,0.0439,0.0321,-0.0,-0.0,-0.0,-0.0,-0.0,-0.0,-0.0,0.0,0.0,0.0,0.0,0.0,0.0,0.0,-0.0,-0.0,-0.0,-0.0,-0.0,-0.0,-0.0,-0.0,-0.0,-0.0,-0.0,-0.0,-0.0,-0.0,-0.0,-0.0,-0.0,-0.0,-0.0,-0.0,0.0,0.0,0.0,0.0,0.0,0.0,0.0,0.0,0.634,0.5391,0.6145,0.6632,0.6848,0.7122,0.7509,0.7883,0.745,0.6977,0.6554,0.595,0.5191,0.4376,0.3408,0.3904,0.5022,0.5661,0.5914,0.5928,0.5727,0.6322,0.6966,0.6524,0.6902,0.7515,0.7538,0.7543,0.7394,0.6857,0.5892,0.4741,0.3509,0.4098,0.4718,0.4287,0.3675,0.313,0.2713,0.0,0.0,0.0,0.0,0.0,0.0,0.0,0.0,0.0,0.0,0.0,0.0,0.0,0.0,0.0,0.0,0.0,0.313,0.0,0.3591,0.4514,0.3317,0.1794,-0.0,-0.0,-0.0,-0.0,-0.0,-0.097,-0.2718,-0.2701,-0.2309,-0.1606,-0.1621,-0.0956,-0.0,-0.0,-0.0,-0.0,-0.0,-0.0,-0.0,-0.4519,0.0,-0.537,0.0,-0.4803,-0.379,-0.1675,-0.134,-0.1006,-0.0112,-0.0,-0.0,-0.0,-0.0,-0.0,-0.0,-0.0,-0.0,-0.0,-0.0,-0.0,-0.0,-0.0,0.0,-0.0,0.0894,0.134,0.134,0.0894,0.0,0.0,0.0,0.0,0.0,0.6176,0.4522,0.4529,0.523,0.5982,0.6784,0.7402,0.7842,0.8103,0.7735,0.7322,0.6732,0.5152,0.3947,0.3019,0.1893,0.2058,0.306,0.4927,0.5639,0.5828,0.5804,0.6178,0.6485,0.5987,0.6209,0.6539,0.6145,0.586,0.5466,0.4869,0.347,0.162,-0.0633,-0.0393,0.0055,-0.0439,-0.0549,-0.0715,-0.122,0.0,0.0,0.0,0.0,0.0,0.0,0.0221,0.2041,0.2041,0.0,0.0,0.0,0.0,0.0,0.0,0.0,0.0,0.0,0.0,0.0,0.3147,0.3203,0.2132,-0.0,-0.0,-0.0,-0.0057,-0.0932,-0.2507,-0.4521,-0.4497,-0.4042,-0.3364,-0.348,-0.2741,-0.1475,-0.0402,-0.0,-0.0,-0.0,-0.0,-0.0,-0.4519,-0.5009,-0.5236,-0.4632,-0.4522,-0.4463,-0.446,-0.446,-0.34,-0.0392,-0.0,-0.0,-0.0,-0.0,-0.0,-0.0,-0.0,-0.0,-0.0,-0.0,-0.0,0.0,0.0,-0.0,-0.0,0.2899,0.446,0.446,0.0,0.0,0.5356,0.0,0.6041,0.8718,0.5769,0.4473,0.4497,0.4494,0.4525,0.4707,0.6608,0.7106,0.6701,0.7225,0.6792,0.5508,0.2528,0.0828,0.0056,0.0055,-0.061,-0.072,0.3267,0.5441,0.6851,0.8329,0.7732,0.6613,0.6613,0.6613,0.5987,0.3577,0.2196,0.1274,0.046,0.0174,-0.0816,-0.3823,-0.4425,-0.4438,-0.4438,-0.4438,-0.4438,-0.4438,0.0,0.0,0.0,0.0,0.0,0.0,-0.1781,0.0056,0.0056,0.0,0.0,0.0,0.0,0.0,0.0,0.0,0.0,-0.0,-0.0,0.0,0.0056,0.0056,0.0056,-0.0,-0.0,-0.0,-0.0118,-0.3069,-0.4445,-0.4494,-0.4512,-0.4616,-0.4894,-0.5207,-0.5332,-0.4998,-0.1407,-0.0,-0.0,-0.0,-0.0,-0.0,-0.8502,-0.6566,-0.4745,-0.4553,-0.4519,-0.4519,-0.4519,-0.4519,-0.4181,-0.3178,-0.3065,-0.3065,-0.3065,-0.1229,-0.0,0.0,-0.0,-0.0,0.0,-0.0,-0.0,-0.0,-0.1953,-0.212,-0.0056,0.2974,0.4501,0.4487,0.0,0.0,0.0,0.4618,0.5007,0.5764,0.2781,0.1454,0.1511,0.2519,0.2952,0.309,0.4765,0.5887,0.6436,0.491,0.3914,0.3147,0.1158,-0.1053,-0.3074,-0.3072,-0.3297,-0.3297,-0.2057,0.044,0.2848,0.2815,0.2806,0.2739,0.2254,0.2091,0.1926,0.1104,0.0166,-0.0998,-0.2651,-0.3559,-0.4396,-0.5643,-0.594,-0.5782,-0.5285,-0.5175,-0.5014,-0.4581,-0.4473,0.0,-0.4522,0.0,0.0,0.0,-0.3624,-0.2674,-0.1615,0.0724,0.0,0.0,0.0,0.0,0.0,0.0,0.0,0.0,-0.2068,0.0,-0.1507,-0.1507,-0.1507,-0.1507,-0.1507,-0.1517,-0.1532,-0.2499,-0.3527,-0.4502,-0.4507,-0.4657,-0.4928,-0.4992,-0.5178,-0.5183,-0.3211,-0.1472,-0.0,-0.0,-0.0,-0.0,-0.976,-0.7869,-0.6091,-0.6091,-0.6091,-0.6091,-0.6091,-0.5167,-0.4519,-0.4519,-0.4519,-0.4519,-0.4519,-0.2843,0.0,-0.0112,-0.0,-0.0,-0.0,-0.0,-0.0504,-0.1619,-0.4542,-0.4707,-0.173,0.0555,0.0,0.2225,0.2621,0.2788,0.2834,0.2785,0.2788,0.2732,0.0839,-0.0,0.0056,0.1008,0.1059,0.0608,0.1605,0.2819,0.3969,0.2424,0.1378,0.0607,-0.1108,-0.2896,-0.449,-0.4484,-0.4484,-0.4484,-0.4487,-0.2883,-0.1098,-0.1551,-0.1382,-0.1102,-0.155,-0.1663,-0.1663,-0.1664,-0.2166,-0.3005,-0.4522,-0.5627,-0.6452,-0.6714,-0.6769,-0.6543,-0.5814,-0.5589,-0.5273,-0.4625,-0.4519,-0.4519,-0.4519,0.0,-0.4539,0.0,0.0,0.0,0.0,-0.0393,0.1792,0.0,0.0,0.0,0.0,0.0,-0.3878,-0.4458,-0.3585,-0.307,-0.3074,-0.3074,-0.3074,-0.3074,-0.3074,-0.3074,-0.3074,-0.307,-0.3574,-0.448,-0.4473,-0.4643,-0.4918,-0.4918,-0.5101,-0.5309,-0.4558,-0.3349,-0.1878,-0.0469,-0.0,-0.0,-0.8804,-0.8804,-0.8804,0.0,-0.8804,-0.8804,-0.8804,-0.6524,-0.4787,-0.4787,-0.4787,-0.4736,-0.4515,-0.4519,-0.3345,-0.056,0.0,0.0,-0.0336,-0.0336,-0.1563,-0.4405,-0.7283,-0.7551,-0.4842,-0.3739,-0.2741,-0.1877,-0.0942,-0.0389,-0.0334,-0.0335,-0.0336,-0.0336,-0.0336,-0.0336,-0.0336,-0.0336,-0.1119,-0.2352,-0.2352,-0.1558,-0.0331,-0.0387,-0.0942,-0.1943,-0.3907,-0.4532,-0.4477,-0.4522,-0.4519,-0.4519,-0.4473,-0.4525,-0.4522,-0.449,-0.4494,-0.4494,-0.4494,-0.4494,-0.449,-0.448,-0.4487,-0.4705,-0.5328,-0.6304,-0.7028,-0.7069,-0.7069,-0.6837,-0.6085,-0.5712,-0.5273,-0.4625,-0.4519,-0.4522,-0.4532,-0.4525,-0.458,0.0,0.0,0.0,-0.4513,-0.1935,-0.0223,0.0,0.0,0.0,0.0,0.0,-0.2796,-0.4455,-0.449,-0.4484,-0.4494,-0.4494,-0.4494,-0.4494,-0.4494,-0.4494,-0.4494,-0.4484,-0.4477,-0.4477,-0.4522,-0.4636,-0.4918,-0.4918,-0.5101,-0.5376,-0.5376,-0.5389,-0.4998,-0.1474,-0.0134,-0.0,0.0,0.0,-0.8804,-0.8804,-0.8804,-0.8804,-0.8804,-0.8209,-0.7771,-0.7771,-0.7771,-0.6956,-0.4736,-0.4519,-0.4239,-0.3511,-0.3456,-0.3456,-0.3456,-0.3456,-0.3735,-0.446,-0.7283,-0.848,-0.7771,-0.6455,-0.5638,-0.537,-0.5148,-0.4501,-0.3413,-0.3418,-0.3413,-0.3456,-0.3456,-0.3456,-0.3456,-0.3413,-0.3649,-0.394,-0.3931,-0.3755,-0.3516,-0.4223,-0.4229,-0.3904,-0.4893,-0.4952,-0.4522,-0.4519,-0.4519,-0.4519,-0.4522,-0.4519,-0.4522,-0.448,-0.4477,-0.4525,-0.4525,-0.4525,-0.4525,-0.4522,-0.4555,-0.4777,-0.5356,-0.5802,-0.6242,-0.6644,-0.6718,-0.6499,-0.5771,-0.5572,-0.5273,-0.4625,-0.4519,-0.456,-0.4619,-0.4591,-0.4562,0.0,-0.4629,-0.4472,-0.4513,-0.3826,-0.246,0.0,0.0,0.0,-0.0,-0.0335,-0.1732,-0.4442,-0.4487,-0.4477,-0.4525,-0.4525,-0.4525,-0.4525,-0.4525,-0.4525,-0.4525,-0.4522,-0.4522,-0.4522,-0.4519,-0.4636,-0.4918,-0.4918,-0.5098,-0.5432,-0.5432,-0.5379,-0.5125,-0.2882,-0.1208,-0.0,-0.8804,-0.8804,-0.8804,-0.8804,-0.8804,-0.8804,-0.8804,-0.8804,-0.8804,-0.8804,-0.8804,-0.8209,-0.6632,-0.647,-0.647,-0.647,-0.5281,-0.4519,-0.4519,-0.571,-0.647,-0.647,-0.799,-0.8804,-0.8804,-0.8002,-0.7252,-0.6598,-0.6598,-0.6223,-0.5466,-0.5242,-0.4908,-0.4519,-0.4519,-0.4519,-0.4519,-0.4477,-0.4484,-0.4546,-0.5195,-0.5356,-0.5242,-0.595,-0.5896,-0.5454,-0.5492,-0.5273,-0.4893,-0.4625,-0.4519,-0.4519,-0.4519,-0.4519,-0.4519,-0.4525,-0.4522,-0.4519,-0.4519,-0.4519,-0.4519,-0.4519,-0.4858,-0.5293,-0.5586,-0.6103,-0.6562,-0.6847,-0.686,-0.6623,-0.5892,-0.5597,-0.5273,-0.4625,-0.4519,-0.4546,-0.4575,-0.457,-0.4551,-0.4785,-0.4606,-0.4524,-0.4564,-0.4515,-0.3524,-0.1172,-0.0391,0.0,-0.0,-0.0,-0.1398,-0.4389,-0.4494,-0.4484,-0.4477,-0.4477,-0.4477,-0.4525,-0.4525,-0.4522,-0.4519,-0.4519,-0.4519,-0.4519,-0.4519,-0.4596,-0.4819,-0.4891,-0.505,-0.5264,-0.5338,-0.5379,-0.5259,-0.4306,-0.2285,-0.0,-0.8804,-0.8804,-0.8804,-0.8804,-0.8804,-0.8804,-0.8804,-0.9166,-0.942,-0.942,-0.942,-0.9271,-0.8857,-0.8804,-0.8804,-0.8804,-0.6578,-0.5167,-0.5167,-0.7444,-0.8804,-0.8804,-0.8804,-0.8804,-0.8804,-0.8804,-0.8209,-0.6912,-0.6912,-0.6858,-0.675,-0.6357,-0.571,-0.4901,-0.4625,-0.4519,-0.4519,-0.4519,-0.4519,-0.4625,-0.6095,-0.647,-0.6195,-0.6583,-0.6696,-0.6534,-0.6032,-0.576,-0.5542,-0.4897,-0.4625,-0.4625,-0.4515,-0.4519,-0.4519,-0.4519,-0.457,-0.4625,-0.4625,-0.4736,-0.4791,-0.468,-0.5245,-0.5764,-0.5624,-0.6276,-0.6875,-0.6905,-0.6759,-0.6525,-0.5892,-0.5541,-0.5164,-0.457,-0.4519,-0.4525,-0.4549,0.0,-0.4562,-0.4735,-0.4623,-0.4592,-0.4741,-0.4629,-0.3975,-0.2719,-0.0958,-0.0,-0.0,-0.0,-0.1186,-0.3741,-0.4058,-0.4163,-0.4129,-0.4129,-0.4179,-0.4169,-0.4379,-0.4477,-0.4522,-0.4522,-0.4522,-0.4522,-0.4522,-0.4565,-0.4735,-0.4863,-0.5016,-0.5179,-0.5321,-0.5312,-0.5119,-0.5129,-0.3098,-0.0337,-0.8804,-0.8804,-0.8804,-0.8804,-0.8804,-0.8804,-0.8804,-1.0795,-1.2264,-1.2264,-1.2264,-1.1401,-0.9061,-0.8804,-0.8804,-0.8804,-0.8368,-0.815,-0.815,-0.8533,-0.8804,-0.8804,-0.8804,-0.8804,-0.8804,-0.8804,-0.8699,-0.848,-0.848,-0.8156,-0.7509,-0.745,-0.7235,-0.6858,-0.5226,-0.4519,-0.4519,-0.4519,-0.4519,-0.468,-0.6529,-0.7241,-0.7182,-0.745,-0.7128,-0.6642,-0.7176,-0.6961,-0.6312,-0.5601,-0.5324,-0.5273,-0.468,-0.4519,-0.4519,-0.4519,-0.4893,-0.5324,-0.5324,-0.5819,-0.615,-0.5492,-0.5574,-0.5616,-0.4856,-0.4898,-0.5085,-0.4949,-0.4901,-0.4882,-0.4772,-0.4695,-0.4625,-0.4515,-0.4519,-0.4563,-0.4636,0.0,-0.4755,-0.503,-0.4935,-0.4904,-0.5047,-0.488,-0.468,-0.4436,-0.1654,-0.0,-0.0,-0.0,-0.0234,-0.0701,-0.1932,-0.2552,-0.2561,-0.2561,-0.2561,-0.2559,-0.3863,-0.4494,-0.449,-0.449,-0.4487,-0.4477,-0.4477,-0.4629,-0.4887,-0.4908,-0.5081,-0.5328,-0.5422,-0.4758,-0.3882,-0.3885,-0.3213,-0.2076,-0.8804,-0.8804,-0.9263,-1.0744,-1.0998,-1.0998,-1.0998,-1.2067,-1.2881,-1.2881,-1.2881,-1.2421,-1.115,-0.9673,-0.8804,-0.8804,-0.8804,-0.8804,-0.8804,-0.8804,-0.9472,-1.0947,-0.9569,-0.8804,-0.8804,-0.8804,-0.8804,-0.8804,-0.8804,-0.8646,-0.8321,-0.8321,-0.8049,-0.7563,-0.7015,-0.6529,-0.5987,-0.4952,-0.5386,-0.6902,-0.7777,-0.8156,-0.8156,-0.8262,-0.8103,-0.7777,-0.7723,-0.7509,-0.702,-0.5869,-0.5487,-0.5378,-0.4736,-0.4519,-0.4519,-0.4519,-0.4948,-0.5597,-0.5982,-0.6367,-0.6529,-0.6204,-0.6244,-0.6203,-0.5381,-0.5262,-0.5182,-0.4713,-0.4577,-0.4519,-0.4519,-0.4519,-0.4519,-0.4519,-0.4519,-0.4543,-0.4558,-0.4636,-0.4741,-0.4877,-0.4908,-0.4945,-0.5009,-0.49,-0.4867,-0.4938,-0.3583,-0.1937,-0.0123,-0.0,0.0905,0.2845,0.0351,-0.0993,-0.1024,-0.1007,-0.0998,-0.0996,-0.1759,-0.2514,-0.3244,-0.3244,-0.3241,-0.3294,-0.4141,-0.4606,-0.4872,-0.4887,-0.5043,-0.5247,-0.5335,-0.503,-0.4558,-0.4564,-0.4364,-0.403,-0.891,-0.9316,-1.0438,-1.252,-1.2881,-1.3113,-1.3658,-1.3752,-1.3525,-1.2978,-1.2881,-1.2881,-1.2881,-1.0998,-0.9472,-0.8857,-0.8804,-0.8804,-0.8804,-0.942,-1.0685,-1.2832,-1.0285,-0.8804,-0.8804,-0.8804,-0.8804,-0.8804,-0.8804,-0.8804,-0.8804,-0.8804,-0.8427,-0.7723,-0.8262,-0.8209,-0.7616,-0.6145,-0.6794,-0.8804,-0.8804,-0.8804,-0.8804,-0.8804,-0.8804,-0.8752,-0.8156,-0.7937,-0.7777,-0.6465,-0.5923,-0.5655,-0.4948,-0.4625,-0.4519,-0.4519,-0.5113,-0.5923,-0.6637,-0.6966,-0.7074,-0.6912,-0.6984,-0.6829,-0.5927,-0.5705,-0.5535,-0.4808,-0.4545,-0.4519,-0.4519,-0.4519,-0.4529,-0.4567,0.0,-0.4584,-0.4565,-0.4697,-0.4792,-0.4792,-0.4928,-0.5023,-0.5023,-0.5023,-0.5088,-0.5161,-0.5195,-0.3996,-0.138,0.0312,0.2502,0.5339,0.1898,-0.0,-0.0,-0.0,-0.0,-0.0,-0.0,-0.0619,-0.1675,-0.1675,-0.1905,-0.2372,-0.3562,-0.4403,-0.4876,-0.4925,-0.5053,-0.5196,-0.5325,-0.5376,-0.5376,-0.5382,-0.5389,-0.5393,-0.9316,-1.0846,-1.2676,-1.2881,-1.2881,-1.3658,-1.5876,-1.6238,-1.5421,-1.32,-1.2881,-1.2881,-1.2881,-1.2725,-1.156,-0.9015,-0.8804,-0.8804,-0.8804,-1.12,-1.2676,-1.2881,-1.0285,-0.8804,-0.8804,-0.8804,-0.8804,-0.8804,-0.8804,-0.8804,-0.8804,-0.8804,-0.8427,-0.767,-0.7563,-0.7943,-0.8699,-0.8533,-0.8586,-0.8804,-0.8804,-0.8804,-0.8804,-0.8804,-0.8804,-0.8804,-0.8752,-0.8699,-0.8586,-0.783,-0.7074,-0.6367,-0.5651,-0.5003,-0.4519,-0.4519,-0.5445,-0.6696,-0.7402,-0.8103,-0.848,-0.7777,-0.7628,-0.7257,-0.5837,-0.5508,-0.5344,-0.4643,-0.4525,-0.4519,-0.4519,-0.4519,-0.4563,-0.465,0.0,0.0,-0.4863,-0.5009,-0.5098,-0.5098,-0.5237,-0.5394,-0.5394,-0.5394,-0.5394,-0.5397,-0.5406,-0.5267,-0.5017,0.1365,0.512,0.5406,0.1888,-0.0,-0.0,-0.0,-0.0,-0.0,-0.0,-0.0058,-0.0168,-0.0168,-0.1081,-0.2689,-0.2805,-0.3688,-0.5101,-0.5111,-0.5206,-0.5411,-0.5425,-0.5428,-0.5428,-0.5428,-0.5369,-0.5382,-1.156,-1.2166,-1.2881,-1.2881,-1.4165,-1.5421,-1.638,-1.6522,-1.5611,-1.32,-1.2881,-1.3281,-1.4336,-1.2685,-1.0767,-0.8971,-0.8804,-0.8804,-0.8804,-1.1351,-1.2881,-1.2881,-1.0285,-0.8804,-0.8804,-0.8804,-0.8804,-0.8804,-0.8804,-0.8804,-0.8804,-0.8321,-0.7996,-0.767,-0.7128,-0.7348,-0.8156,-0.8586,-0.8804,-0.8804,-0.8804,-0.8804,-0.8804,-0.8804,-0.8804,-0.8804,-0.8804,-0.8804,-0.8699,-0.7937,-0.7509,-0.7182,-0.6421,-0.5987,-0.5828,-0.5828,-0.6209,-0.675,-0.7503,-0.8262,-0.8752,-0.8427,-0.8374,-0.8103,-0.7117,-0.6524,-0.6018,-0.5422,-0.494,-0.4633,-0.4728,-0.4745,-0.4765,-0.4823,0.0,-0.4853,-0.4911,-0.504,-0.5131,-0.5131,-0.5267,-0.5428,-0.5428,-0.5428,-0.5428,-0.5428,-0.538,-0.538,-0.5382,-0.1387,0.0793,0.0402,0.1193,0.1123,-0.0,-0.0,-0.0,-0.0,-0.0,-0.0,-0.0056,-0.2352,-0.3738,-0.438,-0.427,-0.4587,-0.5272,-0.5135,-0.522,-0.5428,-0.5369,-0.5372,-0.5372,-0.5379,-0.5386,-0.5389,-1.2881,-1.2881,-1.3162,-1.3884,-1.5377,-1.6522,-1.6522,-1.5876,-1.4801,-1.3113,-1.2881,-1.3157,-1.3847,-1.1903,-1.0295,-0.9426,-0.9018,-0.8804,-0.8804,-1.0592,-1.2017,-1.2881,-1.0285,-0.8804,-0.8804,-0.8804,-0.8804,-0.8804,-0.8804,-0.8646,-0.8374,-0.7836,-0.7396,-0.7009,-0.647,-0.6691,-0.7402,-0.7883,-0.8374,-0.8804,-0.8804,-0.8804,-0.8804,-0.8804,-0.8804,-0.8804,-0.8804,-0.8804,-0.8699,-0.8209,-0.7883,-0.7616,-0.7128,-0.6804,-0.6588,-0.6588,-0.675,-0.7074,-0.7563,-0.8262,-0.8804,-0.8804,-0.8804,-0.8612,-0.7991,-0.7236,-0.6527,-0.6049,-0.528,-0.4796,-0.4901,-0.4918,-0.4935,-0.4979,-0.4986,-0.5003,-0.505,-0.5142,-0.5203,-0.5203,-0.5298,-0.5428,-0.5428,-0.5428,-0.5428,-0.5428,-0.5428,-0.5432,-0.5379,-0.3816,-0.3143,-0.3553,-0.1136,-0.0134,-0.0874,-0.0257,-0.0,-0.0,-0.0936,-0.1416,-0.1459,-0.3606,-0.4824,-0.5303,-0.52,-0.528,-0.5413,-0.5277,-0.527,-0.5369,-0.5379,-0.504,-0.4564,-0.457,-0.4916,-0.5403,-1.2881,-1.2881,-1.3658,-1.6064,-1.6522,-1.6466,-1.6466,-1.4433,-1.2881,-1.2881,-1.2891,-1.2316,-1.0795,-1.0624,-1.0624,-1.0624,-0.9486,-0.8804,-0.8804,-0.8804,-1.0035,-1.2725,-1.0233,-0.8804,-0.8804,-0.8804,-0.8804,-0.8804,-0.8804,-0.8321,-0.7402,-0.7402,-0.6691,-0.5487,-0.5487,-0.5928,-0.6588,-0.6588,-0.7456,-0.8804,-0.8804,-0.8804,-0.8804,-0.8804,-0.8804,-0.8804,-0.8804,-0.8804,-0.8804,-0.8804,-0.8315,-0.7723,-0.7723,-0.7182,-0.6588,-0.6588,-0.7128,-0.7723,-0.7723,-0.8262,-0.8804,-0.8804,-0.8804,-0.8718,-0.8281,-0.7537,-0.6797,-0.6305,-0.5514,-0.4921,-0.4921,-0.4921,-0.4969,-0.5108,-0.5131,-0.5186,-0.5342,-0.5428,-0.5428,-0.5428,-0.5428,-0.5428,-0.5428,-0.5428,-0.5428,-0.5428,-0.5428,-0.5432,-0.5379,-0.5389,-0.5396,-0.5396,-0.5396,-0.4506,-0.2744,-0.0914,-0.0,-0.0062,-0.3058,-0.4487,-0.4462,-0.3249,-0.3587,-0.5135,-0.5283,-0.5431,-0.5428,-0.5372,-0.5379,-0.5379,-0.5389,-0.43,-0.2744,-0.2678,-0.383,-0.5346,-1.3115,-1.2881,-1.3658,-1.6064,-1.6522,-1.5932,-1.4247,-1.3344,-1.2881,-1.2881,-1.1948,-1.1114,-1.0647,-1.0624,-1.0624,-1.0624,-0.9486,-0.8804,-0.8804,-0.8804,-0.9166,-0.9976,-0.9218,-0.8804,-0.8804,-0.8804,-0.8804,-0.8804,-0.7439,-0.6627,-0.6357,-0.614,-0.5869,-0.5487,-0.5003,-0.5441,-0.6588,-0.6588,-0.7456,-0.8804,-0.8804,-0.8804,-0.8804,-0.8804,-0.8804,-0.8804,-0.8804,-0.8804,-0.8804,-0.8804,-0.8646,-0.848,-0.848,-0.7943,-0.7396,-0.7396,-0.7509,-0.7723,-0.7723,-0.8262,-0.8804,-0.8804,-0.8804,-0.8831,-0.889,-0.8335,-0.788,-0.799,-0.6912,-0.597,-0.6153,-0.5671,-0.5243,-0.5284,-0.5291,-0.5308,-0.5422,-0.5428,-0.5428,-0.5428,-0.5428,-0.5428,-0.5428,-0.5428,-0.5428,-0.5428,-0.5428,-0.5428,-0.5432,-0.5369,-0.5372,-0.5372,-0.5379,-0.5109,-0.4631,-0.2801,-0.1917,-0.1899,-0.2833,-0.3654,-0.4493,-0.4537,-0.48,-0.5139,-0.5324,-0.5391,-0.5428,-0.5372,-0.5379,-0.5379,-0.5399,-0.5065,-0.4311,-0.1747,-0.1144,-0.1616,-1.3213,-1.2881,-1.3658,-1.6064,-1.57,-1.456,-1.3113,-1.1968,-1.1301,-1.1301,-1.0857,-1.0624,-1.0624,-1.0624,-1.0624,-1.0624,-0.9486,-0.8804,-0.8804,-0.8804,-0.8804,-0.8804,-0.8804,-0.8804,-0.8804,-0.7664,-0.7122,-0.7122,-0.5923,-0.5328,-0.5328,-0.5164,-0.5109,-0.5109,-0.4948,-0.555,-0.6642,-0.6912,-0.7723,-0.8804,-0.8804,-0.8804,-0.8804,-0.8804,-0.8804,-0.8804,-0.8804,-0.8804,-0.8804,-0.8804,-0.8804,-0.8804,-0.8804,-0.848,-0.8156,-0.8156,-0.8156,-0.8156,-0.8156,-0.848,-0.8804,-0.8804,-0.8804,-0.8911,-0.9325,-0.8833,-0.8399,-0.8915,-0.7949,-0.6971,-0.6763,-0.6268,-0.5818,-0.5425,-0.5428,-0.5449,-0.5443,-0.5399,-0.5452,-0.5443,-0.5466,-0.5428,-0.5428,-0.5428,-0.5428,-0.5428,-0.5428,-0.5428,-0.5428,-0.5428,-0.5428,-0.5428,-0.5369,-0.5372,-0.5372,-0.4347,-0.3764,-0.3791,-0.3683,-0.4027,-0.4756,-0.5106,-0.5227,-0.5092,-0.5325,-0.5428,-0.5428,-0.5372,-0.5103,-0.4694,-0.4439,-0.4308,-0.4038,-0.188,-0.1075,-0.1075,-1.3163,-1.2881,-1.361,-1.5788,-1.434,-1.2832,-1.2569,-1.0438,-0.8804,-0.8804,-0.959,-1.0168,-1.0168,-1.0168,-1.0192,-1.0408,-0.9426,-0.8804,-0.8804,-0.8804,-0.8804,-0.8804,-0.8804,-0.8804,-0.8804,-0.5982,-0.4519,-0.4519,-0.4519,-0.4519,-0.4519,-0.4519,-0.4519,-0.4515,-0.5218,-0.5928,-0.6642,-0.7402,-0.8103,-0.8804,-0.8804,-0.8804,-0.8804,-0.8804,-0.8804,-0.8804,-0.8804,-0.8804,-0.8804,-0.8804,-0.8804,-0.8804,-0.8804,-0.8804,-0.8804,-0.8804,-0.8804,-0.8804,-0.8804,-0.8804,-0.8804,-0.8804,-0.8824,-0.8991,-0.9552,-0.9097,-0.8717,-0.9295,-0.8748,-0.7897,-0.7111,-0.6798,-0.6482,-0.5624,-0.5439,-0.5426,-0.5552,-0.545,-0.5416,-0.5572,-0.5467,-0.5452,-0.5466,-0.5466,-0.5456,-0.5428,-0.5452,-0.5463,-0.5449,-0.5459,-0.5466,-0.5466,-0.5456,-0.5449,-0.5449,-0.5435,-0.537,-0.5382,-0.5234,-0.5095,-0.5085,-0.5091,-0.5142,-0.5138,-0.5294,-0.5428,-0.5428,-0.5372,-0.4761,-0.368,-0.3147,-0.2947,-0.2947,-0.2947,-0.2947,-0.2947,-1.2742,-1.2881,-1.3065,-1.361,-1.3248,-1.2166,-1.0035,-0.9166,-0.8804,-0.8804,-0.7471,-0.6535,-0.6535,-0.6535,-0.7245,-0.9036,-0.8951,-0.8804,-0.8804,-0.8804,-0.8804,-0.8804,-0.8804,-0.8804,-0.8804,-0.5982,-0.4519,-0.4519,-0.4519,-0.4519,-0.4519,-0.4519,-0.4519,-0.4515,-0.5218,-0.5928,-0.6642,-0.7402,-0.8103,-0.8804,-0.8804,-0.8804,-0.8804,-0.8804,-0.8804,-0.8804,-0.8804,-0.8804,-0.8804,-0.8804,-0.8804,-0.8804,-0.8804,-0.8804,-0.8804,-0.8804,-0.8804,-0.8804,-0.8804,-0.8804,-0.8804,-0.8804,-0.8978,-0.9239,-0.9599,-0.9735,-0.9871,-1.0229,-0.9658,-0.8947,-0.8748,-0.7707,-0.676,-0.6486,-0.5925,-0.5511,-0.5423,-0.5449,-0.5416,-0.5572,-0.5559,-0.5586,-0.5694,-0.5705,-0.561,-0.5446,-0.5576,-0.5657,-0.5545,-0.5647,-0.5705,-0.5705,-0.5599,-0.5542,-0.5542,-0.542,-0.5415,-0.5387,-0.5353,-0.527,-0.5094,-0.5243,-0.5247,-0.5138,-0.5294,-0.5428,-0.5428,-0.5372,-0.5243,-0.497,-0.4843,-0.4846,-0.4846,-0.4846,-0.4846,-0.4846,-1.3924,-1.3437,-1.2881,-1.2881,-1.2881,-1.1959,-0.9218,-0.8804,-0.8315,-0.6902,-0.5961,-0.5428,-0.5428,-0.5428,-0.6304,-0.8577,-0.8804,-0.8804,-0.8804,-0.8804,-0.8804,-0.8804,-0.8804,-0.8804,-0.8804,-0.7337,-0.5873,-0.4519,-0.4519,-0.4519,-0.4519,-0.4519,-0.4732,-0.5164,-0.5542,-0.6249,-0.7182,-0.7937,-0.8427,-0.8804,-0.8804,-0.8804,-0.8804,-0.8804,-0.8804,-0.8804,-0.8804,-0.8804,-0.8804,-0.8804,-0.8804,-0.8804,-0.8804,-0.8804,-0.8804,-0.8804,-0.8804,-0.8804,-0.8804,-0.8804,-0.8838,-0.8978,-0.9232,-0.9492,-0.9646,-0.9907,-1.02,-1.0557,-0.9913,-0.918,-0.8838,-0.775,-0.6771,-0.6277,-0.5931,-0.5661,-0.5583,-0.5572,-0.563,-0.5783,-0.5735,-0.5722,-0.5793,-0.58,-0.5708,-0.5488,-0.5677,-0.5739,-0.5596,-0.5725,-0.58,-0.58,-0.5664,-0.5589,-0.5589,-0.5511,-0.5471,-0.5471,-0.5463,-0.5359,-0.5348,-0.5359,-0.5318,-0.5247,-0.5325,-0.5428,-0.5428,-0.5369,-0.5369,-0.5372,-0.5376,-0.5379,-0.5379,-0.5379,-0.5382,-0.5386,-1.498,-1.3848,-1.2881,-1.2881,-1.252,-1.1451,-0.9166,-0.8374,-0.723,-0.4791,-0.5051,-0.5387,-0.5284,-0.5717,-0.6712,-0.8618,-0.8804,-0.8804,-0.8804,-0.8804,-0.9008,-0.9465,-0.9061,-0.8804,-0.8804,-0.8804,-0.7391,-0.4519,-0.4519,-0.4519,-0.4519,-0.4736,-0.5386,-0.6406,-0.6249,-0.6735,-0.7723,-0.848,-0.8804,-0.8804,-0.8804,-0.8804,-0.8804,-0.8804,-0.8804,-0.8804,-0.8804,-0.8804,-0.8804,-0.8804,-0.8804,-0.8804,-0.8804,-0.8804,-0.8804,-0.8804,-0.8804,-0.8804,-0.8804,-0.8844,-0.8938,-0.9123,-0.9499,-0.976,-0.976,-0.9987,-1.0274,-1.0575,-1.011,-0.9415,-0.8856,-0.7898,-0.6952,-0.6248,-0.5958,-0.583,-0.5803,-0.5943,-0.6071,-0.6229,-0.6375,-0.6299,-0.6126,-0.615,-0.6022,-0.5637,-0.5783,-0.5817,-0.5674,-0.5803,-0.5878,-0.5878,-0.5739,-0.5654,-0.5627,-0.5627,-0.5627,-0.5627,-0.5498,-0.5491,-0.5586,-0.5433,-0.5428,-0.5428,-0.5428,-0.5428,-0.5428,-0.5428,-0.5428,-0.5428,-0.5428,-0.5428,-0.5428,-0.5428,-0.5369,-0.5376,-1.3223,-1.3037,-1.2881,-1.2881,-1.0947,-0.9218,-0.8857,-0.6686,-0.4952,-0.4574,-0.5051,-0.5226,-0.4697,-0.687,-0.8479,-0.8765,-0.8804,-0.8804,-0.8804,-0.8804,-0.988,-1.2215,-1.0079,-0.8804,-0.8804,-0.8804,-0.7391,-0.4519,-0.4519,-0.4519,-0.4515,-0.5769,-0.7069,-0.8368,-0.7723,-0.7456,-0.7509,-0.8427,-0.8804,-0.8804,-0.8804,-0.8804,-0.8804,-0.8804,-0.8804,-0.8804,-0.8804,-0.8804,-0.8804,-0.8804,-0.8804,-0.8804,-0.8804,-0.8804,-0.8804,-0.8804,-0.8804,-0.8804,-0.8804,-0.8991,-0.9137,-0.9176,-0.9653,-1.006,-1.006,-1.0287,-1.0581,-1.0875,-1.087,-1.0824,-1.0963,-0.965,-0.8432,-0.8263,-0.6981,-0.5952,-0.582,-0.6576,-0.714,-0.7253,-0.8212,-0.8384,-0.74,-0.7459,-0.7041,-0.5864,-0.6037,-0.6132,-0.5979,-0.6115,-0.62,-0.62,-0.6051,-0.5908,-0.5776,-0.5772,-0.5772,-0.5772,-0.5752,-0.5688,-0.5586,-0.5433,-0.5428,-0.5428,-0.5428,-0.5428,-0.5428,-0.5428,-0.5428,-0.5428,-0.5428,-0.5428,-0.5428,-0.5372,-0.5376,-0.5173,-1.2881,-1.2881,-1.2421,-1.0897,-0.9621,-0.8804,-0.8804,-0.6362,-0.4519,-0.4519,-0.4752,-0.5397,-0.6732,-0.8043,-0.8804,-0.8804,-0.8804,-0.8804,-0.8804,-0.8804,-0.9316,-1.0541,-0.9472,-0.8804,-0.8804,-0.8804,-0.8156,-0.6907,-0.5277,-0.4519,-0.4574,-0.6799,-0.8156,-0.8804,-0.848,-0.8268,-0.8215,-0.8646,-0.8804,-0.8804,-0.8804,-0.8804,-0.8804,-0.8804,-0.8804,-0.8804,-0.8804,-0.8804,-0.8804,-0.8804,-0.8804,-0.8804,-0.8804,-0.8804,-0.8804,-0.8804,-0.8925,-0.9051,-0.9051,-0.9265,-0.9526,-0.9686,-0.992,-1.0207,-1.0534,-1.0708,-1.0835,-1.0969,-1.0593,-1.0386,-1.0804,-0.9824,-0.8772,-0.8105,-0.7459,-0.6922,-0.6745,-0.7245,-0.7781,-0.8463,-0.901,-0.911,-0.8557,-0.8112,-0.7517,-0.6814,-0.6435,-0.6193,-0.6037,-0.6176,-0.6338,-0.6338,-0.6108,-0.5956,-0.5803,-0.5884,-0.5884,-0.5803,-0.6462,-0.6633,-0.6401,-0.6298,-0.6431,-0.6793,-0.6334,-0.6141,-0.6075,-0.5624,-0.5428,-0.5428,-0.5428,-0.5428,-0.5428,-0.5432,-0.4964,-0.422]},{"header":{"parameterUnit":"m.s-1","parameterCategory":1,"la1":30.6,"la2":28.766,"lo1":-90.7593,"lo2":-88.6598,"dy":0.0162,"dx":0.0183,"nx":116,"ny":114,"refTime":"2023-07-05T06:00:00:Z","depth":0,"parameterNumber":3,"parameterNumberName":"V-component_of_WINDS"},"data":[0.0,0.0,0.0,0.0,0.0,0.0,0.0,0.0,0.0,0.0,0.0,0.0,0.0,0.0,0.0,0.0,0.0,0.0,0.0,0.0,0.0,0.0,0.0,0.0,0.0,0.0,0.0,0.0,0.0,0.0,0.0,0.0,0.0,0.0,0.0,0.0,0.0,0.0,0.0,0.0,0.0,0.0,0.0,0.0,0.0,0.0,0.0,0.0,0.0,0.0,0.0,0.0,0.0,0.0,0.0,0.0,0.0,0.0,0.0,0.0,0.0,0.0,0.0,0.0,0.0,0.0,0.0,0.0,0.0,0.0,0.0,0.0,0.0,0.0,0.0,0.0,0.0,0.0,0.0,0.0,0.0,0.0,0.0,0.0,0.0,0.0,0.0,0.0,0.0,0.0,0.0,0.0,0.0,0.0,0.0,0.0,0.0,0.0,0.0,0.0,0.0,0.0,0.0,0.0,0.0,0.0,0.0,0.0,0.0,0.0,0.0,0.0,0.0,0.0,0.0,0.0,0.0,0.0,0.0,0.0,0.0,0.0,0.0,0.0,0.0,0.0,0.0,0.0,0.0,0.0,0.0,0.0,0.0,0.0,0.0,0.0,0.0,0.0,0.0,0.0,0.0,0.0,0.0,0.0,0.0,0.0,0.0,0.0,0.0,0.0,0.0,0.0,0.0,0.0,0.0,0.0,0.0,0.0,0.0,0.0,0.0,0.0,0.0,0.0,0.0,0.0,0.0,0.0,0.0,0.0,0.0,0.0,0.0,0.0,0.0,0.0,0.0,0.0,0.0,0.0,0.0,0.0,0.0,0.0,0.0,0.0,0.0,0.0,0.0,0.0,0.0,0.0,0.0,0.0,0.0,0.0,0.0,0.0,0.0,0.0,0.0,0.0,0.0,0.0,0.0,0.0,0.0,0.0,0.0,0.0,0.0,0.0,0.0,0.0,0.0,0.0,0.0,0.0,0.0,0.0,0.0,0.0,0.0,0.0,0.0,0.0,0.0,0.0,0.0,0.0,0.0,0.0,0.0,0.0,0.0,0.0,0.0,0.0,0.0,0.0,0.0,0.0,0.0,0.0,0.0,0.0,0.0,0.0,0.0,0.0,0.0,0.0,0.0,0.0,0.0,0.0,0.0,0.0,0.0,0.0,0.0,0.0,0.0,0.0,0.0,0.0,0.0,0.0,0.0,0.0,0.0,0.0,0.0,0.0,0.0,0.0,0.0,0.0,0.0,0.0,0.0,0.0,0.0,0.0,0.0,0.0,0.0,0.0,0.0,0.0,0.0,0.0,0.0,0.0,0.0,0.0,0.0,0.0,0.0,0.0,0.0,0.0,0.0,0.0,0.0,0.0,0.0,0.0,0.0,0.0,0.0,0.0,0.0,0.0,0.0,0.0,0.0,0.0,0.0,0.0,0.0,0.0,0.0,0.0,0.0,0.0,0.0,0.0,0.0,0.0,0.0,0.0,0.0,0.0,0.0,0.0,0.0,0.0,0.0,0.0,0.0,0.0,0.0,0.0,0.0,0.0,0.0,0.0,0.0,0.0,0.0,0.0,0.0,0.0,0.0,0.0,0.0,0.0,0.0,0.0,0.0,0.0,0.0,0.0,0.0,0.0,0.0,0.0,0.0,0.0,0.0,0.0,0.0,0.0,0.0,0.0,0.0,0.0,0.0,0.0,0.0,0.0,0.0,0.0,0.0,0.0,0.0,0.0,0.0,0.0,0.0,0.0,0.0,0.0,0.0,0.0,0.0,0.0,0.0,0.0,0.0,0.0,0.0,0.0,0.0,0.0,0.0,0.0,0.0,0.0,0.0,0.0,0.0,0.0,0.0,0.0,0.0,0.0,0.0,0.0,0.0,0.0,0.0,0.0,0.0,0.0,0.0,0.0,0.0,0.0,0.0,0.0,0.0,0.0,0.0,0.0,0.0,0.0,0.0,0.0,0.0,0.0,0.0,0.0,0.0,0.0,0.0,0.0,0.0,0.0,0.0,0.0,0.0,0.0,0.0,0.0,0.0,0.0,0.0,0.0,0.0,0.0,0.0,0.0,0.0,0.0,0.0,0.0,0.0,0.0,0.0,0.0,0.0,0.0,0.0,0.0,0.0,0.0,0.0,0.0,0.0,0.0,0.0,0.0,0.0,0.0,0.0,0.0,0.0,0.0,0.0,0.0,0.0,0.0,0.0,0.0,0.0,0.0,0.0,0.0,0.0,0.0,0.0,0.0,0.0,0.0,0.0,0.0,0.0,0.0,0.0,0.0,0.0,0.0,0.0,0.0,0.0,0.0,0.0,0.0,0.0,0.0,0.0,0.0,0.0,0.0,0.0,0.0,0.0,0.0,0.0,0.0,0.0,0.0,0.0,0.0,0.0,0.0,0.0,0.0,0.0,0.0,0.0,0.0,0.0,0.0,0.0,0.0,0.0,0.0,0.0,0.0,0.0,0.0,0.0,0.0,0.0,0.0,0.0,0.0,0.0,0.0,0.0,0.0,0.0,0.0,0.0,0.0,0.0,0.0,0.0,0.0,0.0,0.0,0.0,0.0,0.0,0.0,0.0,0.0,0.0,0.0,0.0,0.0,0.0,0.0,0.0,0.0,0.0,0.0,0.0,0.0,0.0,0.0,0.0,0.0,0.0,0.0,0.0,0.0,0.0,0.0,0.0,0.0,0.0,0.0,0.0,0.0,0.0,0.0,0.0,0.0,0.0,0.0,0.0,0.0,0.0,0.0,0.0,0.0,0.0,0.0,0.0,0.0,0.0,0.0,0.0,0.0,0.0,0.0,0.0,0.0,0.0,0.0,0.0,0.0,0.0,0.0,0.0,0.0,0.0,0.0,0.0,0.0,0.0,0.0,0.0,0.0,0.0,0.0,0.0,0.0,0.0,0.0,0.0,0.0,0.0,0.0,0.0,0.0,0.0,0.0,0.0,0.0,0.0,0.0,0.0,0.0,0.0,0.0,0.0,0.0,0.0,0.0,0.0,0.0,0.0,0.0,0.0,0.0,0.0,0.0,0.0,0.0,0.0,0.0,0.0,0.0,0.0,0.0,0.0,0.0,0.0,0.0,0.0,0.0,0.0,0.0,0.0,0.0,0.0,0.0,0.0,0.0,0.0,0.0,0.0,0.0,0.0,0.0,0.0,0.0,0.0,0.0,0.0,0.0,0.0,0.0,0.0,0.0,0.0,0.0,0.0,0.0,0.0,0.0,0.0,0.0,0.0,0.0,0.0,0.0,0.0,0.0,0.0,0.0,0.0,0.0,0.0,0.0,0.0,0.0,0.0,0.0,0.0,0.0,0.0,0.0,0.0,0.0,0.0,0.0,0.0,0.0,0.0,0.0,0.0,0.0,0.0,0.0,0.0,0.0,0.0,0.0,0.0,0.0,0.0,0.0,0.0,0.0,0.0,0.0,0.0,0.0,0.0,0.0,0.0,0.0,0.0,0.0,0.0,0.0,0.0,0.0,0.0,0.0,0.0,0.0,0.0,0.0,0.0,0.0,0.0,0.0,0.0,0.0,0.0,0.0,0.0,0.0,0.0,0.0,0.0,0.0,0.0,0.0,0.0,0.0,0.0,0.0,0.0,0.0,0.0,0.0,0.0,0.0,0.0,0.0,0.0,0.0,0.0,0.0,0.0,0.0,0.0,0.0,0.0,0.0,0.0,0.0,0.0,0.0,0.0,0.0,0.0,0.0,0.0,0.0,0.0,0.0,0.0,0.0,0.0,0.0,0.0,0.0,0.0,0.0,0.0,0.0,0.0,0.0,0.0,0.0,0.0,0.0,0.0,0.0,0.0,0.0,0.0,0.0,0.0,0.0,0.0,0.0,0.0,0.0,0.0,0.0,0.0,0.0,0.0,0.0,0.0,0.0,0.0,0.0,0.0,0.0,0.0,0.0,0.0,0.0,0.0,0.0,0.0,0.0,0.0,0.0,0.0,0.0,0.0,0.0,0.0,0.0,0.0,0.0,0.0,0.0,0.0,0.0,0.0,0.0,0.0,0.0,0.0,0.0,0.0,0.0,0.0,0.0,0.0,0.0,0.0,0.0,0.0,0.0,0.0,0.0,0.0,0.0,0.0,0.0,0.0,0.0,0.0,0.0,0.0,0.0,0.0,0.0,0.0,0.0,0.0,0.0,0.0,0.0,0.0,0.0,0.0,0.0,0.0,0.0,0.0,0.0,0.0,0.0,0.0,0.0,0.0,0.0,0.0,0.0,0.0,0.0,0.0,0.0,0.0,0.0,0.0,0.0,0.0,0.0,0.0,0.0,0.0,0.0,0.0,0.0,0.0,0.0,0.0,0.0,0.0,0.0,0.0,0.0,0.0,0.0,0.0,0.0,0.0,0.0,0.0,0.0,0.0,0.0,0.0,0.0,0.0,0.0,0.0,0.0,0.0,0.0,0.0,0.0,0.0,0.0,0.0,0.0,0.0,0.0,0.0,0.0,0.0,0.0,0.0,0.0,0.0,0.0,0.0,0.0,0.0,0.0,0.0,0.0,0.0,0.0,0.0,0.0,0.0,0.0,0.0,0.0,0.0,0.0,0.0,0.0,0.0,0.0,0.0,0.0,0.0,0.0,0.0,0.0,0.0,0.0,0.0,0.0,0.0,0.0,0.0,0.0,0.0,0.0,0.0,0.0,0.0,0.0,0.0,0.0,0.0,0.0,0.0,0.0,0.0,0.0,0.0,0.0,0.0,0.0,0.0,0.0,0.0,0.0,0.0,0.0,0.0,0.0,0.0,0.0,0.0,0.0,0.0,0.0,0.0,0.0,0.0,0.0,0.0,0.0,0.0,0.0,0.0,0.0,0.0,0.0,0.0,0.0,0.0,0.0,0.0,0.0,0.0,0.0,0.0,0.0,0.0,0.0,0.0,0.0,0.0,0.0,0.0,0.0,0.0,0.0,0.0,0.0,0.0,0.0,0.0,0.0,0.0,0.0,0.0,0.0,0.0,0.0,0.0,0.0,0.0,0.0,0.0,0.0,0.0,0.0,0.0,0.0,0.0,0.0,0.0,0.0,0.0,0.0,0.0,0.0,0.0,0.0,0.0,0.0,0.0,0.0,0.0,0.0,0.0,0.0,0.0,0.0,0.0,0.0,0.0,0.0,0.0,0.0,0.0,0.0,0.0,0.0,0.0,0.0,0.0,0.0,0.0,0.0,0.0,0.0,0.0,0.0,0.0,0.0,0.0,0.0,0.0,0.0,0.0,0.0,0.0,0.0,0.0,0.0,0.0,0.0,0.0,0.0,0.0,0.0,0.0,0.0,0.0,0.0,0.0,0.0,0.0,0.0,0.0,0.0,0.0,0.0,0.0,0.0,0.0,0.0,0.0,0.0,0.0,0.0,0.0,0.0,0.0,0.0,0.0,0.0,0.0,0.0,0.0,0.0,0.0,0.0,0.0,0.0,0.0,0.0,0.0,0.0,0.0,0.0,0.0,0.0,0.0,0.0,0.0,0.0,0.0,0.0,0.0,0.0,0.0,0.0,0.0,0.0,0.0,0.0,0.0,0.0,0.0,0.0,0.0,0.0,0.0,0.0,0.0,0.0,0.0,0.0,0.0,0.0,0.0,0.0,0.0,0.0,0.0,0.0,0.0,0.0,0.0,0.0,0.0,0.0,0.0,0.0,0.0,0.0,0.0,0.0,0.0,0.0,0.0,0.0,0.0,0.0,0.0,0.0,0.0,0.0,0.0,0.0,0.0,0.0,0.0,0.0,0.0,0.0,0.0,0.0,0.0,0.0,0.0,0.0,0.0,0.0,0.0,0.0,0.0,0.0,0.0,0.0,0.0,0.0,0.0,0.0,0.0,0.0,0.0,0.0,0.0,0.0,0.0,0.0,0.0,0.0,0.0,0.0,0.0,0.0,0.0,0.0,0.0,0.0,0.0,0.0,0.0,0.0,0.0,0.0,0.0,0.0,0.0,0.0,0.0,0.0,0.0,0.0,0.0,0.0,0.0,0.0,0.0,0.0,0.0,0.0,0.0,0.0,0.0,0.0,0.0,0.0,0.0,0.0,0.0,0.0,0.0,0.0,0.0,0.0,0.0,0.0,0.0,0.0,0.0,0.0,0.0,0.0,0.0,0.0,0.0,0.0,-2.2391,0.0,0.0,0.0,0.0,0.0,0.0,0.0,0.0,0.0,0.0,0.0,0.0,0.0,0.0,0.0,0.0,0.0,0.0,0.0,0.0,0.0,0.0,0.0,0.0,0.0,0.0,0.0,0.0,0.0,0.0,0.0,0.0,0.0,0.0,0.0,0.0,0.0,0.0,0.0,0.0,0.0,0.0,0.0,0.0,0.0,0.0,0.0,0.0,0.0,0.0,0.0,0.0,0.0,0.0,0.0,0.0,0.0,0.0,0.0,0.0,0.0,0.0,0.0,0.0,0.0,0.0,0.0,0.0,0.0,0.0,0.0,0.0,0.0,0.0,0.0,0.0,0.0,0.0,0.0,0.0,0.0,0.0,0.0,0.0,0.0,0.0,0.0,0.0,0.0,0.0,0.0,0.0,0.0,0.0,0.0,0.0,0.0,0.0,0.0,0.0,0.0,0.0,0.0,0.0,0.0,0.0,0.0,0.0,0.0,0.0,0.0,0.0,0.0,0.0,0.0,0.0,-2.3074,0.0,0.0,0.0,0.0,0.0,0.0,0.0,0.0,0.0,0.0,0.0,0.0,0.0,0.0,0.0,0.0,0.0,0.0,0.0,0.0,0.0,0.0,0.0,0.0,0.0,0.0,0.0,0.0,0.0,0.0,0.0,0.0,0.0,0.0,0.0,0.0,0.0,0.0,0.0,0.0,0.0,0.0,0.0,0.0,0.0,0.0,0.0,0.0,0.0,0.0,0.0,0.0,0.0,0.0,0.0,0.0,0.0,0.0,0.0,0.0,0.0,0.0,0.0,0.0,0.0,0.0,0.0,0.0,0.0,0.0,0.0,0.0,0.0,0.0,0.0,0.0,0.0,0.0,0.0,0.0,0.0,0.0,0.0,0.0,0.0,0.0,0.0,0.0,0.0,0.0,0.0,0.0,0.0,0.0,0.0,0.0,0.0,0.0,0.0,0.0,0.0,0.0,0.0,0.0,0.0,0.0,0.0,0.0,-2.452,-2.4237,-2.3795,-2.4275,-2.4218,-2.3813,-2.4085,-2.3502,-2.2411,-2.2842,0.0,0.0,0.0,0.0,0.0,0.0,0.0,0.0,0.0,0.0,0.0,0.0,0.0,0.0,0.0,0.0,0.0,0.0,0.0,0.0,0.0,0.0,0.0,0.0,0.0,0.0,0.0,0.0,0.0,0.0,0.0,0.0,0.0,0.0,0.0,0.0,0.0,0.0,-2.0158,-2.0966,-2.1293,-2.1158,-2.0639,0.0,0.0,0.0,0.0,0.0,0.0,0.0,0.0,0.0,0.0,0.0,0.0,0.0,0.0,0.0,0.0,0.0,0.0,0.0,0.0,0.0,0.0,0.0,0.0,0.0,0.0,0.0,0.0,0.0,0.0,0.0,0.0,0.0,0.0,0.0,0.0,0.0,0.0,0.0,0.0,0.0,0.0,0.0,-2.3687,-2.3052,0.0,0.0,0.0,0.0,0.0,0.0,0.0,0.0,0.0,0.0,0.0,0.0,0.0,-2.4671,-2.5111,-2.5201,-2.5585,-2.6282,-2.5805,-2.5069,-2.4169,-2.5142,-2.5051,-2.4224,-2.5596,0.0,-2.352,-2.3993,0.0,0.0,0.0,0.0,0.0,0.0,0.0,0.0,0.0,0.0,0.0,0.0,0.0,0.0,0.0,0.0,0.0,0.0,0.0,0.0,0.0,0.0,0.0,0.0,0.0,0.0,0.0,0.0,0.0,0.0,0.0,0.0,0.0,0.0,0.0,0.0,-2.0242,-2.0619,-2.0985,-2.1831,-2.2485,-2.2928,-2.215,-2.1999,-2.2361,-2.2845,0.0,0.0,0.0,0.0,0.0,0.0,0.0,0.0,0.0,0.0,0.0,0.0,0.0,0.0,0.0,0.0,0.0,0.0,0.0,0.0,0.0,0.0,0.0,0.0,0.0,0.0,0.0,0.0,0.0,0.0,0.0,0.0,0.0,0.0,0.0,0.0,0.0,0.0,0.0,-2.4485,-2.4466,-2.3629,-2.4582,-2.5149,0.0,0.0,0.0,0.0,0.0,0.0,0.0,0.0,0.0,-2.5669,-2.6113,-2.6257,-2.608,-2.6374,-2.6392,-2.6172,-2.7145,-2.7365,-2.6924,-2.7383,-2.7346,-2.6943,-2.7658,-2.7812,-2.7442,-2.5487,-2.4277,-2.3586,0.0,0.0,0.0,0.0,-2.2564,-2.2919,0.0,0.0,0.0,0.0,0.0,0.0,0.0,0.0,0.0,0.0,0.0,0.0,0.0,0.0,0.0,-1.623,0.0,0.0,0.0,0.0,0.0,0.0,0.0,0.0,0.0,0.0,0.0,0.0,-2.1427,-2.2043,-2.2485,-2.3351,-2.4235,-2.5053,-2.4457,-2.3744,-2.3028,-2.3244,-2.3657,0.0,0.0,0.0,0.0,0.0,0.0,0.0,0.0,0.0,0.0,0.0,0.0,0.0,0.0,0.0,0.0,0.0,0.0,0.0,0.0,0.0,0.0,0.0,0.0,0.0,0.0,0.0,0.0,0.0,0.0,0.0,0.0,0.0,0.0,0.0,0.0,0.0,0.0,-2.462,-2.4697,-2.3879,-2.4678,-2.5207,0.0,0.0,0.0,0.0,0.0,0.0,-2.619,-2.6274,-2.6618,-2.729,-2.7831,-2.7824,-2.7236,-2.7622,-2.7622,-2.7255,-2.8851,-2.9843,-3.0228,-2.9806,-2.9843,-3.0228,-2.9806,-3.0136,-3.076,-2.7341,-2.5613,-2.502,-2.3827,-2.3215,-2.3022,-2.3022,-2.3413,-2.3998,0.0,0.0,0.0,0.0,0.0,0.0,0.0,0.0,0.0,0.0,0.0,0.0,0.0,0.0,-1.7078,-1.7913,-1.8892,-1.9195,0.0,0.0,0.0,0.0,0.0,0.0,0.0,0.0,0.0,-2.1446,-2.2312,-2.3543,-2.513,-2.6005,-2.6871,-2.7698,-2.7659,-2.7248,-2.6439,-2.4893,-2.5234,-2.6738,0.0,0.0,0.0,0.0,0.0,0.0,0.0,0.0,0.0,0.0,0.0,0.0,0.0,0.0,0.0,0.0,0.0,0.0,0.0,0.0,0.0,0.0,0.0,0.0,0.0,0.0,0.0,0.0,0.0,0.0,0.0,0.0,0.0,0.0,0.0,0.0,0.0,0.0,0.0,-2.2966,-2.4312,0.0,0.0,0.0,0.0,-2.6238,-2.7292,-2.8053,-2.8423,-2.8678,-2.8953,-2.9247,-2.9045,-2.892,-2.8865,-2.8902,-2.9659,-3.1109,-3.1219,-3.2082,-3.3513,-3.1971,-3.21,-3.3476,-3.1935,-3.1586,-3.1935,-2.9709,-2.8153,-2.7001,-2.5619,-2.5037,-2.4958,-2.4958,-2.518,-2.5554,0.0,0.0,0.0,0.0,0.0,0.0,0.0,0.0,0.0,0.0,0.0,0.0,0.0,-1.6725,-1.7693,-1.9676,-2.0159,-2.0358,-2.0291,0.0,0.0,0.0,0.0,0.0,0.0,0.0,-2.2601,-2.3167,-2.4005,-2.5005,-2.6159,-2.7024,-2.7871,-2.8659,-2.8659,-2.8863,-2.9028,-2.6786,-2.5944,-2.6016,-2.5156,-2.5156,0.0,0.0,0.0,0.0,0.0,0.0,0.0,0.0,0.0,0.0,0.0,0.0,0.0,0.0,0.0,0.0,0.0,0.0,0.0,0.0,0.0,0.0,0.0,0.0,0.0,0.0,0.0,0.0,0.0,0.0,0.0,0.0,0.0,0.0,0.0,0.0,0.0,-2.612,-2.7563,0.0,-2.8179,-2.8511,-2.8987,-2.9541,-2.9867,-3.0297,-3.0951,-3.1073,-3.1147,-3.1186,-3.2159,-3.2135,-3.1068,-3.1732,-3.2158,-3.2311,-3.4226,-3.5293,-3.5569,-3.4782,-3.4766,-3.5312,-3.366,-3.3054,-3.339,-3.5528,-3.3417,-2.8732,-2.7705,-2.7207,-2.7038,-2.7038,-2.7419,-2.7892,0.0,0.0,0.0,0.0,0.0,0.0,0.0,0.0,0.0,0.0,0.0,-1.5405,-1.6743,-1.7624,-1.9037,-2.135,-2.1336,-2.1432,-2.2019,0.0,0.0,0.0,0.0,0.0,0.0,-2.3351,-2.3928,-2.4505,-2.5332,-2.6332,-2.7467,-2.8332,-2.9179,-2.9987,-3.0256,-3.0725,-3.1212,-2.9506,-2.8034,-2.6782,-2.5952,-2.6152,-2.6777,0.0,0.0,0.0,0.0,0.0,0.0,0.0,0.0,0.0,0.0,0.0,0.0,0.0,0.0,0.0,0.0,0.0,0.0,0.0,0.0,0.0,0.0,0.0,0.0,0.0,0.0,0.0,0.0,0.0,0.0,0.0,0.0,0.0,0.0,0.0,-2.8525,-2.9102,-3.041,-3.1237,-3.1237,-3.1392,-3.1722,-3.2297,-3.2648,-3.302,-3.3356,-3.3507,-3.3677,-3.3875,-3.4434,-3.4432,-3.3885,-3.4591,-3.5105,-3.542,-3.6859,-3.7599,-3.76,-3.6823,-3.6702,-3.7066,-3.6385,-3.6077,-3.6235,-3.8663,-3.673,-3.2145,-3.1085,-3.0235,-2.9565,-2.9268,-2.9492,-2.9923,0.0,0.0,0.0,0.0,0.0,0.0,0.0,0.0,0.0,0.0,-1.4694,-1.6022,-1.6853,-1.9054,-2.1161,-2.285,-2.2342,-2.2361,-2.3404,-2.2087,0.0,0.0,0.0,0.0,-2.2889,-2.4466,-2.5303,-2.5341,-2.6236,-2.7505,-2.9121,-3.0025,-3.0891,-3.1737,-3.2602,-3.2968,-3.2949,-3.3026,-3.1686,-2.9421,-2.8571,-2.873,-2.9199,0.0,0.0,0.0,0.0,0.0,0.0,0.0,0.0,0.0,0.0,0.0,0.0,0.0,0.0,0.0,0.0,0.0,0.0,0.0,0.0,0.0,0.0,0.0,0.0,0.0,0.0,0.0,0.0,0.0,0.0,0.0,0.0,0.0,-2.8082,-2.8736,-2.9929,-3.1621,-3.2545,-3.3064,-3.3064,-3.3814,-3.4334,-3.4353,-3.5618,-3.616,-3.5628,-3.5988,-3.6516,-3.7243,-3.5664,-3.5584,-3.7175,-3.727,-3.8366,-4.0431,-3.903,-3.8798,-3.9509,-3.7986,-3.7828,-3.8822,-4.0004,-4.0489,-4.0354,-3.8738,-3.7766,-3.7139,-3.5647,-3.4067,-3.2533,-3.1771,-3.1483,-3.1622,0.0,0.0,0.0,0.0,0.0,0.0,0.0,0.0,0.0,0.0,-1.4694,-1.6224,-1.7619,-1.8886,-2.0599,-2.3,-2.1272,-2.084,-2.2726,0.0,0.0,0.0,0.0,0.0,-2.4601,-2.5053,-2.561,-2.6236,-2.7698,-2.864,-2.9121,-3.0641,-3.1468,-3.1795,-3.3872,-3.443,-3.3949,-3.5815,-3.5507,-3.3506,-3.0298,-2.8851,-2.8418,0.0,0.0,0.0,0.0,0.0,0.0,0.0,0.0,0.0,0.0,0.0,0.0,0.0,0.0,0.0,0.0,0.0,0.0,0.0,0.0,0.0,0.0,0.0,0.0,0.0,0.0,0.0,0.0,0.0,0.0,0.0,0.0,-2.9967,-2.9737,-3.2045,-3.393,-3.441,-3.5718,-3.6603,-3.6603,-3.6815,-3.7219,-3.7853,-3.8251,-3.8308,-3.7911,-3.823,-3.8405,-3.8354,-3.7916,-3.7526,-3.7185,-3.8791,-3.949,-3.9258,-3.9695,-3.9591,-3.9023,-3.9423,-3.9735,-4.0024,-4.0353,-4.0489,-4.045,-3.9988,-3.973,-3.9387,-3.7376,-3.6156,-3.5488,-3.555,-3.4847,-3.3915,0.0,0.0,0.0,0.0,0.0,0.0,0.0,0.0,0.0,0.0,-1.4492,-1.6059,-1.6995,-1.8115,-1.97,-2.193,-2.0691,-2.0563,-2.2353,0.0,0.0,0.0,0.0,-2.4293,-2.5284,-2.5649,-2.6447,-2.764,-2.8621,-2.9294,-2.9679,-3.141,-3.2199,-3.2314,-3.4872,-3.5718,-3.5372,-3.7219,-3.745,-3.6339,-3.3563,-3.2016,-3.1175,-2.9178,-2.8418,-2.832,-2.7598,-2.7754,-2.8086,-2.666,0.0,0.0,0.0,0.0,0.0,0.0,0.0,0.0,0.0,0.0,0.0,0.0,0.0,0.0,0.0,0.0,0.0,0.0,0.0,0.0,0.0,0.0,0.0,0.0,-3.2185,-3.3718,-3.4083,-3.5526,-3.6949,-3.8007,-3.9315,-4.0142,-4.0142,-4.0142,-4.0354,-4.0854,-4.0893,-4.07,-4.0239,-4.0412,-4.0527,-4.0604,-3.9892,-3.92,-3.8584,-3.9854,-4.0162,-3.9508,-4.0181,-4.0142,-3.9527,-4.02,-4.0489,-4.0489,-4.0489,-4.0489,-4.0489,-4.0489,-4.0489,0.0,0.0,0.0,0.0,0.0,-3.6503,-3.5602,0.0,0.0,0.0,0.0,0.0,0.0,0.0,0.0,0.0,0.0,0.0,-1.5564,-1.5564,-1.6922,-1.8482,-2.0081,-2.0228,-2.0819,0.0,0.0,0.0,-2.312,-2.4428,-2.5245,-2.5437,-2.6294,-2.7525,-2.9102,-2.9198,-2.964,-3.0436,-3.2122,-3.2891,-3.3026,-3.568,-3.6796,-3.6776,-3.7834,-3.8315,-3.83,-3.754,-3.6624,-3.5476,-3.3296,-3.2363,-3.1992,-3.0449,-2.9453,-2.873,-2.7754,0.0,0.0,0.0,0.0,0.0,0.0,0.0,0.0,0.0,0.0,0.0,0.0,0.0,0.0,0.0,0.0,0.0,0.0,0.0,0.0,0.0,0.0,0.0,0.0,-3.6055,-3.8642,-3.97,-3.92,-3.9527,-4.17,-4.2624,-4.3104,-4.3104,-4.3104,-4.3104,-4.3104,-4.3104,-4.2893,-4.2412,0.0,0.0,0.0,0.0,-4.0489,-4.0489,-4.0873,-4.0969,-4.0777,-4.0835,-4.0816,-4.0681,-4.0546,-4.0489,-4.0489,-4.0489,-4.0489,-4.0489,-4.0489,-4.0489,-4.0392,-3.9392,-3.9604,-4.0265,-3.8251,-3.7288,-3.6932,0.0,0.0,0.0,0.0,0.0,0.0,0.0,0.0,0.0,-1.1974,-1.3541,-1.4738,-1.4738,-1.5582,-1.6812,-1.8427,-1.8574,-1.9629,0.0,0.0,-2.3004,-2.4736,-2.4505,-2.4966,-2.6313,-2.7198,-2.8121,-2.9102,-2.9794,-3.0237,-3.0436,-3.2122,-3.2891,-3.3045,-3.6295,-3.7353,-3.6853,-3.9065,-4.0008,-4.0027,-3.9969,-3.8317,-3.5739,-3.4589,-3.332,-3.2168,-3.1816,-3.2012,-3.2187,-3.0664,-3.1035,-3.1758,-2.9531,0.0,0.0,0.0,0.0,0.0,0.0,0.0,0.0,0.0,0.0,0.0,0.0,0.0,0.0,0.0,0.0,0.0,0.0,0.0,0.0,-3.6313,-3.8569,-4.0777,-4.3008,-4.3181,-4.3028,-4.2874,-4.3008,-4.3104,-4.3104,-4.3104,-4.3104,-4.3104,-4.3104,-4.3239,-4.3547,-4.3162,-4.3181,-4.372,-4.1623,-4.0489,-4.0489,-4.3239,-4.3932,-4.2604,0.0,0.0,-4.1835,-4.0912,-4.0489,-4.0489,-4.0489,-4.0489,-4.0489,-4.0489,-4.0489,-4.0469,-4.0258,-4.0296,-4.0434,-3.9776,-3.9089,-3.84,0.0,0.0,0.0,0.0,0.0,0.0,0.0,0.0,0.0,0.0,-1.3628,-1.4653,-1.5068,-1.5454,-1.6353,-1.7968,-1.819,0.0,0.0,-2.2149,-2.2844,-2.462,-2.4697,-2.5293,-2.6563,-2.7448,-2.8294,-2.9102,-2.9967,-3.0609,-3.1083,-3.2314,-3.3122,-3.368,-3.6661,-3.7757,-3.7488,-3.9604,-4.0739,-4.1123,-4.0739,-3.9946,-3.8863,-3.7626,-3.6152,-3.4707,-3.4258,-3.4082,-3.3867,-3.2578,-3.2715,-3.3184,-3.1894,-3.0898,-2.9938,0.0,0.0,0.0,0.0,0.0,0.0,0.0,0.0,0.0,0.0,0.0,0.0,0.0,0.0,-3.179,0.0,0.0,-3.7287,-3.9397,-4.1229,-4.2854,-4.4124,-4.4682,-4.4797,-4.4393,-4.4355,-4.4355,-4.4355,-4.4355,-4.4355,-4.4355,-4.4355,-4.447,-4.4739,-4.4489,-4.447,-4.4739,-4.3643,-4.3047,-4.3047,-4.4182,-4.4605,-4.4335,-4.3758,-4.3335,-4.3028,-4.245,-4.2508,-4.3008,-4.245,-4.1873,-4.1296,-4.0739,-4.0758,-4.1143,-4.1143,-4.0873,-4.0546,-4.0854,-4.0577,-4.01,0.0,0.0,0.0,0.0,0.0,0.0,0.0,0.0,0.0,0.0,-1.3648,-1.4429,-1.516,-1.5337,-1.6198,0.0,0.0,0.0,0.0,-2.2266,-2.2786,-2.4274,-2.4947,-2.5707,-2.6582,-2.7294,-2.8121,-2.9102,-2.9794,-3.0679,-3.1718,-3.2526,-3.3468,-3.4564,-3.693,-3.8084,-3.8354,-4.0027,-4.1162,-4.1739,-4.1066,-4.1312,-4.1943,-4.0467,-3.9035,-3.7676,-3.6621,-3.5586,-3.459,-3.3887,-3.3652,-3.3672,-3.3848,-3.3457,-3.2516,-3.0387,-2.9627,0.0,0.0,0.0,0.0,0.0,0.0,0.0,0.0,0.0,-3.0335,-3.2222,-3.3811,-3.5614,-3.8035,-3.9335,-4.0527,-4.2047,-4.3566,-4.4547,-4.4547,-4.5163,-4.5586,-4.5586,-4.5586,-4.5586,-4.5586,-4.5586,-4.5586,-4.5586,-4.5586,-4.5586,-4.5586,-4.5586,-4.5586,-4.5586,-4.5586,-4.5586,-4.5586,-4.4682,-4.4682,-4.5566,-4.422,-4.3816,-4.422,-4.422,-4.4624,-4.5278,-4.4201,-4.322,-4.2297,-4.1373,-4.1412,-4.203,-4.1978,-4.1553,-4.1085,-4.1797,-4.1871,-4.1685,0.0,0.0,0.0,0.0,0.0,0.0,0.0,0.0,0.0,0.0,0.0,0.0,0.0,0.0,0.0,0.0,0.0,0.0,-2.3048,-2.1486,-2.1799,-2.5034,-2.5245,-2.5707,-2.6582,-2.6697,-2.7525,-2.9102,-2.9198,-3.0083,-3.1718,-3.2526,-3.3776,-3.543,-3.7219,-3.843,-3.9258,-4.095,-4.172,-4.1797,-4.1816,-4.195,-4.1992,-4.1036,-4.0221,-3.9394,-3.7754,-3.6094,-3.4687,-3.459,-3.4551,-3.4687,-3.5469,-3.5644,-3.4922,-3.1618,0.0,-2.9074,-2.7106,-2.715,-2.7838,-2.8248,-2.9093,-3.0528,0.0,0.0,-3.4641,-3.6512,-3.7655,-3.8718,-3.9992,-4.1566,-4.297,-4.3874,-4.4816,-4.5451,-4.5451,-4.5528,-4.5586,-4.5586,-4.5586,-4.5586,-4.5586,-4.5586,-4.5586,-4.5586,-4.5586,-4.5586,-4.5586,-4.5586,-4.5586,-4.5586,-4.5586,-4.5586,-4.5586,-4.547,-4.547,-4.5586,-4.5413,-4.5336,-4.5393,-4.5393,-4.5047,-4.4393,-4.3566,-4.3124,-4.2989,-4.2854,-4.2874,-4.2915,-4.2546,-4.2584,-4.2816,-4.2912,-4.2934,-4.2864,0.0,0.0,0.0,0.0,0.0,0.0,0.0,0.0,0.0,0.0,0.0,0.0,0.0,0.0,0.0,0.0,0.0,0.0,-2.169,-2.071,-2.1309,-2.4309,-2.4985,-2.5457,-2.5851,-2.6351,-2.7198,-2.839,-2.8871,-2.9987,-3.1718,-3.2526,-3.3564,-3.4814,-3.6507,-3.7738,-3.8623,-3.9835,-4.0912,-4.1758,-4.1316,-4.1195,-4.1132,-3.9804,-3.8576,-3.7486,-3.6745,-3.5723,0.0,0.0,-3.3555,-3.4101,-3.4961,-3.4902,-3.4004,-3.1562,-3.0607,0.0,-2.8647,-2.9201,0.0,0.0,-3.2223,-3.428,-3.5621,-3.6692,-3.7912,-3.9684,-4.1121,-4.2328,-4.3297,-4.4047,-4.4662,0.0,-4.5355,-4.5586,-4.5586,-4.5586,-4.5413,-4.4893,-4.5278,-4.5586,-4.5586,-4.5586,-4.5586,-4.5586,-4.5586,-4.5586,-4.5586,-4.5586,-4.5586,-4.5586,-4.5586,-4.5586,-4.5586,-4.5586,-4.5586,-4.5586,-4.5586,-4.5586,-4.5586,-4.5586,-4.5393,-4.5009,-4.4162,-4.4085,-4.447,-4.3508,-4.3374,-4.378,-4.3615,-4.3522,-4.3522,-4.3522,-4.3636,-4.382,0.0,0.0,0.0,0.0,0.0,0.0,0.0,0.0,0.0,0.0,0.0,0.0,0.0,0.0,0.0,0.0,0.0,0.0,0.0,-1.996,-2.0764,-2.3397,-2.4207,-2.4947,-2.563,-2.6274,-2.714,-2.8217,-2.8813,-2.9987,-3.1718,-3.2526,-3.3487,-3.4622,-3.6065,-3.718,-3.8065,-3.8931,-3.9854,-4.0719,-4.0354,-3.999,-3.9491,-3.8033,-3.6516,-3.5149,-3.4905,-3.416,0.0,0.0,-3.1875,-3.2559,-3.3652,-3.373,-3.3066,-3.1387,-3.0529,-3.0016,-2.955,0.0,0.0,-3.2955,-3.5488,-3.7988,-3.8642,-3.995,-4.145,-4.2912,-4.4182,-4.5143,-4.5528,-4.5586,-4.5586,-4.5586,-4.5586,-4.5586,-4.5586,-4.5393,-4.5009,-4.4374,-4.4662,-4.4989,-4.522,-4.5451,-4.5586,-4.5586,-4.5817,-4.5855,-4.5605,-4.5817,-4.5836,-4.5605,-4.5586,-4.5586,-4.5586,-4.5586,-4.5586,-4.5586,-4.5586,-4.5586,-4.5586,-4.5586,-4.5586,-4.5547,-4.4932,-4.5009,-4.5509,-4.4278,-4.4124,-4.4662,-4.4554,-4.4442,-4.4304,-4.4202,-4.4306,-4.4594,0.0,0.0,0.0,0.0,0.0,0.0,0.0,0.0,0.0,0.0,0.0,0.0,0.0,0.0,0.0,0.0,0.0,0.0,0.0,-1.9277,-2.0028,-2.2707,-2.2851,-2.4024,-2.6505,-2.6582,-2.7409,-2.9063,-2.9083,-2.9987,-3.1718,-3.2526,-3.3814,-3.5507,-3.6334,-3.718,-3.8065,-3.8931,-3.8834,-3.82,-3.9089,-3.8454,-3.6911,-3.6009,-3.4725,-3.3263,-3.2413,0.0,0.0,0.0,-2.9707,-3.0019,-3.1738,-3.2793,0.0,-3.1387,-2.9608,-2.8376,0.0,0.0,-3.3662,-3.6136,-3.8681,-4.1197,-4.3528,-4.4759,-4.5663,-4.6567,-4.6797,-4.6567,-4.574,-4.5586,-4.5586,-4.5586,-4.5586,-4.5586,-4.5586,-4.4874,-4.4335,-4.4297,-4.3624,-4.347,0.0,-4.5086,-4.5586,-4.5586,-4.6374,-4.649,-4.5643,-4.6394,-4.6471,-4.5624,-4.5586,-4.5586,-4.5586,-4.5586,-4.5586,-4.5586,-4.5586,-4.5586,-4.5586,-4.5586,-4.5586,-4.5586,-4.5566,-4.5566,-4.5586,-4.5547,-4.5528,-4.553,-4.5204,-4.5264,-4.5512,-4.5184,-4.5058,-4.512,0.0,0.0,0.0,0.0,0.0,0.0,0.0,0.0,0.0,0.0,0.0,0.0,0.0,0.0,0.0,0.0,0.0,0.0,0.0,-1.8384,-1.8884,-2.0862,-2.2142,-2.3197,-2.4062,-2.5178,-2.6294,-2.7448,-2.7448,-2.8044,-2.9198,-3.0006,-3.0679,-3.1314,-3.2756,-3.3833,-3.4661,-3.5545,-3.6392,-3.7065,-3.6276,-3.5622,-3.4911,-3.2955,-3.1205,-2.9674,0.0,0.0,0.0,0.0,0.0,0.0,-2.8555,0.0,-2.916,-2.918,-2.9529,-3.0325,-3.2333,0.0,-3.8723,-4.0602,-4.3043,-4.5274,-4.6528,-4.6644,-4.6547,-4.6836,-4.5566,-4.4297,-4.3989,-4.3932,-4.3951,-4.3987,-4.4987,-4.5738,-4.5738,-4.5488,-4.5047,-4.4374,-4.4566,0.0,0.0,0.0,0.0,-4.5547,-4.6413,-4.6778,-4.649,-4.7259,-4.7567,-4.7278,-4.674,-4.6471,-4.6471,-4.5893,-4.5586,-4.5586,-4.5586,-4.5586,-4.5586,-4.5586,-4.5586,-4.5586,-4.5586,-4.5586,-4.5586,-4.5586,-4.5586,-4.5586,-4.5476,-4.5362,-4.5263,-4.54,-4.5302,-4.5159,0.0,0.0,0.0,0.0,0.0,0.0,0.0,0.0,0.0,0.0,0.0,0.0,0.0,0.0,0.0,0.0,0.0,0.0,0.0,0.0,-1.8248,-1.9579,-2.1105,-2.2466,-2.3678,-2.4755,-2.589,-2.7063,-2.6755,-2.689,-2.7448,-2.7967,-2.8198,-2.8275,-2.9698,-3.0621,-3.1141,-3.1698,-3.2564,-3.3487,-3.2699,-3.2199,-3.1775,-3.0175,-2.8728,0.0,0.0,0.0,0.0,0.0,0.0,0.0,0.0,-2.6953,-2.7695,-2.8887,-3.0391,-3.2458,-3.5997,-3.9124,-4.1921,-4.4093,-4.6167,-4.7758,-4.8105,-4.7817,-4.7221,-4.6261,-4.4552,-4.3032,-4.2393,-4.1761,-4.1665,-4.2646,-4.3505,-4.4317,-4.5214,-4.506,-4.4722,-4.4355,-4.4778,-4.5028,0.0,0.0,0.0,-4.5547,-4.6663,-4.7201,-4.6932,-4.7971,-4.8413,-4.8105,-4.7413,-4.7009,-4.6913,-4.6028,-4.5586,-4.5586,-4.5586,-4.5586,-4.5586,-4.5586,-4.5586,-4.5586,-4.5586,-4.5586,-4.5586,-4.5586,-4.5586,-4.5586,-4.5586,-4.5476,-4.5302,-4.5513,-4.5457,-4.5322,0.0,0.0,0.0,0.0,0.0,0.0,0.0,0.0,0.0,0.0,0.0,0.0,0.0,0.0,0.0,0.0,0.0,0.0,0.0,0.0,0.0,-1.8895,-1.9773,-2.1735,-2.4976,-2.513,-2.5976,-2.764,-2.6851,-2.6456,-2.6456,-2.6524,-2.6533,-2.6553,-2.7448,-2.7832,-2.7832,-2.7871,-2.7909,-2.8025,-2.8698,-2.8544,-2.789,-2.7794,0.0,0.0,0.0,0.0,0.0,0.0,0.0,0.0,0.0,0.0,-2.8906,-3.0644,-3.2402,-3.4863,-3.9941,-4.1998,-4.3442,-4.6562,-4.8077,-4.8741,-4.8451,-4.8373,-4.7643,-4.5071,-4.375,-4.2558,0.0,0.0,-3.9019,-4.1579,-4.1429,-4.1849,-4.43,-4.394,-4.3669,0.0,0.0,0.0,0.0,0.0,0.0,-4.572,0.0,-4.7798,-4.7067,-4.8586,-4.9086,-4.8259,-4.7702,-4.7259,-4.6971,-4.6047,-4.5586,-4.5586,-4.5586,-4.5586,-4.5586,-4.5586,-4.5586,-4.5586,-4.5586,-4.5586,-4.5586,-4.5586,-4.5586,-4.5586,-4.5586,-4.5586,-4.5586,-4.5586,-4.5586,-4.5586,0.0,0.0,0.0,0.0,0.0,0.0,0.0,0.0,0.0,0.0,0.0,0.0,0.0,0.0,0.0,0.0,0.0,0.0,0.0,0.0,0.0,0.0,0.0,0.0,0.0,0.0,0.0,0.0,0.0,-2.4506,-2.4522,-2.5282,-2.555,-2.5451,-2.6483,-2.6928,-2.6967,-2.7621,-2.8255,-2.8698,0.0,-2.7505,-2.7755,0.0,0.0,0.0,0.0,0.0,0.0,0.0,0.0,0.0,0.0,0.0,-3.2441,-3.4199,-3.7246,-4.0527,-4.2519,-4.5562,-4.8365,-4.9107,-4.9923,-5.0353,-4.9588,-4.7939,-4.6014,-4.411,-4.1006,-3.8302,0.0,0.0,0.0,-4.0092,-4.2256,0.0,-4.6238,-4.6317,0.0,0.0,0.0,-4.7221,-4.7432,-4.7451,0.0,0.0,-4.7855,-4.8298,-4.874,-4.9779,-5.026,-5.0029,-4.926,-4.8509,-4.7798,-4.6336,-4.5586,-4.5586,-4.5586,-4.5586,-4.5586,-4.5586,-4.5586,-4.5586,-4.5586,-4.5586,-4.5586,-4.5586,-4.5586,-4.5586,-4.5586,-4.5586,-4.5586,-4.5586,-4.5586,-4.5586,0.0,0.0,0.0,0.0,0.0,0.0,0.0,0.0,0.0,0.0,0.0,0.0,0.0,0.0,0.0,0.0,0.0,0.0,0.0,0.0,0.0,0.0,0.0,0.0,0.0,0.0,0.0,0.0,0.0,0.0,0.0,-2.2728,-2.2959,-2.2967,-2.3928,-2.437,-2.4428,-2.5293,0.0,0.0,0.0,0.0,0.0,0.0,0.0,0.0,0.0,0.0,0.0,0.0,0.0,-2.9648,-3.0879,-3.3301,-3.6094,-3.8184,0.0,-4.4473,-4.6113,-4.8594,-5.0683,-5.0566,-5.0639,-5.0212,-4.8095,-4.6212,-4.3914,-4.031,-3.7678,0.0,0.0,0.0,0.0,0.0,0.0,0.0,-4.6251,-4.6646,-4.7146,0.0,-4.9009,0.0,-4.974,-4.9779,-4.9779,0.0,-4.9086,-4.8875,-4.9375,-5.0221,-5.0702,-5.0702,-5.0221,-4.949,-4.849,-4.6567,-4.5586,-4.5586,-4.5586,-4.5586,-4.5586,-4.5586,-4.5586,-4.5586,0.0,-4.5586,-4.5586,-4.5586,-4.5586,-4.5586,-4.5586,-4.5586,-4.5586,-4.5586,-4.5586,-4.5586,0.0,0.0,0.0,0.0,0.0,0.0,0.0,0.0,0.0,0.0,0.0,0.0,0.0,0.0,0.0,0.0,0.0,0.0,0.0,0.0,0.0,0.0,0.0,0.0,0.0,0.0,0.0,0.0,0.0,0.0,0.0,0.0,0.0,0.0,0.0,0.0,0.0,0.0,0.0,0.0,0.0,0.0,0.0,0.0,0.0,0.0,0.0,0.0,0.0,0.0,-3.0364,-3.1562,-3.3496,-3.6562,-3.9902,-4.2246,-4.4844,-4.7461,-4.9746,-5.0957,-5.1523,-5.1289,-5.0625,-4.9079,-4.5465,-4.3782,-4.1384,-3.5683,0.0,-3.3711,-3.2148,0.0,-3.4531,-3.8027,0.0,-4.1472,-4.551,-4.6171,-4.7031,-4.9163,-5.026,-5.1125,-5.1837,-5.201,-5.2087,-5.2087,-5.0741,-4.9817,-4.9586,-5.0279,-5.0702,-5.0702,-5.0548,-5.001,-4.9048,-4.6971,-4.5893,-4.5817,-4.5817,-4.574,-4.5605,-4.5759,-4.599,-4.624,-4.5797,0.0,-4.5586,-4.5586,-4.5586,-4.5586,-4.5586,-4.5663,-4.5759,-4.5624,-4.5663,-4.5759,0.0,0.0,0.0,0.0,0.0,0.0,0.0,0.0,0.0,0.0,-1.0194,0.0,0.0,0.0,0.0,0.0,0.0,0.0,0.0,0.0,0.0,0.0,0.0,0.0,0.0,0.0,0.0,0.0,0.0,0.0,0.0,0.0,0.0,0.0,0.0,0.0,0.0,0.0,0.0,0.0,0.0,0.0,0.0,0.0,0.0,0.0,0.0,0.0,0.0,0.0,-3.1699,-3.3516,-3.6699,-4.0547,-4.4121,-4.5273,-4.7949,-5.0605,-5.1074,-5.1816,-5.2305,-5.1543,-5.0234,-4.8192,-4.4614,-4.1518,0.0,0.0,0.0,-3.1172,-3.0234,-3.1894,0.0,-3.8027,0.0,0.0,0.0,0.0,-4.8395,0.0,0.0,0.0,0.0,0.0,0.0,0.0,0.0,-5.1933,-5.0548,-5.0606,-5.0702,-5.0702,-4.9779,-4.9298,-4.9336,-4.8221,-4.7432,-4.7009,-4.7009,-4.6509,-4.5624,-4.6567,-4.8029,-4.9644,-4.6817,0.0,-4.5586,-4.5586,-4.5586,-4.5586,-4.5586,-4.6028,-4.6586,-4.5874,-4.6067,-4.6567,0.0,0.0,0.0,0.0,0.0,0.0,0.0,0.0,0.0,-1.0807,-1.0476,-1.0344,0.0,0.0,0.0,0.0,0.0,0.0,0.0,0.0,0.0,0.0,0.0,0.0,0.0,0.0,0.0,0.0,0.0,0.0,0.0,0.0,0.0,0.0,0.0,0.0,0.0,0.0,0.0,0.0,0.0,0.0,0.0,0.0,0.0,0.0,0.0,0.0,0.0,0.0,-2.9938,-3.3027,-3.8281,-4.2598,-4.5859,-4.6719,-4.9082,-5.1308,-5.0898,-5.1719,-5.2383,-5.1094,-4.9114,-4.6458,-4.2516,0.0,0.0,0.0,0.0,-2.9336,-2.8984,0.0,0.0,0.0,0.0,0.0,0.0,0.0,0.0,0.0,0.0,0.0,0.0,0.0,0.0,0.0,0.0,-5.2645,-5.1395,-5.0933,-5.0702,-5.0702,-5.0164,-4.9952,-5.0067,-4.9067,-4.8509,-4.8394,-4.824,-4.7721,-4.6894,-4.6547,-4.7009,-4.7952,-4.6297,0.0,-4.5586,-4.5586,-4.5586,-4.5643,-4.6105,-4.6528,-4.6855,-4.6432,-4.6547,-4.6778,0.0,0.0,0.0,0.0,0.0,0.0,0.0,-1.0061,-1.0371,-1.1123,-1.0626,-1.019,-1.0206,-1.1425,-1.2328,0.0,0.0,0.0,0.0,0.0,0.0,0.0,0.0,0.0,0.0,0.0,0.0,0.0,0.0,0.0,0.0,0.0,0.0,0.0,0.0,0.0,0.0,0.0,0.0,0.0,0.0,0.0,0.0,0.0,0.0,0.0,0.0,0.0,0.0,0.0,-2.7519,-3.0859,-3.7051,-4.1973,-4.5605,-4.6289,-4.8691,-5.1035,-5.0586,-5.1543,-5.2305,-5.0625,-4.8039,-4.4819,-4.0479,-3.664,0.0,0.0,-2.804,-2.7932,-2.7991,0.0,0.0,0.0,0.0,0.0,0.0,0.0,0.0,0.0,0.0,0.0,0.0,0.0,0.0,0.0,0.0,0.0,-5.1702,-5.1029,-5.0702,-5.0702,-5.0702,-5.0702,-5.0702,-4.9798,-4.9471,-4.9683,-4.9452,-4.9125,-4.8606,-4.7278,-4.6278,-4.5605,-4.597,0.0,0.0,-4.5586,-4.5586,-4.5663,-4.6355,-4.674,-4.6894,-4.6701,-4.674,-4.6778,0.0,0.0,0.0,0.0,0.0,0.0,0.0,-1.0061,-1.0156,-1.0294,-1.0252,-1.019,-1.0206,-1.0332,-1.075,0.0,0.0,0.0,0.0,0.0,0.0,0.0,0.0,0.0,0.0,0.0,0.0,0.0,0.0,0.0,0.0,0.0,0.0,0.0,0.0,0.0,0.0,0.0,0.0,0.0,0.0,0.0,0.0,0.0,0.0,0.0,0.0,0.0,0.0,0.0,0.0,-2.6836,-3.0644,-3.6875,-4.2773,-4.2851,0.0,0.0,-5.1113,-5.1973,-5.2305,-5.0625,-4.7636,-4.3957,-3.9536,0.0,0.0,0.0,-2.7538,-2.7015,-2.7034,-2.8531,0.0,0.0,0.0,0.0,0.0,0.0,0.0,0.0,0.0,0.0,0.0,0.0,0.0,0.0,0.0,0.0,-5.0894,-5.0741,-5.0702,-5.0702,-5.0702,-5.0702,-5.0702,-5.0587,-5.0548,-5.0567,-5.0548,-5.051,-5.0452,-5.0298,-4.8529,-4.5682,-4.7201,0.0,0.0,-4.5586,-4.5586,-4.5605,-4.5682,-4.6201,-4.6797,-4.6009,-4.622,-4.6778,0.0,0.0,0.0,0.0,0.0,0.0,0.0,-1.0006,-1.0319,-1.1123,-1.0624,-0.9823,-0.8814,-0.9629,-1.0596,0.0,0.0,0.0,0.0,0.0,0.0,0.0,0.0,0.0,0.0,0.0,0.0,0.0,0.0,0.0,0.0,0.0,0.0,0.0,0.0,0.0,0.0,0.0,0.0,0.0,0.0,0.0,0.0,0.0,0.0,0.0,0.0,0.0,0.0,0.0,0.0,0.0,-2.7324,-3.1328,0.0,0.0,-4.3086,-4.5918,-4.7812,-4.9726,-5.0781,-4.9062,-4.595,-4.2319,-3.8486,0.0,0.0,-2.7733,-2.6618,-2.6172,-2.6795,-2.7862,-2.93,0.0,0.0,0.0,0.0,0.0,0.0,0.0,0.0,0.0,0.0,0.0,0.0,0.0,0.0,0.0,-5.0779,-5.0702,-5.0702,-5.0702,-5.0702,-5.0702,-5.0702,-5.0702,-5.0702,-5.0702,-5.0702,-5.0702,-5.0702,-5.0702,-4.8817,-4.5624,-4.6297,0.0,0.0,-4.5586,-4.5586,-4.5643,-4.6182,-4.6586,-4.6855,-4.6509,-4.6605,-4.6778,0.0,0.0,0.0,0.0,0.0,0.0,-0.9881,-0.9965,-1.0335,-1.1258,-1.0094,-0.8745,-0.7553,-0.9138,-1.0501,-1.1069,0.0,0.0,0.0,0.0,0.0,0.0,0.0,0.0,0.0,0.0,0.0,-1.5308,0.0,0.0,0.0,0.0,0.0,0.0,0.0,0.0,0.0,0.0,0.0,0.0,0.0,0.0,0.0,0.0,0.0,0.0,0.0,0.0,0.0,0.0,0.0,0.0,0.0,0.0,0.0,0.0,-3.9336,-4.2168,-4.4512,-4.7246,-4.9062,-4.7598,-4.4325,-4.0655,0.0,0.0,0.0,-2.7071,-2.6073,-2.5671,-2.6361,-2.716,-2.8151,-2.9506,0.0,0.0,0.0,0.0,0.0,0.0,0.0,0.0,0.0,0.0,0.0,0.0,0.0,0.0,-5.1125,-5.0818,-5.0702,-5.0702,-5.0702,-5.0567,-5.0317,-5.0567,-5.0433,-4.9933,-5.0183,-5.026,-5.0202,-5.0548,-4.8817,-4.5586,-4.5586,0.0,0.0,-4.5586,-4.5586,-4.5663,-4.6278,-4.6528,-4.6528,-4.6528,-4.6528,-4.6432,0.0,0.0,0.0,0.0,0.0,0.0,0.0,-0.9965,-1.0034,-1.0109,-0.8194,-0.682,-0.6811,-0.8838,-1.0194,-1.0218,0.0,0.0,0.0,0.0,0.0,0.0,0.0,0.0,0.0,0.0,-1.5305,-1.5307,-1.5231,-1.5195,0.0,0.0,0.0,0.0,0.0,0.0,0.0,0.0,0.0,0.0,0.0,0.0,0.0,0.0,0.0,0.0,0.0,0.0,0.0,0.0,0.0,0.0,0.0,0.0,0.0,0.0,-3.5234,-4.0293,-4.1973,-4.498,-4.7422,-4.6523,-4.3046,-3.9112,0.0,0.0,0.0,-2.6976,-2.617,-2.5588,-2.552,-2.6237,-2.7055,-2.7804,-2.9371,0.0,0.0,0.0,0.0,0.0,0.0,0.0,0.0,0.0,0.0,0.0,0.0,0.0,-5.1895,-5.1125,-5.0702,-5.0702,-5.0702,-5.0279,-4.9413,-5.026,-4.9817,-4.8144,-4.899,-4.926,-4.9048,-5.0183,-4.8817,-4.5586,0.0,0.0,0.0,-4.5586,-4.5586,-4.5586,-4.5605,-4.5605,-4.5605,-4.5605,-4.5605,-4.5605,0.0,0.0,0.0,0.0,0.0,0.0,0.0,-0.9916,-0.9976,-1.0082,-0.8175,-0.7377,-0.8892,-0.9736,-1.0188,-1.0145,0.0,0.0,0.0,0.0,0.0,0.0,0.0,0.0,0.0,0.0,-1.5031,-1.5036,-1.5105,-1.5121,-1.5121,-1.5241,0.0,0.0,0.0,0.0,0.0,0.0,0.0,0.0,0.0,0.0,0.0,0.0,0.0,0.0,0.0,0.0,0.0,0.0,0.0,0.0,0.0,0.0,0.0,0.0,0.0,0.0,-3.6504,-3.8809,-4.0351,-3.9473,-3.7256,-3.4775,-3.2774,0.0,-2.6919,-2.6072,-2.5672,-2.5472,-2.5561,-2.6171,-2.6939,-2.7834,-2.9352,0.0,0.0,0.0,0.0,0.0,0.0,0.0,0.0,0.0,0.0,0.0,0.0,0.0,-5.1933,-5.1144,-5.0702,-5.0702,-5.0106,-4.9683,-4.9394,-4.9086,-4.8644,-4.8105,-4.8798,-4.9067,-4.9029,-5.0164,-4.9452,0.0,0.0,0.0,0.0,-4.5586,-4.5586,-4.5586,-4.5586,-4.5586,-4.5586,-4.5586,-4.5586,-4.5586,0.0,0.0,0.0,0.0,0.0,0.0,0.0,-0.9944,-0.9971,-1.0044,-0.8888,-0.8575,-0.994,-1.0156,-1.0163,-1.0114,0.0,0.0,0.0,0.0,0.0,0.0,0.0,0.0,0.0,-1.4128,-1.4576,-1.495,-1.5023,-1.5095,-1.5132,-1.5172,-1.5197,-1.5191,0.0,0.0,0.0,0.0,0.0,0.0,0.0,0.0,-1.9805,0.0,0.0,0.0,0.0,0.0,0.0,0.0,0.0,0.0,0.0,0.0,0.0,0.0,-2.6786,0.0,0.0,-3.4677,-3.6103,-3.5576,-3.3808,0.0,0.0,0.0,-2.6034,-2.556,-2.543,-2.544,-2.552,-2.5866,-2.6544,-2.7766,-2.8794,0.0,0.0,0.0,0.0,0.0,0.0,0.0,0.0,0.0,0.0,0.0,0.0,0.0,-5.1491,-5.0664,-5.0202,-5.0202,-4.9683,-4.924,-4.8913,-4.8375,-4.7778,-4.7163,-4.7875,-4.8029,-4.774,-4.8452,-4.8182,0.0,0.0,0.0,0.0,-4.5586,-4.5586,-4.5586,-4.5586,-4.5586,-4.5586,-4.5586,-4.5586,-4.5586,0.0,0.0,0.0,0.0,0.0,0.0,0.0,0.0,0.0,0.0,-1.0044,-1.009,-1.0113,-1.0156,-1.0169,0.0,0.0,0.0,0.0,0.0,0.0,0.0,0.0,0.0,0.0,-1.3459,-1.3925,-1.4794,-1.4859,-1.4964,-1.5069,-1.5071,-1.5072,-1.5068,-1.5031,0.0,0.0,0.0,0.0,0.0,0.0,0.0,0.0,0.0,0.0,0.0,0.0,0.0,0.0,0.0,0.0,0.0,0.0,0.0,0.0,0.0,0.0,0.0,0.0,0.0,0.0,0.0,0.0,0.0,0.0,0.0,0.0,-2.5394,-2.5395,-2.5418,-2.5486,-2.5447,-2.5967,-2.7717,-2.8044,0.0,0.0,0.0,0.0,0.0,0.0,0.0,0.0,0.0,0.0,0.0,0.0,0.0,-5.0702,-4.9875,-4.9375,-4.9317,-4.924,-4.8836,-4.8029,-4.8009,-4.7201,-4.5605,-4.6413,-4.6374,-4.5586,-4.5586,-4.5586,0.0,0.0,0.0,0.0,-4.5586,-4.5586,-4.5586,-4.5586,-4.5586,-4.5586,-4.5586,-4.5586,-4.5586,0.0,0.0,0.0,0.0,0.0,0.0,0.0,0.0,0.0,0.0,-1.0001,-1.0052,-1.0171,-1.0194,-1.0188,0.0,0.0,0.0,0.0,0.0,0.0,0.0,0.0,0.0,0.0,-1.2087,-1.2558,-1.2789,-1.3559,-1.3909,-1.3936,-1.5283,-1.5879,-1.5856,-1.6091,-1.6508,0.0,0.0,0.0,0.0,0.0,0.0,0.0,0.0,0.0,0.0,-1.8825,-1.9176,0.0,0.0,0.0,0.0,0.0,0.0,0.0,0.0,-2.3423,-2.4356,-2.5187,0.0,-2.763,-2.763,0.0,0.0,0.0,0.0,0.0,0.0,0.0,0.0,0.0,0.0,0.0,0.0,0.0,0.0,0.0,0.0,0.0,0.0,0.0,0.0,0.0,0.0,0.0,0.0,0.0,-5.1356,-5.0721,-4.9875,-4.9086,-4.8432,-4.7817,-4.7394,-4.7182,-4.7182,-4.6644,-4.5586,-4.5797,-4.5797,-4.5586,-4.5586,-4.5586,0.0,0.0,0.0,-4.5586,-4.5586,-4.5586,-4.5586,-4.5586,-4.5586,-4.5586,-4.5586,-4.5586,-4.5586,0.0,0.0,0.0,0.0,0.0,0.0,0.0,0.0,0.0,0.0,0.0,0.0,0.0,0.0,0.0,0.0,0.0,0.0,0.0,0.0,0.0,0.0,0.0,-1.0412,-1.0785,-1.1645,-1.2253,-1.2567,-1.3096,-1.3675,-1.4304,-1.5741,-1.6307,-1.6139,-1.6795,-1.7244,0.0,0.0,0.0,0.0,-1.7645,0.0,0.0,0.0,0.0,0.0,-1.868,-1.8594,0.0,-1.947,-2.0063,-2.0525,0.0,0.0,0.0,0.0,-2.2412,-2.3194,-2.3574,-2.4525,-2.5409,-2.5409,-2.539,-2.5341,0.0,0.0,0.0,0.0,0.0,0.0,0.0,0.0,0.0,0.0,0.0,0.0,0.0,0.0,0.0,0.0,0.0,0.0,0.0,0.0,0.0,0.0,0.0,-5.0394,-4.9548,-4.8702,-4.8048,-4.7567,-4.674,-4.6509,-4.6913,-4.6913,-4.6471,-4.5586,-4.6009,-4.599,-4.5586,-4.5586,-4.5586,0.0,0.0,0.0,-4.5586,-4.5586,-4.5586,-4.5586,-4.5586,-4.5586,-4.5586,-4.5586,-4.5586,-4.5586,0.0,0.0,0.0,0.0,0.0,0.0,0.0,0.0,0.0,0.0,0.0,0.0,0.0,0.0,0.0,0.0,0.0,0.0,0.0,0.0,0.0,0.0,0.0,-1.0178,-1.0884,-1.1719,-1.2409,-1.2981,-1.3102,-1.3747,-1.4903,-1.5971,-1.6505,-1.6621,-1.7544,-1.7851,0.0,0.0,0.0,0.0,-1.773,0.0,0.0,0.0,0.0,0.0,0.0,0.0,0.0,-1.9178,-1.9606,-1.9526,-1.967,0.0,0.0,0.0,0.0,0.0,-2.3248,-2.4321,-2.5222,-2.5222,-2.5222,-2.5233,0.0,0.0,0.0,0.0,0.0,0.0,0.0,0.0,0.0,0.0,0.0,0.0,0.0,0.0,0.0,0.0,0.0,0.0,0.0,0.0,0.0,0.0,0.0,-4.8836,-4.7971,-4.7278,-4.6836,-4.6721,-4.599,-4.5951,-4.6701,-4.6836,-4.6471,-4.5605,-4.649,-4.6432,-4.5586,-4.5586,-4.5586,-4.5586,0.0,0.0,-4.5586,-4.5586,-4.5586,-4.5586,-4.5586,-4.5586,-4.5586,-4.5586,-4.5586,-4.5586,0.0,0.0,0.0,0.0,0.0,0.0,0.0,0.0,0.0,0.0,0.0,0.0,0.0,0.0,0.0,0.0,0.0,0.0,0.0,0.0,0.0,0.0,-1.0688,-1.0667,-1.0896,-1.1793,-1.2357,-1.2506,-1.3085,-1.3387,-1.3443,-1.4794,-1.6649,-1.8812,-1.8977,-1.8592,-1.7783,-1.7757,-1.7803,-1.791,-1.7786,0.0,0.0,0.0,0.0,0.0,0.0,0.0,0.0,-1.8961,-1.9117,-1.9134,-1.932,0.0,0.0,0.0,0.0,0.0,-2.3086,-2.4076,-2.4888,-2.4888,-2.4888,-2.491,0.0,0.0,0.0,0.0,0.0,0.0,0.0,0.0,0.0,0.0,0.0,0.0,0.0,0.0,0.0,0.0,0.0,0.0,0.0,0.0,0.0,0.0,0.0,-4.7952,-4.7144,-4.6971,-4.6567,-4.5817,-4.5663,-4.5663,-4.5797,-4.6528,-4.6471,-4.5605,-4.649,-4.6432,-4.5586,-4.5586,-4.5586,-4.5586,0.0,-4.5586,-4.5586,-4.5586,-4.5586,-4.5586,-4.5586,-4.5586,-4.5586,-4.5586,-4.5586,-4.5586,0.0,0.0,0.0,0.0,0.0,0.0,0.0,0.0,0.0,0.0,0.0,0.0,0.0,0.0,0.0,0.0,0.0,0.0,0.0,0.0,0.0,-1.1222,-1.1487,-1.1642,-1.1708,-1.2565,-1.2976,-1.2947,-1.3835,-1.4242,-1.4275,-1.6157,-1.7909,-1.9458,-1.9276,-1.8873,-1.8316,-1.7954,-1.7811,-1.7811,0.0,0.0,0.0,0.0,0.0,0.0,0.0,0.0,0.0,0.0,-1.8449,-1.814,-1.8732,0.0,0.0,0.0,0.0,0.0,-2.2915,-2.3483,-2.3938,-2.4366,-2.4678,-2.4911,0.0,0.0,0.0,0.0,0.0,0.0,0.0,0.0,0.0,0.0,0.0,0.0,0.0,0.0,0.0,0.0,0.0,0.0,0.0,0.0,0.0,0.0,0.0,0.0,-4.624,-4.6201,-4.6009,-4.5605,-4.5586,-4.5586,-4.5586,-4.599,-4.599,-4.5605,-4.649,-4.6432,-4.5586,-4.5586,-4.5586,-4.5586,0.0,-4.5586,-4.5586,-4.5586,-4.5586,-4.5586,-4.5586,-4.5586,-4.5586,-4.5586,-4.5586,-4.5586,0.0,0.0,0.0,0.0,0.0,0.0,0.0,0.0,0.0,0.0,0.0,0.0,0.0,0.0,0.0,0.0,0.0,0.0,0.0,0.0,-1.0814,-1.1891,-1.2462,-1.2731,-1.2635,-1.3474,-1.389,-1.3812,-1.4639,-1.5515,-1.642,-1.8177,-1.9276,-1.9736,-1.9323,-1.9054,-1.8859,-1.8128,-1.7635,-1.7361,0.0,0.0,0.0,0.0,0.0,0.0,0.0,0.0,0.0,0.0,0.0,0.0,0.0,0.0,0.0,-2.0753,-2.1388,-2.2263,-2.307,-2.329,-2.3437,-2.4043,0.0,-2.4926,0.0,0.0,0.0,0.0,0.0,0.0,0.0,0.0,0.0,0.0,0.0,0.0,0.0,0.0,0.0,0.0,0.0,0.0,0.0,0.0,0.0,0.0,0.0,0.0,-4.5624,-4.5586,-4.5586,-4.5586,-4.5586,-4.5586,-4.5586,-4.5586,-4.5586,-4.5605,-4.6278,-4.624,-4.5586,-4.5586,-4.5586,-4.5586,-4.5586,-4.5586,-4.5586,-4.5586,-4.5586,-4.5586,-4.5586,-4.5586,-4.5586,-4.5586,-4.5586,-4.5586,0.0,0.0,0.0,0.0,0.0,0.0,0.0,0.0,0.0,0.0,0.0,0.0,0.0,0.0,0.0,0.0,0.0,0.0,0.0,0.0,-1.2102,-1.3739,-1.3859,-1.3702,-1.334,-1.4361,-1.4964,-1.5068,-1.5145,-1.6798,-1.9946,-2.01,-2.02,-2.0225,-1.958,-1.9289,-1.9193,-1.8214,-1.7076,-1.6052,-1.7296,0.0,0.0,0.0,0.0,0.0,0.0,0.0,0.0,0.0,0.0,0.0,0.0,0.0,-2.0536,-2.199,-2.2648,-2.3088,-2.3896,-2.4116,-2.4135,-2.419,0.0,0.0,0.0,0.0,0.0,0.0,0.0,0.0,0.0,0.0,0.0,0.0,0.0,0.0,0.0,0.0,0.0,0.0,0.0,0.0,0.0,0.0,0.0,0.0,0.0,0.0,-4.5586,-4.5586,-4.5586,-4.5586,-4.5586,-4.5586,-4.5586,-4.5586,-4.5586,-4.5586,-4.5663,-4.5663,-4.5586,-4.5586,-4.5586,-4.5586,-4.5586,-4.5586,-4.5586,-4.5586,-4.5586,-4.5586,-4.5586,-4.5586,-4.5586,-4.5586,-4.5586,-4.5586,0.0,0.0,0.0,0.0,0.0,0.0,0.0,0.0,0.0,0.0,0.0,0.0,0.0,0.0,0.0,0.0,0.0,0.0,0.0,-1.1934,-1.3051,-1.3777,-1.3934,-1.4193,-1.4629,-1.5006,-1.5191,-1.5189,-1.5189,-1.6939,-2.0208,-1.5773,-1.5965,-1.9981,-1.9719,-1.9324,-1.8825,-1.8086,-1.7027,-1.5856,-1.6367,-1.6799,0.0,0.0,0.0,0.0,0.0,0.0,0.0,0.0,-1.7975,-1.8018,-1.8473,-1.9898,-2.1437,-2.177,-2.2758,-2.3804,-2.4116,-2.419,-2.419,-2.419,0.0,0.0,0.0,0.0,0.0,0.0,0.0,0.0,0.0,0.0,0.0,0.0,0.0,0.0,0.0,0.0,0.0,0.0,0.0,0.0,0.0,0.0,0.0,0.0,0.0,0.0,-4.4816,-4.4778,-4.4547,-4.4066,-4.4047,-4.4278,-4.4778,-4.4297,-4.4297,-4.4797,-4.5336,-4.5586,-4.5586,-4.5586,-4.5586,-4.5586,-4.5586,-4.5586,-4.5586,-4.5586,-4.5586,-4.5586,-4.5586,-4.5586,-4.5586,-4.5586,-4.5586,-4.5586,0.0,0.0,0.0,0.0,0.0,0.0,0.0,0.0,0.0,0.0,0.0,0.0,0.0,0.0,0.0,0.0,0.0,0.0,-1.0887,-1.2382,-1.3518,-1.4144,-1.4352,-1.4731,-1.5349,-1.533,-1.5317,-1.5261,-1.2007,-1.1594,-1.3876,-1.3092,-1.5199,-1.9645,-1.9645,-1.9167,-1.833,-1.7949,-1.7027,-1.5799,-1.5799,-1.6313,0.0,0.0,0.0,0.0,0.0,0.0,0.0,0.0,-1.7811,-1.7929,-1.8659,-2.0119,-2.1596,-2.1841,-2.2919,-2.4074,-2.417,-2.4113,-2.4074,0.0,0.0,0.0,0.0,0.0,0.0,0.0,0.0,0.0,0.0,0.0,0.0,0.0,0.0,0.0,0.0,0.0,0.0,0.0,0.0,0.0,0.0,0.0,0.0,0.0,0.0,0.0,0.0,-4.4297,-4.3932,-4.3124,-4.3104,-4.3355,-4.3912,-4.3374,-4.3374,-4.3932,-4.4528,-4.4932,-4.5201,-4.547,-4.5586,-4.5586,-4.5586,-4.5586,-4.5586,-4.5586,-4.5586,-4.5586,-4.5586,-4.5586,-4.5586,-4.5586,-4.5586,-4.5586,0.0,0.0,0.0,0.0,0.0,0.0,0.0,0.0,0.0,0.0,0.0,0.0,0.0,0.0,0.0,0.0,0.0,0.0,-1.2603,-1.2721,-1.3455,-1.5138,-1.5325,-1.5364,-1.5291,-1.5374,-1.5346,-1.5254,-0.502,0.0,-0.0276,-1.3243,-1.9305,-1.9305,-1.9305,-1.8753,-1.7811,-1.7811,-1.7027,-1.5827,-1.5827,-1.6617,-1.7811,0.0,0.0,0.0,0.0,0.0,0.0,0.0,-1.7811,-1.8097,-1.987,-2.0405,-2.0768,-2.2484,-2.3318,-2.3774,-2.4113,-2.3955,0.0,0.0,0.0,0.0,0.0,0.0,0.0,0.0,0.0,0.0,0.0,0.0,0.0,0.0,0.0,0.0,0.0,0.0,0.0,0.0,0.0,0.0,0.0,0.0,0.0,0.0,0.0,0.0,0.0,-4.4278,-4.3912,-4.3104,-4.3085,-4.3085,-4.3085,-4.3085,-4.3085,-4.3085,-4.3085,-4.3508,-4.4316,-4.5182,-4.5566,-4.5586,-4.5586,-4.5586,-4.5586,-4.5586,-4.5586,-4.5586,-4.5586,-4.5586,-4.5586,-4.5586,-4.5586,-4.5586,0.0,0.0,0.0,0.0,0.0,0.0,0.0,0.0,0.0,0.0,0.0,0.0,0.0,0.0,0.0,0.0,0.0,0.0,-1.4272,-1.4456,-1.4687,-1.5176,-1.524,-1.5265,-1.5291,-1.5362,-1.1843,-0.457,-0.1504,0.0,-0.0285,-1.3721,-1.9743,-1.9305,-1.9305,-1.9146,-1.8806,-1.8107,-1.7572,-1.7199,-1.7199,-1.7455,-1.7811,0.0,0.0,0.0,0.0,0.0,0.0,0.0,0.0,0.0,-2.056,-2.1334,-2.1774,-2.272,-2.3318,-2.3774,-2.4113,0.0,0.0,0.0,0.0,0.0,0.0,0.0,0.0,0.0,0.0,0.0,0.0,0.0,0.0,0.0,0.0,0.0,0.0,0.0,0.0,0.0,0.0,0.0,0.0,0.0,0.0,0.0,0.0,0.0,0.0,-4.2547,-4.2143,-4.1296,-4.1258,-4.1566,-4.2181,-4.1585,-4.1585,-4.22,-4.22,-4.2624,-4.3451,-4.372,-4.4143,-4.4682,-4.4682,-4.5028,-4.5586,-4.5586,-4.5586,-4.5586,-4.5586,-4.5586,-4.5586,-4.5586,-4.5586,-4.5586,0.0,0.0,0.0,0.0,0.0,0.0,0.0,0.0,0.0,0.0,0.0,0.0,0.0,0.0,0.0,0.0,0.0,0.0,0.0,-1.4914,-1.4914,-1.4914,-1.5101,-1.5214,-1.5253,-1.5303,-1.2277,-0.6037,-0.7402,-0.8059,-0.8248,-1.6311,-1.9971,-1.9682,-1.9419,-1.9305,-1.9259,-1.8663,-1.817,-1.7811,-1.7811,-1.7811,-1.7811,0.0,0.0,0.0,0.0,0.0,0.0,0.0,0.0,0.0,0.0,0.0,-2.2493,-2.2947,-2.3271,-2.3566,-2.3917,0.0,0.0,0.0,0.0,0.0,0.0,0.0,0.0,0.0,0.0,0.0,0.0,0.0,0.0,0.0,0.0,0.0,0.0,0.0,0.0,0.0,0.0,0.0,0.0,0.0,0.0,0.0,0.0,0.0,0.0,-4.1797,-4.1393,-4.0527,-4.0489,-4.0739,-4.1277,-4.0758,-4.0758,-4.1277,-4.1277,-4.1566,-4.2085,-4.2777,-4.3355,-4.3835,-4.4162,-4.4778,-4.5586,-4.5586,-4.5586,-4.5566,-4.522,-4.5297,-4.5509,-4.4836,-4.4797,-4.5066,0.0,0.0,0.0,0.0,0.0,0.0,0.0,0.0,0.0,0.0,0.0,0.0,0.0,0.0,0.0,0.0,0.0,0.0,0.0,0.0,-1.4488,-1.4488,-1.4917,-1.5146,-1.5146,-1.5146,-1.5146,-1.5146,-1.8297,-1.9985,-2.0285,-1.9991,-1.9354,-1.8424,-1.78,-1.7541,-1.7633,-1.8809,-1.8771,-1.7966,-1.8261,-1.821,-1.7927,-1.7816,0.0,0.0,0.0,0.0,0.0,0.0,0.0,0.0,-2.0906,-2.1816,-2.2933,-2.3165,-2.3212,-2.3277,0.0,0.0,0.0,0.0,0.0,0.0,0.0,0.0,0.0,0.0,0.0,0.0,0.0,0.0,0.0,0.0,0.0,0.0,0.0,0.0,0.0,0.0,0.0,0.0,0.0,0.0,0.0,0.0,0.0,0.0,0.0,-4.1604,-4.1277,-4.0412,-4.045,-4.0489,-4.0489,-4.0489,-4.0489,-4.0489,-4.0489,-4.0489,-4.0546,-4.2143,-4.2912,-4.3028,-4.3835,-4.4643,-4.5355,-4.5355,-4.5355,-4.5278,-4.4489,-4.4662,-4.5182,-4.3662,-4.3566,-4.4201,0.0,0.0,0.0,0.0,0.0,0.0,0.0,0.0,0.0,0.0,0.0,0.0,0.0,0.0,0.0,0.0,0.0,0.0,0.0,0.0,-1.4488,-1.4488,-1.4592,-1.4648,-1.4648,-1.4648,-1.4648,-1.4648,-1.5769,-1.767,-2.0304,-2.0225,-1.4533,-0.4361,-0.4221,-0.4151,-0.4809,-1.4988,-1.9178,-1.9197,-2.1786,-2.1279,-1.8876,-1.8107,-1.7811,0.0,0.0,0.0,0.0,0.0,0.0,0.0,-2.1735,-2.2329,-2.2848,-2.3414,-2.3414,-2.3346,0.0,0.0,0.0,0.0,0.0,0.0,0.0,0.0,0.0,0.0,0.0,0.0,0.0,0.0,0.0,0.0,0.0,0.0,0.0,0.0,0.0,0.0,0.0,0.0,0.0,0.0,0.0,0.0,0.0,0.0,-3.8854,-4.0065,-4.0392,-3.9565,-4.0162,-4.0489,-4.0489,-4.0489,-4.0489,0.0,-4.0489,-4.0489,-4.0508,-4.0893,-4.1431,-4.2143,-4.2989,-4.3451,-4.3643,-4.3643,-4.3643,-4.3624,-4.3431,-4.347,-4.3585,-4.3239,-4.3239,-4.3434,0.0,0.0,0.0,0.0,0.0,0.0,0.0,0.0,0.0,0.0,0.0,0.0,0.0,0.0,0.0,0.0,0.0,0.0,0.0,0.0,-1.4488,-1.4488,-1.0031,-0.9738,-1.4396,-1.4488,-1.4488,-1.4488,-1.4747,-1.5891,-1.7881,-1.9542,-1.6522,-0.9444,-0.2904,-0.3435,-0.968,-1.6439,-1.9305,-1.9599,-2.2868,-2.3162,-2.1421,-1.9325,-1.8214,-1.7811,-1.7811,0.0,0.0,0.0,0.0,0.0,0.0,0.0,-2.2581,-2.2925,-2.3129,-2.3277,0.0,0.0,0.0,0.0,0.0,0.0,0.0,0.0,0.0,0.0,0.0,0.0,0.0,0.0,0.0,0.0,0.0,0.0,0.0,0.0,0.0,0.0,0.0,0.0,0.0,0.0,0.0,0.0,0.0,-3.8469,-3.8027,-3.8834,-3.9104,-3.8681,-3.9084,-3.9296,-3.9296,-3.9296,-3.9296,-3.9296,-3.9296,-3.9296,-3.9335,-4.0123,-4.0969,-4.1835,-4.2277,-4.272,-4.3104,-4.3104,-4.3104,-4.3066,-4.2643,-4.2739,-4.3008,-4.2239,-4.2239,-4.2621,0.0,0.0,0.0,0.0,0.0,0.0,0.0,0.0,0.0,0.0,0.0,0.0,0.0,0.0,0.0,0.0,0.0,0.0,0.0,0.0,0.0,-1.4488,-0.6785,-0.6272,-1.4323,-1.4393,-1.4313,-1.4313,-1.4818,0.0,0.0,0.0,-2.0135,-1.9638,-0.8353,-0.9276,-1.9305,-1.9305,-1.9305,-1.9543,-2.2263,-2.3694,-2.3896,-2.118,-1.9273,-1.8091,-1.8455,-2.0196,-2.231,-2.231,0.0,0.0,0.0,0.0,-2.231,-2.2349,-2.2721,-2.3117,0.0,0.0,0.0,0.0,0.0,0.0,0.0,0.0,0.0,0.0,0.0,0.0,0.0,0.0,0.0,0.0,0.0,0.0,0.0,0.0,0.0,0.0,0.0,0.0,0.0,0.0,0.0,0.0,0.0,-3.7719,-3.7584,-3.7834,-3.793,-3.7777,-3.7911,-3.8007,-3.8007,-3.8007,-3.8007,-3.8007,-3.8007,-3.8007,-3.8046,-3.9431,-4.045,-4.1143,-4.1143,-4.1546,-4.222,-4.222,-4.2316,-4.2374,-4.1643,-4.1893,-4.2489,-4.1158,-4.1135,-4.1803,0.0,0.0,0.0,0.0,0.0,0.0,0.0,0.0,0.0,0.0,0.0,0.0,0.0,0.0,0.0,0.0,0.0,0.0,-1.5189,0.0,0.0,-1.4488,-1.3259,-1.3167,-1.4469,-1.3877,-1.3544,-1.3544,0.0,0.0,0.0,0.0,0.0,-1.936,0.0,-1.7688,-1.9305,-1.9305,-1.9305,-1.9341,-1.9767,-2.1657,-2.4153,-2.3712,-2.1679,-1.9324,-2.1076,-2.1972,-2.231,-2.231,-2.231,0.0,0.0,0.0,-2.2349,-2.2573,-2.2695,0.0,0.0,0.0,0.0,0.0,0.0,0.0,0.0,0.0,0.0,0.0,0.0,0.0,0.0,0.0,0.0,0.0,0.0,0.0,0.0,0.0,0.0,0.0,0.0,0.0,0.0,0.0,0.0,0.0,-3.6045,-3.6584,-3.5872,-3.7219,-3.7642,-3.6911,-3.7603,-3.8007,-3.8007,-3.8007,-3.8007,-3.8007,-3.8007,-3.8007,-3.8007,-3.8238,-3.8392,-3.8507,-3.8507,-3.8565,-3.8681,-3.8681,-3.9123,-3.9796,-3.9681,-4.0123,-4.0816,-4.0604,-4.0673,-4.0981,0.0,0.0,0.0,0.0,0.0,0.0,0.0,0.0,0.0,0.0,0.0,0.0,0.0,0.0,0.0,-1.5201,-1.4965,-1.4822,-1.4822,-1.4614,-1.4488,-1.4488,-1.4488,-1.5076,-1.6326,-1.4418,-1.4209,-1.5866,0.0,0.0,0.0,-1.8455,-1.8753,0.0,0.0,0.0,0.0,-2.2042,-2.1552,-2.0788,-2.129,-2.2048,-2.3001,-2.3874,-2.329,-2.2082,-2.2246,-2.231,-2.231,-2.231,-2.231,-2.231,-2.231,0.0,0.0,0.0,0.0,0.0,0.0,0.0,0.0,0.0,0.0,0.0,0.0,0.0,0.0,0.0,0.0,0.0,0.0,0.0,0.0,0.0,0.0,0.0,0.0,0.0,0.0,0.0,0.0,0.0,0.0,0.0,0.0,0.0,-3.4141,-3.443,-3.4064,-3.4737,-3.4968,-3.4584,-3.5411,-3.5872,-3.5872,-3.5872,-3.5872,-3.5872,-3.5872,-3.6122,-3.6603,-3.6603,-3.7103,-3.8007,-3.8007,-3.8007,-3.8007,-3.8007,-3.8257,-3.8642,-3.8642,-3.8896,-3.9323,-3.9819,-4.0029,-4.0217,0.0,0.0,0.0,0.0,0.0,0.0,0.0,0.0,0.0,0.0,0.0,0.0,0.0,0.0,0.0,0.0,-1.4698,-1.4488,-1.4488,-1.4488,-1.4488,-1.4488,-1.5288,-1.6373,-1.7783,-1.5646,-1.5595,0.0,0.0,0.0,-1.7811,-1.7811,-1.8796,0.0,-2.0537,0.0,0.0,0.0,0.0,0.0,-2.2716,-2.2582,-2.2139,-2.3275,-2.3728,-2.358,-2.2642,-2.231,-2.231,-2.231,-2.231,-2.231,-2.231,-2.2061,0.0,0.0,0.0,0.0,0.0,0.0,0.0,0.0,0.0,0.0,0.0,0.0,0.0,0.0,0.0,0.0,0.0,0.0,0.0,0.0,0.0,0.0,0.0,0.0,0.0,0.0,0.0,0.0,0.0,0.0,0.0,0.0,-3.2776,-3.2891,-3.2891,-3.2891,-3.2891,-3.2891,-3.3526,-3.3872,-3.3872,-3.3872,-3.3872,-3.3872,-3.3872,-3.4218,-3.4853,-3.4853,-3.5526,-3.6738,-3.718,-3.7353,-3.7353,-3.7353,-3.7546,-3.78,-3.78,-3.7998,-3.84,-3.9234,-3.9557,-3.9762,0.0,0.0,0.0,0.0,0.0,0.0,0.0,0.0,0.0,0.0,0.0,0.0,-1.4458,-1.4545,-1.4545,-1.4545,-1.4511,-1.4488,-1.4488,-1.4488,-1.4488,-1.4488,-1.7417,0.0,-1.7833,-1.7659,-1.7659,0.0,0.0,0.0,-1.7811,-1.7811,-1.9995,-2.3951,-2.3951,-2.4043,-2.417,0.0,0.0,0.0,0.0,-2.2332,0.0,0.0,-2.2405,0.0,0.0,0.0,-2.231,-2.231,-2.231,-2.231,-2.231,-2.2282,-2.2282,0.0,0.0,0.0,0.0,0.0,0.0,0.0,0.0,0.0,0.0,0.0,0.0,0.0,0.0,0.0,0.0,0.0,0.0,0.0,0.0,0.0,0.0,0.0,0.0,0.0,0.0,0.0,0.0,0.0,0.0,0.0,-3.2468,-3.2891,-3.2891,-3.2891,-3.2891,-3.2891,-3.2949,-3.2968,-3.2968,-3.2968,-3.2968,-3.2968,-3.2968,-3.2987,-3.3045,-3.3045,-3.3083,-3.3256,-3.4911,-3.5641,-3.5641,-3.5641,-3.6147,-3.6954,-3.6954,-3.7518,-3.8399,-3.9141,-3.9496,-3.9819,0.0,0.0,0.0,0.0,0.0,0.0,0.0,0.0,0.0,0.0,0.0,0.0,0.0,-1.3789,-1.3789,-1.3789,-1.4237,-1.4488,-1.4488,-1.406,-1.3789,-1.3789,-1.6711,-1.817,-1.7811,-1.7811,0.0,0.0,0.0,-1.7811,-1.7811,-1.7811,-2.0104,-2.419,-2.419,-2.419,-2.4132,-2.3074,0.0,0.0,0.0,0.0,0.0,0.0,0.0,0.0,0.0,0.0,0.0,-2.231,-2.231,-2.231,-2.231,-2.2106,-2.1882,0.0,0.0,0.0,0.0,0.0,0.0,0.0,0.0,0.0,0.0,0.0,0.0,0.0,0.0,0.0,0.0,0.0,0.0,0.0,0.0,0.0,0.0,0.0,0.0,0.0,0.0,0.0,0.0,0.0,0.0,0.0,0.0,-3.0574,-3.1263,-3.0775,-3.0448,-3.0448,-3.1006,-3.1564,-3.2122,-3.2122,-3.2122,-3.2122,-3.2122,-3.241,-3.2891,-3.2891,-3.2891,-3.2929,-3.3564,-3.416,-3.4661,-3.4661,-3.5238,-3.6078,-3.556,-3.5963,-3.6911,-3.764,-3.7955,-3.8235,0.0,0.0,0.0,0.0,0.0,0.0,0.0,0.0,0.0,-1.2908,0.0,0.0,0.0,0.0,-1.3495,-1.3761,-1.3991,-1.4127,-1.4127,-1.3669,-1.3396,-1.3396,-1.6238,-1.7811,-1.7811,-1.7811,0.0,0.0,0.0,0.0,0.0,-1.7811,-1.9859,-2.358,-2.4014,-2.3955,0.0,0.0,0.0,-2.2857,0.0,0.0,-2.231,0.0,0.0,0.0,0.0,0.0,0.0,0.0,0.0,-2.231,0.0,0.0,0.0,0.0,0.0,0.0,0.0,0.0,0.0,0.0,0.0,0.0,0.0,0.0,0.0,0.0,0.0,0.0,0.0,0.0,0.0,0.0,0.0,0.0,0.0,0.0,0.0,0.0,0.0,0.0,0.0,0.0,0.0,0.0,0.0,0.0,-2.9806,-2.9301,-2.9152,-2.9525,-3.0102,-3.0679,-3.1256,-3.1256,-3.1256,-3.1256,-3.1256,-3.1545,-3.2064,-3.2064,-3.2064,-3.2083,-3.2372,-3.2987,-3.3757,-3.3757,-3.4199,-3.4815,-3.427,-3.4679,-3.5664,-3.6426,-3.6898,-3.7373,0.0,0.0,0.0,0.0,0.0,0.0,0.0,0.0,-1.298,-1.194,0.0,0.0,0.0,0.0,0.0,-1.4417,-1.3803,-1.3447,-1.3515,-1.3532,-1.3532,-1.3532,-1.6272,-1.7811,-1.7811,-1.7811,-1.7811,0.0,0.0,0.0,0.0,0.0,-1.9502,-2.2349,-2.358,-2.3468,-2.2338,0.0,-2.2849,-2.231,0.0,-2.231,-2.231,0.0,0.0,0.0,-2.231,-2.231,0.0,0.0,0.0,0.0,0.0,0.0,0.0,0.0,0.0,0.0,0.0,0.0,0.0,0.0,0.0,0.0,0.0,0.0,0.0,0.0,0.0,0.0,0.0,0.0,0.0,0.0,0.0,0.0,0.0,0.0,0.0,0.0,0.0,0.0,0.0,0.0,0.0,0.0,-2.7251,-2.7702,-2.8706,-2.8758,-2.9206,-3.0283,-3.0321,-3.034,-3.0398,-3.0359,-3.0359,-3.0398,-3.0359,-3.0379,-3.0398,-3.0398,-3.0398,-3.0436,-3.1295,-3.2102,-3.2833,-3.2852,-3.2987,-3.3198,-3.3195,-3.3817,-3.4805,-3.5605,-3.6484,-3.7377,0.0,0.0,0.0,0.0,0.0,0.0,-1.2998,-1.2553,-1.2133,0.0,0.0,0.0,-1.4912,-1.5997,-1.5812,-1.3875,-1.3511,-1.4311,-1.6441,-1.6576,-1.6576,-1.6576,-1.7371,-1.7811,-1.7811,-1.7811,-1.7811,0.0,0.0,0.0,-2.1075,-2.1075,0.0,0.0,-2.2668,-2.2642,-2.231,-2.248,0.0,0.0,-2.231,-2.231,0.0,0.0,0.0,0.0,0.0,-2.248,0.0,0.0,-2.2925,-2.3105,0.0,0.0,0.0,0.0,0.0,0.0,-2.3966,0.0,0.0,0.0,0.0,0.0,0.0,0.0,0.0,0.0,0.0,0.0,0.0,0.0,0.0,0.0,0.0,0.0,0.0,0.0,0.0,0.0,0.0,0.0,0.0,0.0,0.0,0.0,-2.6141,-2.666,-2.7872,-2.747,-2.7616,-2.8563,-2.8582,-2.9179,-3.0379,-2.9775,-2.9775,-3.0379,-2.9756,-2.9794,-3.0398,-3.0398,-3.0398,-3.0398,-3.0648,-3.091,-3.1218,-3.184,-3.2545,-3.3205,-3.3252,-3.3868,-3.4805,-3.5664,-3.6133,-3.6484,0.0,0.0,0.0,0.0,0.0,0.0,-1.3396,-1.2494,-1.1805,0.0,0.0,0.0,-1.5514,-1.7002,-1.7117,-1.5392,-1.524,-1.5967,-1.7693,-1.7811,-1.7811,-1.7811,-1.7811,-1.7811,-1.7811,-1.7811,-1.7542,-1.6977,-1.6176,-1.8029,-2.231,-2.231,0.0,0.0,0.0,0.0,0.0,0.0,0.0,0.0,-2.3091,0.0,0.0,-2.2686,-2.2686,0.0,0.0,0.0,-2.3014,-2.3014,-2.3183,0.0,0.0,0.0,0.0,0.0,0.0,0.0,0.0,0.0,0.0,0.0,0.0,0.0,-2.3937,-2.3917,-2.3958,0.0,0.0,0.0,0.0,0.0,0.0,0.0,0.0,0.0,0.0,0.0,0.0,0.0,0.0,0.0,0.0,-2.4612,-2.4947,-2.506,-2.5148,-2.5734,-2.6982,-2.7102,-2.7371,-2.7871,-2.789,-2.8371,-2.9352,-2.9179,-2.9352,-2.9852,-2.9717,-2.9717,-2.9871,-3.0237,-3.0198,-2.989,-3.0275,-3.0467,-3.0544,-3.1109,-3.166,-3.2172,-3.2196,-3.3011,-3.4219,-3.4726,-3.5371,-3.6074,0.0,0.0,0.0,-1.3511,-1.3396,-1.3396,-1.3396,-1.2867,-1.2423,0.0,-1.2239,-1.3136,-1.5544,-1.6876,-1.7635,-1.7789,-1.7658,-1.7635,-1.7789,-1.7811,-1.7811,-1.7811,-1.7811,-1.7811,-1.7811,-1.7658,-1.7122,-1.6233,-1.5948,-1.7943,-2.202,-2.202,-2.2106,-2.231,0.0,0.0,0.0,0.0,0.0,-2.3994,-2.3994,-2.3732,0.0,0.0,-2.3236,0.0,-2.2989,-2.3063,-2.3236,-2.3282,-2.3328,0.0,0.0,0.0,0.0,0.0,-2.3917,0.0,0.0,0.0,0.0,0.0,0.0,0.0,-2.4266,-2.4228,-2.4228,0.0,0.0,0.0,0.0,0.0,0.0,0.0,0.0,0.0,0.0,0.0,0.0,0.0,0.0,0.0,-2.419,-2.419,-2.4209,-2.4228,-2.4426,-2.5032,-2.6092,-2.7083,-2.7659,-2.7755,-2.7755,-2.7794,-2.789,-2.8506,-2.8871,-2.8967,-2.966,-2.9621,-2.8986,-2.9775,-2.9717,-2.9025,-2.9967,-3.0379,-3.0398,-3.0602,-3.0698,-3.071,-3.0816,-3.1845,-3.3281,-3.3379,-3.4375,-3.5703,-1.3396,0.0,0.0,-1.343,-1.3396,-1.3396,-1.3396,-1.5235,-1.6231,-1.5167,-1.5019,-1.5229,-1.5739,-1.6024,-1.6617,-1.7721,-1.6809,-1.6644,-1.7726,-1.7811,-1.7811,-1.7811,-1.7811,-1.7811,-1.7811,-1.6747,-1.7075,-1.8927,-1.6833,-1.7318,-2.0208,-2.0208,-2.0975,0.0,0.0,0.0,0.0,0.0,0.0,-2.2668,-2.2668,0.0,-2.3996,-2.3996,-2.3584,-2.2965,-2.3111,-2.3277,-2.35,0.0,-2.4116,-2.4174,0.0,0.0,0.0,0.0,0.0,0.0,0.0,0.0,0.0,0.0,0.0,0.0,-2.4495,-2.4426,-2.4393,0.0,0.0,0.0,0.0,0.0,0.0,0.0,0.0,0.0,0.0,0.0,0.0,0.0,0.0,0.0,-2.419,-2.419,-2.4284,-2.4445,-2.4737,-2.5013,-2.5227,-2.5606,-2.614,-2.6832,-2.6851,-2.7198,-2.789,-2.7351,-2.7448,-2.8121,-2.7601,-2.7621,-2.814,-2.8379,-2.8387,-2.8253,-2.9144,-2.9605,-2.9752,-3.0417,-3.0698,-3.0794,-3.1583,-3.2123,-3.2519,-3.3164,-3.3613,-3.3906,-1.3396,0.0,0.0,0.0,-1.3396,-1.3904,-1.5358,-1.6847,-1.7566,-1.6901,-1.6219,-1.5799,-1.5799,-1.5799,-1.608,-1.6747,-1.6191,-1.608,-1.6773,-1.6799,-1.7101,-1.7766,-1.9249,-2.0035,-2.0035,-1.7911,-1.8175,-2.0991,-1.8789,-1.8437,-1.969,-1.969,0.0,0.0,0.0,0.0,0.0,0.0,-2.231,-2.2338,-2.2756,0.0,-2.3876,-2.4113,-2.3935,-2.3562,-2.3671,-2.3756,-2.3896,-2.4113,-2.4284,0.0,0.0,-2.3937,-2.3937,0.0,-2.3937,-2.4078,0.0,0.0,0.0,-2.4949,0.0,0.0,0.0,-2.4495,-2.4461,-2.4375,0.0,0.0,0.0,0.0,0.0,0.0,0.0,0.0,0.0,0.0,0.0,0.0,0.0,0.0,-2.419,-2.4284,-2.4459,-2.4737,-2.4911,-2.5034,-2.5152,-2.5253,-2.5495,-2.5947,-2.5947,-2.6159,-2.6601,-2.6601,-2.6813,-2.7255,-2.7283,-2.7302,-2.7322,-2.7822,-2.7798,-2.7442,-2.8354,-2.9037,-2.9529,-2.9963,-3.0414,-3.0856,-3.136,-3.1816,-3.2246,-3.2656,-3.3066,-3.3457,-1.343,0.0,0.0,0.0,-1.387,-1.5037,-1.7456,-1.7811,-1.7811,-1.7811,-1.685,-1.6191,-1.6191,-1.6191,-1.6191,-1.6191,-1.6191,-1.6191,-1.6191,-1.6191,-1.667,-1.7766,-2.0703,-2.231,-2.231,-1.9925,-1.9875,-2.231,-2.0894,-2.0208,-2.0174,-1.9854,0.0,0.0,0.0,0.0,0.0,0.0,0.0,-2.2349,0.0,-2.3459,-2.3671,-2.3955,-2.4171,-2.4321,-2.4339,-2.4338,-2.4338,-2.4321,0.0,-2.4303,-2.4266,-2.4228,0.0,0.0,0.0,0.0,0.0,0.0,0.0,0.0,0.0,-2.4962,0.0,0.0,0.0,-2.4512,0.0,0.0,0.0,0.0,0.0,0.0,0.0,0.0,0.0,0.0,0.0,0.0,0.0,0.0,-2.4321,-2.4495,-2.4708,-2.4986,-2.5034,-2.5141,-2.5284,-2.5303,-2.5303,-2.5303,-2.5303,-2.5303,-2.5303,-2.6005,-2.6351,-2.637,-2.7119,-2.7119,-2.6456,-2.7248,-2.7226,-2.6603,-2.7741,-2.8616,-2.9298,-2.9699,-3.0275,-3.0898,-3.0898,-3.1328,-3.1953,-3.1953,-3.2363,-3.3047,-1.3528,-1.3934,0.0,0.0,-1.5561,-1.7422,-1.776,-1.7811,-1.7811,-1.7811,-1.7658,-1.7572,0.0,0.0,0.0,0.0,0.0,0.0,-1.7572,0.0,-1.7635,-1.7789,-2.0703,-2.231,-2.231,-2.1972,-2.1972,-2.231,-2.2106,-2.202,-2.1991,-2.0413,0.0,0.0,-0.7662,0.0,0.0,0.0,-2.231,0.0,-2.2652,-2.3305,0.0,-2.3714,-2.4062,-2.4746,-2.4804,-2.4853,-2.4898,0.0,-2.4731,-2.47,0.0,-2.4339,-2.419,0.0,0.0,0.0,0.0,0.0,0.0,0.0,-2.5122,0.0,0.0,0.0,-2.4716,-2.4545,0.0,0.0,0.0,0.0,0.0,0.0,0.0,0.0,0.0,0.0,0.0,0.0,0.0,0.0,0.0,-2.4864,-2.4962,-2.501,-2.5163,-2.5274,-2.5303,-2.5303,-2.5303,-2.5303,-2.5303,-2.5303,-2.5303,-2.5399,-2.5437,-2.5437,-2.5553,-2.5553,-2.5466,-2.5686,-2.5746,-2.5751,-2.7518,-2.8335,-2.856,-3.0115,-3.0818,-3.0898,-3.0898,-3.0957,-3.1055,-3.1055,-3.1113,-3.1309,-1.4144,-1.5782,0.0,0.0,-1.7364,-1.7997,-1.8589,-2.0289,-2.0827,-1.8913,-2.0325,0.0,0.0,0.0,0.0,0.0,0.0,-2.0453,0.0,0.0,-2.0416,-2.0416,-1.3312,-1.3765,-2.3204,-2.3399,-2.3399,-2.3399,-2.3399,-2.3399,-2.3382,-2.2258,0.0,0.0,-1.5413,0.0,-0.9929,0.0,0.0,0.0,0.0,0.0,0.0,-2.3628,-2.4137,-2.4864,-2.485,-2.4904,-2.4937,0.0,-2.4731,0.0,0.0,0.0,0.0,0.0,0.0,0.0,0.0,0.0,0.0,0.0,0.0,0.0,-2.4697,0.0,-2.4591,0.0,0.0,0.0,0.0,0.0,0.0,0.0,-2.519,0.0,0.0,0.0,0.0,0.0,0.0,0.0,0.0,0.0,0.0,0.0,-2.5253,-2.5303,-2.5303,-2.5303,-2.5303,-2.5303,-2.5303,-2.5303,-2.5303,-2.5303,-2.5303,-2.5303,-2.5341,-2.537,-2.537,-2.5459,-2.5515,-2.5629,-2.6932,-2.7799,-2.8394,-2.9641,-3.0449,-3.0898,-3.0898,-3.0898,-3.0898,-3.0898,-3.0898,-3.1016,-1.5924,0.0,0.0,0.0,0.0,0.0,0.0,0.0,0.0,0.0,0.0,0.0,-2.0886,-2.2758,0.0,0.0,0.0,-2.2876,0.0,0.0,-2.2833,-2.2833,-1.2421,0.0,0.0,0.0,-2.419,-2.419,-2.419,-2.419,-2.419,-2.3692,0.0,0.0,0.0,-1.6612,-0.6833,0.0,0.0,-2.3646,-2.3182,-2.3241,-2.3562,-2.3906,-2.4396,-2.4937,-2.4917,-2.4975,-2.4998,-2.4949,-2.4799,0.0,-2.4636,0.0,0.0,0.0,0.0,0.0,-2.4631,0.0,0.0,0.0,0.0,0.0,0.0,0.0,0.0,0.0,0.0,0.0,0.0,0.0,0.0,0.0,0.0,-2.526,0.0,0.0,0.0,0.0,0.0,0.0,0.0,0.0,0.0,-2.5303,-2.5303,-2.5303,-2.5303,-2.5303,-2.5303,-2.5303,-2.5303,-2.5303,-2.5303,-2.5303,-2.5303,-2.5303,-2.5341,-2.537,-2.537,-2.5447,-2.551,-2.5615,-2.6743,-2.7632,-2.8359,-2.9453,-3.0293,-3.0898,-3.0898,-3.0898,-3.0898,-3.0898,-3.0898,-3.1016,-1.9286,-1.9756,0.0,0.0,0.0,0.0,0.0,0.0,0.0,0.0,0.0,0.0,0.0,0.0,0.0,0.0,0.0,-2.4153,-2.4004,0.0,-2.4151,-2.4151,-2.3675,-2.3676,0.0,0.0,0.0,-2.419,-2.419,-2.419,0.0,0.0,-2.4151,0.0,0.0,-2.3182,-2.1634,-2.2107,-2.2338,-2.247,-2.3448,-2.4042,-2.4395,0.0,-2.4917,-2.5022,-2.5214,0.0,0.0,-2.5274,-2.5152,0.0,0.0,0.0,0.0,0.0,0.0,0.0,0.0,0.0,0.0,-2.4993,0.0,0.0,0.0,0.0,-2.4495,0.0,0.0,0.0,0.0,0.0,-2.529,-2.5545,-2.5586,0.0,0.0,0.0,0.0,0.0,0.0,0.0,0.0,0.0,-2.5284,-2.5303,-2.5303,-2.5303,-2.5303,-2.5303,-2.5303,-2.5303,-2.5303,-2.5303,-2.5303,-2.5303,-2.5303,-2.5303,-2.5303,-2.5303,-2.5303,-2.537,-2.5399,-2.5505,-2.7284,-2.8119,-2.832,-2.998,-3.0762,-3.0898,-3.0898,-3.0898,-3.0898,-3.0898,-3.0898,-3.1016,0.0,0.0,0.0,0.0,0.0,0.0,0.0,-2.3492,0.0,0.0,0.0,0.0,0.0,0.0,-2.493,0.0,0.0,-2.3986,-2.1768,-2.3689,0.0,0.0,0.0,-2.419,0.0,0.0,0.0,0.0,0.0,0.0,0.0,0.0,0.0,0.0,0.0,-2.3955,0.0,0.0,0.0,0.0,0.0,-2.4639,-2.4887,0.0,0.0,-2.5151,-2.5365,-2.5409,0.0,-2.537,-2.5201,-2.4986,-2.4891,-2.4828,-2.4775,-2.4639,-2.494,0.0,0.0,0.0,-2.5423,-2.4917,0.0,0.0,0.0,0.0,0.0,0.0,0.0,0.0,0.0,0.0,-2.4967,-2.5274,-2.5447,-2.5488,0.0,0.0,-2.4746,0.0,0.0,0.0,0.0,0.0,0.0,-2.5322,-2.537,-2.5341,-2.5303,-2.5303,-2.5303,-2.5303,-2.5303,-2.5303,-2.5303,-2.5303,-2.5303,-2.5303,-2.5303,-2.5303,-2.5303,-2.5322,-2.537,-2.5505,-2.7276,-2.8073,-2.8272,-2.9984,-3.0723,-3.0781,-3.0879,-3.0898,-3.0898,-3.0898,-3.0898,-3.0937,-2.0312,0.0,0.0,0.0,0.0,0.0,0.0,0.0,0.0,0.0,-2.4444,0.0,-2.4228,0.0,-2.5303,0.0,-2.5303,-2.4422,-2.2352,-2.4244,0.0,-2.4636,-2.4588,0.0,0.0,0.0,0.0,0.0,0.0,-2.419,0.0,0.0,0.0,0.0,0.0,0.0,0.0,0.0,-2.4829,0.0,0.0,-2.5135,0.0,0.0,-2.5298,-2.5292,0.0,-2.5479,-2.5406,-2.5409,-2.5271,-2.5088,-2.5,-2.4994,-2.4949,-2.4828,-2.5152,-2.549,-2.5095,-2.5302,0.0,-2.4993,-2.5132,0.0,-2.4631,0.0,0.0,0.0,0.0,0.0,0.0,0.0,-2.4567,-2.4872,-2.5181,-2.5364,0.0,-2.5087,-2.4651,0.0,0.0,0.0,0.0,0.0,-2.4872,-2.5357,-2.5399,-2.537,0.0,0.0,-2.5303,-2.5303,-2.5303,-2.5303,-2.5303,-2.5303,-2.5303,-2.5303,-2.5303,-2.5303,-2.5303,-2.5303,-2.5322,-2.5466,-2.7208,-2.7995,-2.8195,-2.992,-3.0662,-3.0703,-3.0801,-3.0859,-3.0898,-3.0898,-3.0898,-3.0898,0.0,0.0,0.0,0.0,-2.3159,0.0,0.0,0.0,-2.4247,0.0,-2.4864,-2.5037,-2.4339,-2.4877,-2.5303,-2.5303,-2.5313,0.0,-2.5683,-2.5703,0.0,0.0,-2.5322,-2.5313,-2.5303,0.0,0.0,0.0,0.0,0.0,0.0,0.0,0.0,0.0,-2.5,0.0,-2.5322,-2.5447,-2.5495,-2.5526,-2.5576,-2.5522,-2.5422,-2.5545,-2.5517,-2.5437,-2.5554,-2.5526,-2.5395,-2.5407,-2.537,-2.5303,-2.5303,-2.5284,-2.5303,-2.5303,-2.588,-2.6351,-2.5534,-2.5765,-2.6041,-2.5232,-2.5487,0.0,0.0,0.0,-2.5319,0.0,0.0,0.0,0.0,0.0,0.0,-2.4308,-2.4817,-2.5143,-2.5114,0.0,0.0,0.0,0.0,0.0,0.0,-2.4939,-2.5429,-2.5409,-2.5395,0.0,0.0,0.0,-2.5303,-2.5303,-2.5303,-2.5303,-2.5303,-2.5303,-2.5303,-2.5303,-2.5303,-2.5303,-2.5303,-2.5303,-2.5322,-2.5457,-2.7159,-2.7956,-2.8176,-2.9821,-3.0579,-3.0702,-3.0703,-3.0781,-3.0898,-3.0898,-3.0898,-3.0898,-2.4015,-2.4015,-2.3845,0.0,-2.4347,-2.5303,0.0,0.0,0.0,0.0,-2.5182,-2.5233,-2.5037,-2.5182,-2.5303,-2.5303,-2.5488,0.0,0.0,0.0,0.0,-2.5601,-2.5598,-2.5489,-2.5293,-2.5107,0.0,-2.419,0.0,0.0,-2.419,0.0,0.0,0.0,0.0,0.0,-2.5582,-2.5524,-2.5563,-2.565,-2.5609,-2.5581,0.0,0.0,-2.5528,-2.5568,-2.5643,-2.559,-2.5471,-2.5464,-2.5409,-2.5274,-2.5111,-2.5173,-2.5274,-2.5111,-2.5346,-2.5572,-2.536,-2.5437,-2.5501,-2.5282,-2.5249,-2.5335,0.0,0.0,0.0,0.0,0.0,0.0,0.0,0.0,0.0,0.0,-2.4178,0.0,0.0,0.0,0.0,-2.389,0.0,0.0,0.0,-2.4224,-2.4671,-2.5348,-2.539,0.0,0.0,0.0,0.0,-2.5303,-2.5303,-2.5303,-2.5303,-2.5303,-2.5303,-2.5303,-2.5303,-2.5303,-2.5303,-2.5303,-2.5649,-2.6332,-2.7409,-2.8255,-2.8909,-3.0025,-3.0557,-3.0629,-3.0684,-3.0781,-3.0898,-3.0898,-3.0898,-3.0898,-2.5303,0.0,0.0,-2.4752,0.0,0.0,-2.5303,0.0,0.0,-2.5303,-2.5303,0.0,-2.5303,-2.5406,-2.5463,-2.5463,-2.5605,0.0,-2.5703,0.0,0.0,-2.5703,-2.5703,-2.5633,-2.5482,-2.5354,0.0,-2.4678,0.0,0.0,-2.4678,0.0,0.0,0.0,0.0,-2.5691,0.0,-2.5582,-2.5595,-2.5644,-2.5617,0.0,0.0,-2.5552,-2.5553,-2.5576,-2.5629,-2.558,-2.5507,-2.5492,-2.5409,-2.5274,-2.5163,-2.5214,-2.5274,-2.5163,-2.5214,-2.5303,-2.5303,-2.5303,-2.5303,-2.5303,-2.5439,-2.5552,-2.5479,-2.586,-2.5857,0.0,-2.4495,-2.4337,0.0,0.0,0.0,0.0,0.0,0.0,0.0,0.0,0.0,0.0,-2.447,0.0,0.0,-2.4287,-2.4601,-2.5228,0.0,0.0,0.0,0.0,0.0,-2.5303,-2.5322,-2.5341,-2.5341,-2.5341,-2.5341,-2.5341,-2.5303,-2.5303,-2.5303,-2.5303,-2.5793,-2.6659,-2.7525,-2.8352,-2.9159,-3.0102,-3.0544,-3.0601,-3.0749,-3.082,-3.0898,-3.0898,-3.0898,-3.0898,0.0,0.0,0.0,0.0,0.0,0.0,0.0,-2.5303,0.0,-2.5303,0.0,-2.5346,-2.5346,-2.5558,-2.5703,-2.5703,0.0,-2.5703,-2.5703,-2.5703,-2.5703,-2.5703,-2.5703,-2.5703,-2.5703,-2.5477,0.0,0.0,0.0,0.0,0.0,0.0,0.0,0.0,0.0,0.0,0.0,-2.562,-2.5582,-2.5584,-2.5584,-2.5542,-2.5504,-2.555,-2.5546,-2.5519,-2.5565,-2.5542,-2.5485,-2.5483,-2.5409,-2.5303,-2.5303,-2.5303,-2.5303,-2.5303,-2.5293,-2.5264,-2.5264,-2.5253,-2.5233,-2.5233,-2.565,-2.5848,-2.5106,-2.592,-2.6301,-2.4314,-2.453,-2.4689,0.0,0.0,0.0,0.0,0.0,0.0,0.0,0.0,0.0,0.0,0.0,0.0,0.0,0.0,0.0,0.0,0.0,0.0,0.0,0.0,0.0,-2.5303,-2.537,-2.5409,-2.5409,-2.5399,-2.5399,-2.5409,-2.5341,-2.5322,-2.5322,-2.5447,-2.5967,-2.6842,-2.7727,-2.8497,-2.9198,-3.014,-3.0544,-3.0621,-3.0827,-3.0898,-3.0898,-3.0898,-3.0898,-3.0918,0.0,0.0,0.0,0.0,0.0,-2.5303,-2.5303,-2.5303,-2.5303,-2.5303,-2.5498,-2.5633,-2.5633,-2.5662,-2.5703,-2.5703,-2.5703,0.0,0.0,0.0,0.0,-2.5703,-2.5703,-2.5703,-2.5703,-2.5659,-2.5633,0.0,0.0,0.0,-2.5303,0.0,0.0,0.0,0.0,0.0,-2.5621,-2.555,0.0,-2.552,-2.552,-2.5512,-2.5509,-2.5503,-2.5512,-2.5503,-2.5509,-2.5476,-2.5427,-2.5418,-2.537,-2.5303,-2.537,-2.5341,-2.5303,-2.537,-2.5231,-2.5046,-2.5046,-2.4968,-2.4902,-2.4902,-2.4855,-2.4947,-2.5422,-2.6116,-2.636,-2.5324,-2.5536,-2.5407,-2.388,0.0,0.0,0.0,0.0,0.0,0.0,0.0,0.0,0.0,0.0,0.0,0.0,0.0,0.0,0.0,0.0,0.0,0.0,0.0,0.0,0.0,-2.537,0.0,0.0,0.0,-2.5478,-2.5486,-2.5466,-2.5466,-2.5486,-2.6217,-2.7007,-2.7894,-2.876,-2.919,-2.9317,-3.0225,-3.0621,-3.0698,-3.0846,-3.0898,-3.0898,-3.0898,-3.0898,-3.0996,0.0,0.0,0.0,0.0,0.0,0.0,0.0,-2.5505,0.0,-2.5517,-2.5629,-2.5703,-2.5703,-2.5703,-2.5703,-2.5703,-2.5703,-2.5703,-2.5703,-2.5703,-2.5703,-2.5703,-2.5703,0.0,-2.5703,-2.5703,-2.5703,-2.5703,0.0,0.0,-2.5303,-2.5303,0.0,0.0,0.0,-2.5509,0.0,0.0,0.0,-2.5187,-2.5187,-2.5187,-2.5187,-2.5187,-2.5236,-2.5293,-2.5297,-2.5327,-2.5341,-2.539,-2.537,-2.5303,-2.5341,-2.5322,-2.5303,-2.5341,-2.5182,-2.501,-2.501,-2.4904,-2.4804,-2.4804,-2.4654,-2.4733,-2.5654,-2.5913,-2.5902,-2.5616,-2.5642,-2.5403,-2.4318,-2.3984,0.0,0.0,0.0,0.0,0.0,0.0,0.0,0.0,0.0,0.0,0.0,0.0,0.0,0.0,0.0,0.0,0.0,0.0,-2.5303,0.0,0.0,0.0,-2.5452,0.0,-2.5531,-2.5552,-2.5512,-2.551,-2.5529,-2.6396,-2.7283,-2.8143,-2.9016,-2.9361,-2.9349,-2.9839,-3.0346,-3.0803,-3.0871,-3.0898,-3.0898,-3.0898,-3.1191,-3.1562,0.0,-2.5395,0.0,0.0,-2.5996,0.0,-2.5782,-2.5693,-2.5698,-2.5701,-2.5703,-2.5703,-2.5703,-2.5703,-2.5703,-2.5703,-2.5703,-2.5703,-2.5703,-2.5703,-2.5703,-2.5703,-2.5703,-2.5703,-2.5703,-2.5703,-2.5703,0.0,0.0,0.0,-2.5303,-2.5149,0.0,0.0,0.0,0.0,0.0,0.0,-2.4974,-2.4917,-2.4894,-2.4879,-2.4879,-2.4879,-2.4964,-2.5082,-2.5082,-2.5184,-2.5322,-2.539,-2.5331,-2.5243,-2.5252,-2.5241,-2.5201,-2.5198,-2.5049,-2.4879,-2.4879,-2.478,-2.4685,-2.4731,-2.4607,-2.4748,-2.5778,-2.5889,-2.5801,-2.5797,-2.5523,-2.515,-2.4669,-2.4586,0.0,0.0,0.0,0.0,0.0,0.0,0.0,0.0,0.0,0.0,0.0,0.0,0.0,0.0,0.0,0.0,0.0,0.0,0.0,0.0,0.0,-2.5462,-2.5523,0.0,-2.5576,-2.5625,-2.5579,-2.5644,-2.5839,-2.672,-2.7484,-2.8189,-2.9071,-2.9414,-2.9367,-2.9284,-2.9911,-3.0898,-3.0898,-3.0898,-3.0918,-3.1113,-3.1601,-3.2129,0.0,0.0,0.0,0.0,0.0,0.0,-2.6177,-2.5699,-2.5701,-2.5703,-2.5703,-2.5703,-2.5703,-2.5703,-2.5703,-2.5703,-2.5703,-2.5703,-2.5703,-2.5703,-2.5703,-2.5703,-2.5703,-2.5703,-2.5703,-2.5703,-2.5703,0.0,0.0,-2.5543,0.0,-2.462,0.0,0.0,0.0,0.0,0.0,-2.4701,-2.4764,-2.4974,-2.4855,-2.4804,-2.4804,-2.4804,-2.4896,-2.5018,-2.5018,-2.5179,-2.539,-2.5409,-2.5231,-2.5041,-2.5107,-2.4999,-2.4851,-2.4851,-2.4701,-2.4543,-2.4543,-2.4392,-2.4303,-2.4478,-2.4512,-2.4748,-2.5778,-2.658,-2.6911,-2.6218,-2.5467,-2.4928,-2.4874,-2.486,-2.494,0.0,0.0,0.0,0.0,0.0,0.0,0.0,0.0,0.0,0.0,-2.4776,0.0,0.0,0.0,0.0,0.0,0.0,0.0,-2.5486,-2.5543,-2.5572,-2.5582,-2.5644,-2.5682,-2.5684,-2.5683,-2.6093,-2.6893,-2.7753,-2.8202,-2.8339,-2.9199,-2.9589,-2.9511,-2.8727,-2.9393,-3.0898,-3.0898,-3.0898,-3.0996,-3.1797,-3.2129,-3.2285,0.0,0.0,0.0,0.0,0.0,0.0,0.0,-2.5703,-2.5703,-2.5703,-2.5703,-2.5703,-2.5703,-2.5703,-2.5703,-2.5703,-2.5703,-2.5703,-2.5703,-2.5703,-2.5703,-2.5703,-2.5703,-2.5703,-2.5703,-2.5703,-2.5703,0.0,0.0,0.0,0.0,0.0,0.0,0.0,0.0,-2.6157,-2.5091,-2.4877,-2.4752,-2.4693,-2.4636,-2.4561,-2.4444,-2.4559,-2.4738,-2.4894,-2.5025,-2.5233,-2.5467,-2.5456,-2.5365,-2.5248,-2.5272,-2.5114,-2.493,-2.5057,-2.4893,-2.47,-2.478,-2.4678,-2.458,-2.4655,-2.4673,-2.4963,-2.6046,-2.6041,-2.5898,-2.6211,-2.5513,-2.4849,-2.4947,-2.4965,-2.5039,-2.5284,0.0,0.0,0.0,0.0,0.0,0.0,0.0,0.0,0.0,0.0,0.0,0.0,0.0,0.0,0.0,0.0,0.0,-2.5492,0.0,-2.555,-2.5601,-2.5626,-2.566,-2.5703,-2.5703,-2.5879,-2.625,-2.7129,-2.7776,-2.8229,-2.8054,-2.854,-2.9409,-2.8548,-2.9203,-3.0781,-3.0781,-3.082,-3.0937,-3.1289,-3.2051,-3.2969,-2.5303,0.0,-3.0071,0.0,-2.6899,-2.5363,-2.5551,-2.557,-2.5605,-2.5683,-2.5703,-2.5703,-2.5703,-2.5703,-2.5703,-2.5703,-2.5703,-2.5703,-2.5703,-2.5703,-2.5703,-2.5703,-2.5703,0.0,-2.5703,-2.5609,-2.557,-2.557,-2.5609,0.0,0.0,0.0,0.0,0.0,-2.5975,-2.5322,-2.536,-2.5145,-2.4917,-2.467,-2.4594,-2.4498,-2.4393,-2.4532,-2.472,-2.4907,-2.5042,-2.528,-2.5506,-2.5477,-2.5444,-2.5383,-2.5346,-2.5177,-2.4994,-2.5139,-2.501,-2.4851,-2.4936,-2.4902,-2.4837,-2.4877,-2.4886,-2.5175,-2.6271,-2.5921,-2.5574,-2.636,-2.572,-2.5039,-2.5133,-2.515,-2.5205,-2.54,0.0,0.0,0.0,0.0,0.0,0.0,-2.5292,-2.523,-2.523,0.0,0.0,0.0,0.0,0.0,0.0,0.0,0.0,0.0,0.0,0.0,-2.5628,-2.5621,-2.5654,-2.5703,-2.5703,-2.582,-2.6094,-2.6702,-2.7287,-2.7759,-2.6872,-2.7458,-2.8965,-2.8342,-2.9129,-3.0707,-3.07,-3.0781,-3.0937,-3.1191,-3.2031,-3.3086,-2.5303,-2.8052,-2.9321,-2.5937,-2.5322,-2.5313,-2.5293,-2.5293,-2.5398,-2.5661,-2.5703,-2.5703,-2.5703,-2.5703,-2.5703,-2.5703,-2.5703,-2.5703,-2.5703,-2.5703,-2.5703,0.0,0.0,-2.5703,-2.5703,-2.5441,-2.5293,-2.5293,0.0,0.0,-3.0768,0.0,-2.4923,-2.4283,-2.4987,-2.537,-2.5505,-2.5486,-2.5341,-2.509,-2.4879,-2.4782,-2.4794,-2.4789,-2.4911,-2.5106,-2.5107,-2.5279,-2.5488,-2.543,-2.5403,-2.538,-2.5239,-2.5061,-2.4915,-2.4893,-2.4901,-2.4898,-2.4898,-2.4898,-2.4936,-2.5058,-2.5099,-2.5359,-2.6363,-2.664,-2.6706,-2.6779,-2.6092,-2.5495,-2.5495,-2.5495,-2.5495,-2.5495,0.0,0.0,0.0,0.0,0.0,0.0,-2.5465,-2.5508,-2.5508,0.0,0.0,0.0,0.0,0.0,0.0,0.0,0.0,-2.5684,-2.5625,0.0,-2.5703,-2.5703,-2.5703,-2.5703,-2.5703,-2.6152,-2.6972,-2.6935,-2.6921,-2.6853,-2.5919,-2.6515,-2.8112,-2.8096,-2.9125,-3.0689,-3.069,-3.0781,-3.0996,-3.1875,-3.2207,-3.2324,-2.7382,-2.7348,-2.6572,-2.5495,-2.5303,-2.5303,-2.5303,-2.5303,-2.5321,-2.5427,-2.5421,-2.5421,-2.5421,-2.5595,-2.5703,0.0,-2.5703,-2.5703,0.0,-2.5703,-2.5703,-2.5703,-2.5531,-2.5517,-2.5703,-2.5609,-2.5524,-2.5447,0.0,0.0,0.0,-2.586,-2.5171,-2.4968,-2.5395,-2.5603,-2.5619,-2.5579,-2.5415,-2.5163,-2.5098,-2.5,-2.4884,-2.4971,-2.5067,-2.5175,-2.5266,-2.5388,-2.5499,-2.5479,-2.5471,-2.5471,-2.5425,-2.5191,-2.4994,-2.5195,-2.5117,-2.5007,-2.5133,-2.5167,-2.518,-2.5288,-2.5292,-2.5391,-2.5762,-2.5732,-2.5582,-2.5456,-2.5228,-2.5044,-2.5134,-2.5157,-2.5209,-2.5331,-2.537,0.0,-2.5322,0.0,0.0,0.0,-2.5387,-2.5446,-2.5496,-2.5537,0.0,0.0,0.0,0.0,0.0,0.0,0.0,0.0,-2.5561,0.0,-2.5561,-2.5561,-2.5561,-2.5561,-2.5561,-2.5717,-2.597,-2.5954,-2.5913,-2.5861,-2.5563,-2.6409,-2.7948,-2.7956,-2.8994,-3.056,-3.0554,-3.0648,-3.0801,-3.1074,-3.1601,-3.2246,-2.6814,-2.5942,-2.4891,-2.4891,-2.4891,-2.4891,-2.4891,-2.5118,-2.5303,-2.5303,-2.5303,-2.5303,-2.5303,-2.5447,0.0,-2.5683,-2.5703,-2.5703,-2.5703,-2.5703,-2.5659,-2.5554,-2.512,-2.509,-2.5547,-2.5443,0.0,-2.543,-2.5471,-2.5453,-2.5369,-2.5434,-2.5453,-2.5459,-2.5631,-2.5703,-2.5703,-2.5664,-2.5525,-2.5344,-2.534,-2.5234,-2.5059,-2.5176,-2.5236,-2.5286,-2.5366,-2.5421,-2.5466,-2.5428,-2.5428,-2.5428,-2.5447,-2.5305,-2.5152,-2.5363,-2.5314,-2.523,-2.5343,-2.5375,-2.5375,-2.5395,-2.5396,-2.5389,-2.5322,-2.538,-2.5404,-2.5276,-2.5261,-2.53,-2.5438,-2.5208,-2.5077,-2.5264,-2.5303,-2.5303,-2.5303,0.0,-2.5418,0.0,0.0,0.0,0.0,-2.5739,-2.5621,0.0,0.0,0.0,0.0,0.0,-2.5567,-2.5611,-2.5511,-2.546,-2.5499,-2.5499,-2.5499,-2.5499,-2.5499,-2.5499,-2.5499,-2.546,-2.5434,-2.5409,-2.537,-2.6332,-2.789,-2.789,-2.8929,-3.0498,-3.0501,-3.0579,-3.0704,-3.0699,-3.1133,-3.1719,-2.419,-2.419,-2.419,0.0,-2.419,-2.419,-2.419,-2.478,-2.5214,-2.5214,-2.5214,-2.5243,-2.5284,-2.5303,-2.5406,-2.5658,0.0,0.0,-2.5662,-2.5662,-2.5558,-2.5303,-2.4588,-2.4508,-2.5203,-2.5015,-2.5026,-2.5262,-2.5393,-2.5466,-2.5506,-2.5623,-2.5681,-2.5662,-2.5662,-2.5662,-2.5662,-2.5681,-2.564,-2.5595,-2.5595,-2.548,-2.531,-2.5368,-2.5393,-2.5394,-2.5385,-2.538,-2.539,-2.5322,-2.5303,-2.5303,-2.537,-2.5341,-2.5322,-2.5466,-2.5486,-2.5486,-2.5486,-2.5486,-2.5466,-2.5409,-2.5447,-2.5388,-2.5065,-2.5522,-2.6001,-2.5929,-2.5929,-2.597,-2.6097,-2.5501,-2.5077,-2.5264,-2.5303,-2.5322,-2.538,-2.5341,-2.5649,0.0,0.0,0.0,-2.6612,-2.6041,-2.5585,0.0,0.0,0.0,0.0,0.0,-2.5531,-2.5592,-2.5466,-2.5428,-2.5486,-2.5486,-2.5486,-2.5486,-2.5486,-2.5486,-2.5486,-2.5428,-2.539,-2.539,-2.5322,-2.6294,-2.789,-2.789,-2.8929,-3.0487,-3.0487,-3.0564,-3.0689,-3.0687,-3.0781,-3.0898,0.0,0.0,-2.419,-2.419,-2.419,-2.419,-2.419,-2.4357,-2.4459,-2.4459,-2.4459,-2.4663,-2.5243,-2.5303,-2.5331,-2.5383,-2.5391,-2.5391,-2.5391,-2.5391,-2.5371,-2.5293,-2.4588,-2.4284,-2.4459,-2.4738,-2.4917,-2.4996,-2.5023,-2.5207,-2.5495,-2.5534,-2.5495,-2.5391,-2.5391,-2.5391,-2.5391,-2.5495,-2.5561,-2.5597,-2.5539,-2.5506,-2.5422,-2.5235,-2.5274,-2.5365,-2.5173,-2.5182,-2.5322,-2.5303,-2.5303,-2.5303,-2.5322,-2.5303,-2.5322,-2.5409,-2.539,-2.5341,-2.5341,-2.5341,-2.5341,-2.5322,-2.5832,-2.609,-2.5199,-2.5641,-2.5999,-2.5234,-2.5073,-2.513,-2.5247,-2.5132,-2.5077,-2.5264,-2.5303,-2.5534,-2.6197,-2.5707,-2.587,0.0,-2.6255,-2.5688,-2.6612,-2.5989,-2.5546,0.0,0.0,0.0,-2.5703,-2.5623,-2.5566,-2.5515,-2.5447,-2.539,-2.5341,-2.5341,-2.5341,-2.5341,-2.5341,-2.5341,-2.5341,-2.5322,-2.5322,-2.5322,-2.5303,-2.6294,-2.789,-2.789,-2.8909,-3.0417,-3.0417,-3.0506,-3.0629,-3.0626,-3.0738,-3.0898,-2.419,-2.419,-2.419,-2.419,-2.419,-2.419,-2.419,-2.419,-2.419,-2.419,-2.419,-2.4357,-2.4752,-2.4795,-2.4795,-2.4795,-2.5115,-2.5303,-2.5303,-2.4981,-2.4795,-2.4795,-2.4409,-2.419,-2.419,-2.4446,-2.4679,-2.4842,-2.4842,-2.4959,-2.5175,-2.5203,-2.525,-2.5303,-2.5303,-2.5303,-2.5303,-2.539,-2.5428,-2.5457,-2.5252,-2.5199,-2.5203,-2.5025,-2.5038,-2.5118,-2.503,-2.5077,-2.5173,-2.5264,-2.5303,-2.5303,-2.5303,-2.5303,-2.5303,-2.5341,-2.5322,-2.5303,-2.5303,-2.5303,-2.5303,-2.5303,-2.5896,-2.6309,-2.5729,-2.6173,-2.6565,-2.6008,-2.5601,-2.5381,-2.552,-2.5246,-2.5077,-2.5264,-2.5303,-2.5457,-2.5947,-2.5591,-2.5813,-2.714,-2.612,-2.5659,-2.6564,-2.5938,-2.548,-2.5559,-2.5622,0.0,-2.5703,-2.5664,-2.5606,-2.5544,-2.5486,-2.5428,-2.539,-2.539,-2.539,-2.5341,-2.5341,-2.5322,-2.5303,-2.5303,-2.5303,-2.5303,-2.5303,-2.6063,-2.7332,-2.7736,-2.864,-2.9852,-3.0275,-3.0506,-3.0606,-3.0636,-3.0755,-3.0898,-2.419,-2.419,-2.419,-2.419,-2.419,-2.419,-2.419,-2.4034,-2.3915,-2.3915,-2.3915,-2.3994,-2.417,-2.419,-2.419,-2.419,-2.4766,-2.5118,-2.5118,-2.454,-2.419,-2.419,-2.419,-2.419,-2.419,-2.419,-2.4357,-2.4716,-2.4716,-2.4731,-2.476,-2.4804,-2.4981,-2.5212,-2.5264,-2.5303,-2.5303,-2.5303,-2.5303,-2.5264,-2.491,-2.4795,-2.4845,-2.4785,-2.4775,-2.4818,-2.4885,-2.4949,-2.4998,-2.5192,-2.5264,-2.5264,-2.5284,-2.5303,-2.5303,-2.5303,-2.5274,-2.5264,-2.5264,-2.5243,-2.5233,-2.5253,-2.578,-2.627,-2.618,-2.6654,-2.707,-2.6942,-2.6374,-2.593,-2.6041,-2.5519,-2.5099,-2.5274,-2.5303,-2.5341,-2.5476,0.0,-2.587,-2.6851,-2.6217,-2.6043,-2.689,-2.6255,-2.5829,-2.5873,-2.5822,-2.5879,-2.6074,-2.5957,-2.5871,-2.5804,-2.5618,-2.5562,-2.5706,-2.5706,-2.5658,-2.56,-2.5486,-2.539,-2.5322,-2.5322,-2.5322,-2.5322,-2.5322,-2.589,-2.6851,-2.7582,-2.8448,-2.9371,-3.0179,-3.0518,-3.059,-3.0648,-3.0762,-3.0857,-2.419,-2.419,-2.419,-2.419,-2.419,-2.419,-2.419,-2.3283,-2.2588,-2.2588,-2.2588,-2.2993,-2.4074,-2.419,-2.419,-2.419,-2.4303,-2.4356,-2.4356,-2.4266,-2.419,-2.419,-2.419,-2.419,-2.419,-2.419,-2.4228,-2.4284,-2.4284,-2.4375,-2.4561,-2.4559,-2.4623,-2.4731,-2.5126,-2.5303,-2.5303,-2.5303,-2.5303,-2.5253,-2.4799,-2.4642,-2.4639,-2.4559,-2.4654,-2.479,-2.462,-2.4682,-2.4855,-2.5005,-2.5046,-2.5077,-2.5253,-2.5303,-2.5303,-2.5303,-2.5173,-2.5046,-2.5046,-2.4956,-2.4896,-2.503,-2.5671,-2.6142,-2.5578,-2.6107,-2.6469,-2.5759,-2.551,-2.5414,-2.5435,-2.533,-2.5264,-2.5284,-2.5303,-2.5553,-2.6294,0.0,-2.6967,-2.8525,-2.7986,-2.7813,-2.8621,-2.8035,-2.7594,-2.7615,-2.7039,-2.7012,-2.7773,-2.7168,-2.6796,-2.6788,-2.6002,-2.591,-2.6596,-2.6596,-2.6596,-2.6576,-2.5846,-2.5486,-2.5466,-2.5466,-2.5447,-2.539,-2.539,-2.6255,-2.7717,-2.7832,-2.8813,-3.0217,-3.0359,-3.0471,-3.0516,-3.0535,-3.0574,-3.0652,-2.419,-2.419,-2.3976,-2.3307,-2.3188,-2.3188,-2.3188,-2.2694,-2.231,-2.231,-2.231,-2.2525,-2.3116,-2.3792,-2.419,-2.419,-2.419,-2.419,-2.419,-2.419,-2.3894,-2.3212,-2.3834,-2.419,-2.419,-2.419,-2.419,-2.419,-2.419,-2.4247,-2.4339,-2.4339,-2.441,-2.4545,-2.4666,-2.4799,-2.4936,-2.5182,-2.5072,-2.4678,-2.4478,-2.4375,-2.4375,-2.4339,-2.4393,-2.4478,-2.4495,-2.4561,-2.4685,-2.4924,-2.501,-2.5034,-2.5243,-2.5303,-2.5303,-2.5303,-2.5163,-2.4986,-2.4917,-2.4842,-2.4799,-2.4883,-2.5517,-2.6089,-2.5872,-2.6156,-2.6351,-2.6062,-2.563,-2.5303,-2.5303,-2.5303,-2.5303,-2.5303,-2.5303,-2.5437,-2.5851,-2.6294,-2.689,-2.7659,-2.7832,-2.8044,-2.8409,-2.8151,-2.7958,-2.8005,-2.7679,-2.7706,-2.8164,-2.7851,-2.7641,-2.7647,-2.6814,-2.6759,-2.7598,-2.7149,-2.6895,-2.6837,-2.5976,-2.5521,-2.5498,-2.5498,-2.5478,-2.5452,-2.5427,-2.612,-2.7283,-2.7717,-2.8602,-2.9756,-3.0256,-3.0466,-3.0501,-3.054,-3.0569,-3.0615,-2.4151,-2.3955,-2.3445,-2.247,-2.231,-2.2152,-2.1751,-2.1691,-2.1857,-2.2254,-2.231,-2.231,-2.231,-2.3188,-2.3894,-2.417,-2.419,-2.419,-2.419,-2.3915,-2.3312,-2.2338,-2.3513,-2.419,-2.419,-2.419,-2.419,-2.419,-2.419,-2.419,-2.419,-2.419,-2.4303,-2.4495,-2.4339,-2.4357,-2.4528,-2.4877,-2.4708,-2.419,-2.419,-2.419,-2.419,-2.419,-2.419,-2.4209,-2.4375,-2.4426,-2.4478,-2.4776,-2.4911,-2.4993,-2.5163,-2.5264,-2.5303,-2.5303,-2.513,-2.4911,-2.4771,-2.47,-2.467,-2.4716,-2.5182,-2.571,-2.5933,-2.6003,-2.6039,-2.6263,-2.5774,-2.5303,-2.5303,-2.5303,-2.536,-2.5572,0.0,-2.5668,-2.589,-2.664,-2.7178,-2.7178,-2.7948,-2.8486,-2.8486,-2.8486,-2.8494,-2.8541,-2.8376,-2.8431,-2.8736,-2.8592,-2.8602,-2.8806,-2.8022,-2.791,-2.8594,-2.7949,-2.748,-2.7207,-2.6348,-2.5793,-2.5551,-2.5551,-2.5632,-2.5809,-2.5751,-2.6314,-2.7302,-2.7928,-2.8659,-2.9467,-3.0198,-3.0487,-3.0487,-3.0525,-3.0564,-3.0583,-2.3955,-2.3259,-2.2405,-2.231,-2.231,-2.1751,-2.0139,-1.9874,-2.0465,-2.2077,-2.231,-2.231,-2.231,-2.2377,-2.2935,-2.4112,-2.419,-2.419,-2.419,-2.3091,-2.2405,-2.231,-2.3513,-2.419,-2.419,-2.419,-2.419,-2.419,-2.419,-2.419,-2.419,-2.419,-2.4303,-2.4512,-2.4545,-2.4445,-2.4228,-2.4266,-2.4247,-2.419,-2.419,-2.419,-2.419,-2.419,-2.419,-2.419,-2.4209,-2.4228,-2.4247,-2.4461,-2.467,-2.4842,-2.4974,-2.5152,-2.5303,-2.5303,-2.508,-2.4775,-2.4594,-2.4393,-2.4284,-2.4478,-2.4566,-2.4698,-2.5032,-2.5106,-2.5141,-2.536,-2.5341,-2.5303,-2.5303,-2.5303,-2.5553,-2.637,0.0,0.0,-2.7582,-2.8409,-2.8909,-2.8909,-2.9698,-3.0206,-3.0206,-3.0206,-3.0206,-3.0225,-2.9529,-2.9494,-3.0389,-2.9773,-2.9798,-3.066,-2.9803,-2.9375,-2.9492,-2.9434,-2.9004,-2.8184,-2.7305,-2.6465,-2.5683,-2.5683,-2.6052,-2.6701,-2.6689,-2.7547,-2.8929,-2.8986,-2.9525,-3.0302,-3.0379,-3.0398,-3.0398,-3.0398,-3.0448,-3.0525,-2.2935,-2.2642,-2.231,-2.231,-2.1401,-2.0465,-1.9782,-1.969,-2.0345,-2.2077,-2.231,-2.3004,-2.4831,-2.5865,-2.5834,-2.4316,-2.419,-2.419,-2.419,-2.3017,-2.231,-2.231,-2.3513,-2.419,-2.419,-2.419,-2.419,-2.419,-2.419,-2.419,-2.419,-2.4339,-2.4428,-2.4512,-2.4654,-2.461,-2.4375,-2.4247,-2.419,-2.419,-2.419,-2.419,-2.419,-2.419,-2.419,-2.419,-2.419,-2.419,-2.4228,-2.4426,-2.4561,-2.4639,-2.4828,-2.4936,-2.4994,-2.4994,-2.4902,-2.476,-2.4543,-2.4339,-2.4209,-2.4303,-2.4321,-2.4393,-2.4617,-2.478,-2.5069,-2.5784,-2.602,-2.6274,-2.6813,-2.6909,-2.7024,-2.7351,0.0,-2.7525,-2.7852,-2.8582,-2.9102,-2.9102,-2.9871,-3.0398,-3.0398,-3.0398,-3.0398,-3.0398,-3.0129,-3.0129,-3.0525,-3.0261,-3.0302,-3.07,-3.0367,-3.0253,-3.0391,-2.9336,-2.8633,-2.8281,-2.6875,-2.6016,-2.5723,-2.6223,-2.6594,-2.6892,-2.7344,-2.8164,-2.9156,-2.9121,-2.9602,-3.0398,-3.0448,-3.0467,-3.0467,-3.0506,-3.0544,-3.0564,-2.231,-2.231,-2.2123,-2.1584,-2.0499,-1.969,-1.969,-2.0139,-2.0942,-2.2152,-2.231,-2.3613,-2.7031,-2.8386,-2.8095,-2.5897,-2.4777,-2.419,-2.419,-2.3376,-2.2721,-2.231,-2.3513,-2.419,-2.419,-2.419,-2.419,-2.419,-2.419,-2.4247,-2.4321,-2.4479,-2.4575,-2.4648,-2.4795,-2.4756,-2.4594,-2.4444,-2.4321,-2.419,-2.419,-2.419,-2.419,-2.419,-2.419,-2.419,-2.419,-2.419,-2.4228,-2.4357,-2.4444,-2.4528,-2.4654,-2.4746,-2.4804,-2.4804,-2.476,-2.467,-2.4545,-2.4339,-2.419,-2.419,-2.419,-2.4321,-2.4778,-2.503,-2.5466,-2.6466,-2.6849,-2.7198,-2.7794,-2.789,-2.7986,-2.8236,-2.8275,-2.8371,-2.864,-2.9159,-2.9506,-2.9506,-3.0044,-3.0398,-3.0398,-3.0398,-3.0398,-3.0398,-3.0398,-3.0417,-3.0506,-3.0524,-3.0542,-3.0595,-3.0604,-3.0664,-3.0808,-2.9413,-2.8574,-2.8281,-2.68,-2.5938,-2.5701,-2.6494,-2.7014,-2.7282,-2.8057,-2.8837,-2.9567,-2.9552,-2.989,-3.0448,-3.0506,-3.0524,-3.054,-3.0578,-3.0604,-3.0641,-2.231,-2.231,-2.1751,-2.0015,-1.969,-1.9711,-1.9711,-2.1197,-2.231,-2.231,-2.2327,-2.4041,-2.8492,-2.8994,-2.8994,-2.8994,-2.6062,-2.419,-2.419,-2.419,-2.3642,-2.2377,-2.3535,-2.419,-2.419,-2.419,-2.419,-2.419,-2.419,-2.4339,-2.4594,-2.4594,-2.4756,-2.501,-2.501,-2.493,-2.4804,-2.4804,-2.4578,-2.419,-2.419,-2.419,-2.419,-2.419,-2.419,-2.419,-2.419,-2.419,-2.419,-2.419,-2.4321,-2.4495,-2.4495,-2.4639,-2.4804,-2.4804,-2.4654,-2.4495,-2.4495,-2.4339,-2.419,-2.419,-2.419,-2.4449,-2.5485,-2.5858,-2.6284,-2.7309,-2.7719,-2.7909,-2.7909,-2.7909,-2.8179,-2.8967,-2.9102,-2.941,-3.0294,-3.0398,-3.0398,-3.0398,-3.0398,-3.0398,-3.0398,-3.0398,-3.0398,-3.0398,-3.0398,-3.0417,-3.0506,-3.0564,-3.0602,-3.0602,-3.0602,-3.0608,-3.06,-2.9927,-2.916,-2.8301,-2.7369,-2.6458,-2.563,-2.6461,-2.7245,-2.8049,-2.8856,-2.9663,-3.0398,-3.0467,-3.0506,-3.0506,-3.0564,-3.0598,-3.06,-3.0606,-3.064,-3.071,-2.2716,-2.231,-2.1751,-2.0015,-1.969,-2.012,-2.1323,-2.1991,-2.231,-2.231,-2.505,-2.7508,-2.886,-2.8994,-2.8994,-2.8994,-2.6062,-2.419,-2.419,-2.419,-2.4034,-2.3646,-2.4014,-2.419,-2.419,-2.419,-2.419,-2.419,-2.4522,-2.4733,-2.4804,-2.4858,-2.4924,-2.501,-2.5152,-2.5061,-2.4804,-2.4804,-2.4578,-2.419,-2.419,-2.419,-2.419,-2.419,-2.419,-2.419,-2.419,-2.419,-2.419,-2.419,-2.4247,-2.4284,-2.4284,-2.4445,-2.4575,-2.4575,-2.4561,-2.4495,-2.4495,-2.4339,-2.419,-2.419,-2.419,-2.4429,-2.5279,-2.5652,-2.6184,-2.7638,-2.8249,-2.8702,-2.9262,-2.9519,-2.9737,-2.9967,-3.0006,-3.0102,-3.0359,-3.0398,-3.0398,-3.0398,-3.0398,-3.0398,-3.0398,-3.0398,-3.0398,-3.0398,-3.0398,-3.0398,-3.0417,-3.0448,-3.0467,-3.0467,-3.0506,-3.0532,-3.053,-2.9771,-2.9254,-2.8981,-2.8139,-2.7295,-2.6497,-2.7856,-2.8307,-2.8069,-2.9444,-3.0186,-3.0398,-3.0467,-3.0506,-3.0506,-3.0621,-3.0678,-3.0675,-3.0771,-3.0819,-3.0837,-2.2885,-2.231,-2.1751,-2.0015,-2.0277,-2.1086,-2.2152,-2.2747,-2.3042,-2.3042,-2.6537,-2.8994,-2.8994,-2.8994,-2.8994,-2.8994,-2.6062,-2.419,-2.419,-2.419,-2.419,-2.419,-2.419,-2.419,-2.419,-2.4493,-2.4636,-2.4636,-2.4911,-2.5065,-2.5065,-2.5099,-2.5111,-2.5111,-2.5163,-2.5037,-2.479,-2.4716,-2.4495,-2.419,-2.419,-2.419,-2.419,-2.419,-2.419,-2.419,-2.419,-2.419,-2.419,-2.419,-2.419,-2.419,-2.419,-2.4284,-2.4375,-2.4375,-2.4375,-2.4375,-2.4375,-2.4284,-2.419,-2.419,-2.419,-2.4483,-2.5621,-2.6022,-2.6637,-2.8276,-2.8907,-2.9319,-2.9889,-3.0136,-3.0286,-3.0379,-3.0398,-3.0513,-3.0871,-3.0621,-3.0533,-3.0871,-3.0609,-3.0398,-3.0398,-3.0398,-3.0398,-3.0398,-3.0398,-3.0398,-3.0398,-3.0398,-3.0398,-3.0398,-3.0448,-3.0467,-3.0467,-2.9979,-2.9586,-2.9287,-2.8454,-2.7776,-2.7323,-2.8591,-2.8906,-2.8514,-2.9821,-3.0398,-3.0398,-3.0467,-3.0494,-3.05,-3.0617,-3.0656,-3.0673,-3.0743,-3.0782,-3.0782,-2.2914,-2.231,-2.1781,-2.0208,-2.126,-2.2338,-2.2443,-2.3445,-2.419,-2.419,-2.7082,-2.9115,-2.9115,-2.9115,-2.8983,-2.8594,-2.5897,-2.419,-2.419,-2.419,-2.419,-2.419,-2.419,-2.419,-2.419,-2.4917,-2.5303,-2.5303,-2.5303,-2.5303,-2.5303,-2.5303,-2.5303,-2.5284,-2.5088,-2.493,-2.479,-2.4594,-2.4393,-2.419,-2.419,-2.419,-2.419,-2.419,-2.419,-2.419,-2.419,-2.419,-2.419,-2.419,-2.419,-2.419,-2.419,-2.419,-2.419,-2.419,-2.419,-2.419,-2.419,-2.419,-2.419,-2.419,-2.4245,-2.4704,-2.6245,-2.6799,-2.7438,-2.9037,-2.9532,-2.9731,-2.9908,-3.0041,-3.0171,-3.0343,-3.0456,-3.0775,-3.1487,-3.091,-3.0717,-3.1602,-3.1006,-3.0533,-3.0609,-3.0609,-3.0552,-3.0398,-3.0533,-3.059,-3.0513,-3.0571,-3.0609,-3.0609,-3.0552,-3.0513,-3.0513,-3.0436,-3.0071,-2.9394,-2.8587,-2.8176,-2.8118,-2.8871,-2.9159,-2.914,-3.0025,-3.0398,-3.0398,-3.0467,-3.049,-3.0521,-3.0581,-3.0601,-3.0601,-3.0601,-3.0601,-3.0601,-2.3106,-2.231,-2.218,-2.1781,-2.2049,-2.2642,-2.3642,-2.4034,-2.419,-2.419,-2.7641,-3.0099,-3.0099,-3.0099,-2.879,-2.5518,-2.4593,-2.419,-2.419,-2.419,-2.419,-2.419,-2.419,-2.419,-2.419,-2.4917,-2.5303,-2.5303,-2.5303,-2.5303,-2.5303,-2.5303,-2.5303,-2.5284,-2.5088,-2.493,-2.479,-2.4594,-2.4393,-2.419,-2.419,-2.419,-2.419,-2.419,-2.419,-2.419,-2.419,-2.419,-2.419,-2.419,-2.419,-2.419,-2.419,-2.419,-2.419,-2.419,-2.419,-2.419,-2.419,-2.419,-2.419,-2.419,-2.4667,-2.5383,-2.6374,-2.7114,-2.7874,-2.8887,-2.9289,-2.9493,-2.9532,-3.0345,-3.081,-3.019,-3.0842,-3.1256,-3.0756,-3.0513,-3.0717,-3.1602,-3.1525,-3.1679,-3.2295,-3.2352,-3.1814,-3.0494,-3.1621,-3.2083,-3.1448,-3.2025,-3.2352,-3.2352,-3.1756,-3.1429,-3.1429,-3.0737,-3.0321,-3.0167,-2.9975,-2.9514,-2.889,-2.9737,-2.9756,-2.914,-3.0025,-3.0398,-3.0398,-3.0467,-3.051,-3.0516,-3.0576,-3.0595,-3.0595,-3.0595,-3.0595,-3.0595,-2.4863,-2.3274,-2.231,-2.231,-2.231,-2.273,-2.4014,-2.419,-2.4321,-2.4678,-2.8045,-3.0398,-3.0398,-3.0398,-2.8731,-2.4561,-2.419,-2.419,-2.419,-2.419,-2.419,-2.419,-2.419,-2.419,-2.419,-2.4572,-2.4943,-2.5303,-2.5303,-2.5303,-2.5303,-2.5303,-2.5224,-2.5099,-2.4998,-2.4831,-2.4639,-2.4426,-2.4303,-2.419,-2.419,-2.419,-2.419,-2.419,-2.419,-2.419,-2.419,-2.419,-2.419,-2.419,-2.419,-2.419,-2.419,-2.419,-2.419,-2.419,-2.419,-2.419,-2.419,-2.419,-2.4281,-2.4667,-2.5364,-2.608,-2.6502,-2.7218,-2.8026,-2.881,-2.9203,-2.9565,-3.0076,-3.0798,-3.1187,-3.0852,-3.1616,-3.2102,-3.166,-3.1602,-3.1929,-3.2795,-3.2526,-3.2449,-3.2852,-3.2891,-3.2372,-3.1121,-3.2199,-3.2545,-3.1737,-3.2468,-3.2891,-3.2891,-3.2122,-3.1698,-3.1698,-3.1256,-3.1025,-3.1025,-3.059,-3.039,-3.0333,-3.039,-3.016,-2.9756,-3.0198,-3.0398,-3.0398,-3.0448,-3.0448,-3.0467,-3.0487,-3.0506,-3.0506,-3.0506,-3.0525,-3.0544,-2.5947,-2.3985,-2.231,-2.231,-2.247,-2.2968,-2.4034,-2.4321,-2.4604,-2.5233,-2.8283,-3.0167,-2.959,-2.941,-2.7956,-2.4505,-2.419,-2.419,-2.419,-2.419,-2.4094,-2.3876,-2.4074,-2.419,-2.419,-2.419,-2.4556,-2.5303,-2.5303,-2.5303,-2.5303,-2.5243,-2.5072,-2.4771,-2.4831,-2.4704,-2.4495,-2.4284,-2.419,-2.419,-2.419,-2.419,-2.419,-2.419,-2.419,-2.419,-2.419,-2.419,-2.419,-2.419,-2.419,-2.419,-2.419,-2.419,-2.419,-2.419,-2.419,-2.419,-2.419,-2.43,-2.4557,-2.5237,-2.6098,-2.6814,-2.6814,-2.7438,-2.8227,-2.9053,-2.9363,-2.9859,-3.0884,-3.1385,-3.1688,-3.1774,-3.2545,-3.3064,-3.291,-3.2865,-3.316,-3.4024,-3.358,-3.3177,-3.305,-3.3185,-3.2891,-3.1968,-3.2795,-3.2987,-3.2179,-3.291,-3.3333,-3.3333,-3.2545,-3.2064,-3.191,-3.191,-3.191,-3.191,-3.1179,-3.1141,-3.1679,-3.0814,-3.0398,-3.0398,-3.0398,-3.0398,-3.0398,-3.0398,-3.0398,-3.0398,-3.0398,-3.0398,-3.0398,-3.0398,-3.0448,-3.0487,-2.2902,-2.2581,-2.231,-2.231,-2.3212,-2.4014,-2.417,-2.4737,-2.5182,-2.5293,-2.8283,-2.9264,-2.6303,-2.5416,-2.4801,-2.4246,-2.419,-2.419,-2.419,-2.419,-2.3707,-2.2615,-2.3602,-2.419,-2.419,-2.419,-2.4556,-2.5303,-2.5303,-2.5303,-2.5284,-2.4987,-2.4651,-2.4303,-2.4495,-2.4578,-2.4561,-2.4303,-2.419,-2.419,-2.419,-2.419,-2.419,-2.419,-2.419,-2.419,-2.419,-2.419,-2.419,-2.419,-2.419,-2.419,-2.419,-2.419,-2.419,-2.419,-2.419,-2.419,-2.419,-2.4704,-2.5274,-2.5384,-2.6521,-2.764,-2.764,-2.8264,-2.9072,-2.9879,-3.0068,-3.0354,-3.1175,-3.232,-3.2901,-3.2239,-3.32,-3.3757,-3.3006,-3.2685,-3.2886,-3.3761,-3.4204,-3.4262,-3.3729,-3.4356,-3.4225,-3.284,-3.4237,-3.4776,-3.391,-3.468,-3.5161,-3.5161,-3.4314,-3.3506,-3.2756,-3.2737,-3.2737,-3.2737,-3.2622,-3.2256,-3.1679,-3.0814,-3.0398,-3.0398,-3.0398,-3.0398,-3.0398,-3.0398,-3.0398,-3.0398,-3.0398,-3.0398,-3.0398,-3.0467,-3.0487,-3.0502,-2.231,-2.231,-2.2525,-2.3236,-2.3813,-2.419,-2.419,-2.4823,-2.5303,-2.5303,-2.661,-2.6826,-2.4907,-2.4392,-2.419,-2.419,-2.419,-2.419,-2.419,-2.419,-2.3955,-2.3399,-2.3894,-2.419,-2.419,-2.419,-2.4375,-2.4697,-2.5096,-2.5303,-2.5293,-2.4727,-2.4375,-2.419,-2.4284,-2.4358,-2.4375,-2.4247,-2.419,-2.419,-2.419,-2.419,-2.419,-2.419,-2.419,-2.419,-2.419,-2.419,-2.419,-2.419,-2.419,-2.419,-2.419,-2.419,-2.419,-2.419,-2.452,-2.4869,-2.4869,-2.5456,-2.6172,-2.6612,-2.7255,-2.8044,-2.8943,-2.942,-2.9769,-3.0136,-3.0332,-3.0816,-3.2056,-3.2901,-3.3318,-3.3124,-3.3996,-3.4408,-3.3527,-3.3723,-3.4044,-3.4263,-3.4527,-3.4602,-3.432,-3.4789,-3.4623,-3.3493,-3.4721,-3.5122,-3.4237,-3.5026,-3.5493,-3.5493,-3.4641,-3.3776,-3.291,-3.3372,-3.3372,-3.291,-3.3245,-3.2972,-3.2182,-3.1306,-3.0581,-3.0022,-3.0122,-3.0182,-3.0196,-3.0343,-3.0398,-3.0398,-3.0398,-3.0398,-3.0398,-3.0417,-3.0477,-3.051]}]]